<?xml version="1.0" encoding="UTF-8" standalone="no" ?>
<gpx xmlns="http://www.topografix.com/GPX/1/1" xmlns:xsi="http://www.w3.org/2001/XMLSchema-instance" xsi:schemaLocation="http://www.topografix.com/GPX/1/1 http://www.topografix.com/GPX/1/1/gpx.xsd" version="1.1" creator="VisuGPX - https://www.visugpx.com">
  <metadata>
    <name>-1-Lanne-Sud</name>
    <desc><![CDATA[SEMAINE LSVC 2024]]></desc>
  </metadata>
  <wpt lat="42.99828" lon="-0.75281">
    <ele>1221</ele>
    <name><![CDATA[Col de Suscouss]]></name>
    <type><![CDATA[GENERIC]]></type>
  </wpt>
  <wpt lat="42.99834" lon="-0.75279">
    <ele>1220.1</ele>
    <name><![CDATA[Col de Suscouss]]></name>
    <type><![CDATA[GENERIC]]></type>
  </wpt>
  <wpt lat="43.09285" lon="-0.87315">
    <ele>253.9</ele>
    <name><![CDATA[Lichans-Sunhar]]></name>
    <type><![CDATA[GENERIC]]></type>
  </wpt>
  <wpt lat="43.06706" lon="-0.87659">
    <ele>263.4</ele>
    <name><![CDATA[Licq-Athérey]]></name>
    <type><![CDATA[GENERIC]]></type>
  </wpt>
  <wpt lat="43.01553" lon="-0.79136">
    <ele>1436.5</ele>
    <name><![CDATA[Col de la Hourc]]></name>
    <type><![CDATA[GENERIC]]></type>
  </wpt>
  <wpt lat="43.01557" lon="-0.79164">
    <ele>1436.1</ele>
    <name><![CDATA[Col de la Hourc]]></name>
    <type><![CDATA[GENERIC]]></type>
  </wpt>
  <wpt lat="43.01386" lon="-0.85417">
    <ele>431.1</ele>
    <name><![CDATA[Sainte-Engrâce]]></name>
    <type><![CDATA[GENERIC]]></type>
  </wpt>
  <trk>
    <name><![CDATA[-1-Lanne-Sud]]></name>
    <extensions>
      <line xmlns="http://www.topografix.com/GPX/gpx_style/0/2">
        <color>0000FF</color>
        <width>4</width>
      </line>
    </extensions>
    <trkseg>
      <trkpt lat="43.09712" lon="-0.77879">
        <ele>336.93</ele>
        <time>2023-12-21T20:42:23.000Z</time>
      </trkpt>
      <trkpt lat="43.09661" lon="-0.77924">
        <ele>337.74</ele>
        <time>2023-12-21T20:42:23.011Z</time>
      </trkpt>
      <trkpt lat="43.0961" lon="-0.77995">
        <ele>338.81</ele>
        <time>2023-12-21T20:42:23.036Z</time>
      </trkpt>
      <trkpt lat="43.09568" lon="-0.78026">
        <ele>340.01</ele>
        <time>2023-12-21T20:42:23.070Z</time>
      </trkpt>
      <trkpt lat="43.09523" lon="-0.78064">
        <ele>340.93</ele>
        <time>2023-12-21T20:42:23.114Z</time>
      </trkpt>
      <trkpt lat="43.09429" lon="-0.78112">
        <ele>342.06</ele>
        <time>2023-12-21T20:42:23.176Z</time>
      </trkpt>
      <trkpt lat="43.09364" lon="-0.7815">
        <ele>343.25</ele>
        <time>2023-12-21T20:42:23.251Z</time>
      </trkpt>
      <trkpt lat="43.09306" lon="-0.78201">
        <ele>344.46</ele>
        <time>2023-12-21T20:42:23.339Z</time>
      </trkpt>
      <trkpt lat="43.09277" lon="-0.78221">
        <ele>345.48</ele>
        <time>2023-12-21T20:42:23.433Z</time>
      </trkpt>
      <trkpt lat="43.09261" lon="-0.78226">
        <ele>346.53</ele>
        <time>2023-12-21T20:42:23.530Z</time>
      </trkpt>
      <trkpt lat="43.09167" lon="-0.78227">
        <ele>347.94</ele>
        <time>2023-12-21T20:42:23.645Z</time>
      </trkpt>
      <trkpt lat="43.09092" lon="-0.78237">
        <ele>349.18</ele>
        <time>2023-12-21T20:42:23.774Z</time>
      </trkpt>
      <trkpt lat="43.09067" lon="-0.78243">
        <ele>350.48</ele>
        <time>2023-12-21T20:42:23.908Z</time>
      </trkpt>
      <trkpt lat="43.09052" lon="-0.78252">
        <ele>351.83</ele>
        <time>2023-12-21T20:42:24.045Z</time>
      </trkpt>
      <trkpt lat="43.09019" lon="-0.78264">
        <ele>353.15</ele>
        <time>2023-12-21T20:42:24.188Z</time>
      </trkpt>
      <trkpt lat="43.09002" lon="-0.78268">
        <ele>354.39</ele>
        <time>2023-12-21T20:42:24.334Z</time>
      </trkpt>
      <trkpt lat="43.08852" lon="-0.78285">
        <ele>356.02</ele>
        <time>2023-12-21T20:42:24.508Z</time>
      </trkpt>
      <trkpt lat="43.08825" lon="-0.7829">
        <ele>357.22</ele>
        <time>2023-12-21T20:42:24.687Z</time>
      </trkpt>
      <trkpt lat="43.08792" lon="-0.783">
        <ele>358.44</ele>
        <time>2023-12-21T20:42:24.873Z</time>
      </trkpt>
      <trkpt lat="43.08751" lon="-0.78318">
        <ele>359.94</ele>
        <time>2023-12-21T20:42:25.067Z</time>
      </trkpt>
      <trkpt lat="43.08733" lon="-0.78321">
        <ele>361.5</ele>
        <time>2023-12-21T20:42:25.264Z</time>
      </trkpt>
      <trkpt lat="43.087" lon="-0.78321">
        <ele>363.2</ele>
        <time>2023-12-21T20:42:25.467Z</time>
      </trkpt>
      <trkpt lat="43.08587" lon="-0.78308">
        <ele>364.75</ele>
        <time>2023-12-21T20:42:25.691Z</time>
      </trkpt>
      <trkpt lat="43.08502" lon="-0.7831">
        <ele>366.25</ele>
        <time>2023-12-21T20:42:25.931Z</time>
      </trkpt>
      <trkpt lat="43.08411" lon="-0.78316">
        <ele>368.06</ele>
        <time>2023-12-21T20:42:26.188Z</time>
      </trkpt>
      <trkpt lat="43.08242" lon="-0.78338">
        <ele>370.13</ele>
        <time>2023-12-21T20:42:26.477Z</time>
      </trkpt>
      <trkpt lat="43.08212" lon="-0.78354">
        <ele>372.24</ele>
        <time>2023-12-21T20:42:26.771Z</time>
      </trkpt>
      <trkpt lat="43.08079" lon="-0.78352">
        <ele>373.59</ele>
        <time>2023-12-21T20:42:27.090Z</time>
      </trkpt>
      <trkpt lat="43.0803" lon="-0.78351">
        <ele>375.31</ele>
        <time>2023-12-21T20:42:27.418Z</time>
      </trkpt>
      <trkpt lat="43.07969" lon="-0.78373">
        <ele>377.12</ele>
        <time>2023-12-21T20:42:27.758Z</time>
      </trkpt>
      <trkpt lat="43.07906" lon="-0.78401">
        <ele>378.93</ele>
        <time>2023-12-21T20:42:28.110Z</time>
      </trkpt>
      <trkpt lat="43.07626" lon="-0.78592">
        <ele>381.04</ele>
        <time>2023-12-21T20:42:28.521Z</time>
      </trkpt>
      <trkpt lat="43.07563" lon="-0.7866">
        <ele>383.1</ele>
        <time>2023-12-21T20:42:28.947Z</time>
      </trkpt>
      <trkpt lat="43.07547" lon="-0.78674">
        <ele>384.89</ele>
        <time>2023-12-21T20:42:29.376Z</time>
      </trkpt>
      <trkpt lat="43.07483" lon="-0.78712">
        <ele>386.77</ele>
        <time>2023-12-21T20:42:29.818Z</time>
      </trkpt>
      <trkpt lat="43.07457" lon="-0.78722">
        <ele>388.47</ele>
        <time>2023-12-21T20:42:30.265Z</time>
      </trkpt>
      <trkpt lat="43.07387" lon="-0.7874">
        <ele>390.12</ele>
        <time>2023-12-21T20:42:30.725Z</time>
      </trkpt>
      <trkpt lat="43.07373" lon="-0.78737">
        <ele>391.66</ele>
        <time>2023-12-21T20:42:31.188Z</time>
      </trkpt>
      <trkpt lat="43.07342" lon="-0.78716">
        <ele>393.06</ele>
        <time>2023-12-21T20:42:31.657Z</time>
      </trkpt>
      <trkpt lat="43.07327" lon="-0.78711">
        <ele>394.4</ele>
        <time>2023-12-21T20:42:32.129Z</time>
      </trkpt>
      <trkpt lat="43.07316" lon="-0.78713">
        <ele>395.68</ele>
        <time>2023-12-21T20:42:32.603Z</time>
      </trkpt>
      <trkpt lat="43.07197" lon="-0.78778">
        <ele>397.1</ele>
        <time>2023-12-21T20:42:33.101Z</time>
      </trkpt>
      <trkpt lat="43.07153" lon="-0.78799">
        <ele>398.61</ele>
        <time>2023-12-21T20:42:33.608Z</time>
      </trkpt>
      <trkpt lat="43.07127" lon="-0.78815">
        <ele>399.91</ele>
        <time>2023-12-21T20:42:34.120Z</time>
      </trkpt>
      <trkpt lat="43.07107" lon="-0.7883">
        <ele>401.12</ele>
        <time>2023-12-21T20:42:34.636Z</time>
      </trkpt>
      <trkpt lat="43.07084" lon="-0.78842">
        <ele>402.33</ele>
        <time>2023-12-21T20:42:35.157Z</time>
      </trkpt>
      <trkpt lat="43.07072" lon="-0.78845">
        <ele>403.54</ele>
        <time>2023-12-21T20:42:35.680Z</time>
      </trkpt>
      <trkpt lat="43.07033" lon="-0.78845">
        <ele>404.87</ele>
        <time>2023-12-21T20:42:36.211Z</time>
      </trkpt>
      <trkpt lat="43.06986" lon="-0.78857">
        <ele>406.28</ele>
        <time>2023-12-21T20:42:36.750Z</time>
      </trkpt>
      <trkpt lat="43.0695" lon="-0.7887">
        <ele>407.55</ele>
        <time>2023-12-21T20:42:37.296Z</time>
      </trkpt>
      <trkpt lat="43.069" lon="-0.78883">
        <ele>409.05</ele>
        <time>2023-12-21T20:42:37.852Z</time>
      </trkpt>
      <trkpt lat="43.06844" lon="-0.78903">
        <ele>410.51</ele>
        <time>2023-12-21T20:42:38.419Z</time>
      </trkpt>
      <trkpt lat="43.06752" lon="-0.78973">
        <ele>411.81</ele>
        <time>2023-12-21T20:42:39.005Z</time>
      </trkpt>
      <trkpt lat="43.06717" lon="-0.78995">
        <ele>413.16</ele>
        <time>2023-12-21T20:42:39.598Z</time>
      </trkpt>
      <trkpt lat="43.0666" lon="-0.79025">
        <ele>414.76</ele>
        <time>2023-12-21T20:42:40.203Z</time>
      </trkpt>
      <trkpt lat="43.06613" lon="-0.79066">
        <ele>416.44</ele>
        <time>2023-12-21T20:42:40.818Z</time>
      </trkpt>
      <trkpt lat="43.06581" lon="-0.79081">
        <ele>417.92</ele>
        <time>2023-12-21T20:42:41.439Z</time>
      </trkpt>
      <trkpt lat="43.06533" lon="-0.79082">
        <ele>419.2</ele>
        <time>2023-12-21T20:42:42.069Z</time>
      </trkpt>
      <trkpt lat="43.06411" lon="-0.79077">
        <ele>420.76</ele>
        <time>2023-12-21T20:42:42.722Z</time>
      </trkpt>
      <trkpt lat="43.06316" lon="-0.79082">
        <ele>422.44</ele>
        <time>2023-12-21T20:42:43.393Z</time>
      </trkpt>
      <trkpt lat="43.06281" lon="-0.79086">
        <ele>423.96</ele>
        <time>2023-12-21T20:42:44.070Z</time>
      </trkpt>
      <trkpt lat="43.06271" lon="-0.79089">
        <ele>425.37</ele>
        <time>2023-12-21T20:42:44.749Z</time>
      </trkpt>
      <trkpt lat="43.06245" lon="-0.79112">
        <ele>426.84</ele>
        <time>2023-12-21T20:42:45.434Z</time>
      </trkpt>
      <trkpt lat="43.06239" lon="-0.79115">
        <ele>428.23</ele>
        <time>2023-12-21T20:42:46.120Z</time>
      </trkpt>
      <trkpt lat="43.0623" lon="-0.79115">
        <ele>429.59</ele>
        <time>2023-12-21T20:42:46.808Z</time>
      </trkpt>
      <trkpt lat="43.06147" lon="-0.79072">
        <ele>431.04</ele>
        <time>2023-12-21T20:42:47.512Z</time>
      </trkpt>
      <trkpt lat="43.06133" lon="-0.79066">
        <ele>432.48</ele>
        <time>2023-12-21T20:42:48.219Z</time>
      </trkpt>
      <trkpt lat="43.0611" lon="-0.79067">
        <ele>434.08</ele>
        <time>2023-12-21T20:42:48.930Z</time>
      </trkpt>
      <trkpt lat="43.06091" lon="-0.79074">
        <ele>435.67</ele>
        <time>2023-12-21T20:42:49.645Z</time>
      </trkpt>
      <trkpt lat="43.06061" lon="-0.79091">
        <ele>437.25</ele>
        <time>2023-12-21T20:42:50.366Z</time>
      </trkpt>
      <trkpt lat="43.06022" lon="-0.79108">
        <ele>438.92</ele>
        <time>2023-12-21T20:42:51.095Z</time>
      </trkpt>
      <trkpt lat="43.06008" lon="-0.79112">
        <ele>440.57</ele>
        <time>2023-12-21T20:42:51.826Z</time>
      </trkpt>
      <trkpt lat="43.05992" lon="-0.7911">
        <ele>442.22</ele>
        <time>2023-12-21T20:42:52.560Z</time>
      </trkpt>
      <trkpt lat="43.05962" lon="-0.79099">
        <ele>443.89</ele>
        <time>2023-12-21T20:42:53.300Z</time>
      </trkpt>
      <trkpt lat="43.05944" lon="-0.79096">
        <ele>445.63</ele>
        <time>2023-12-21T20:42:54.043Z</time>
      </trkpt>
      <trkpt lat="43.05926" lon="-0.79096">
        <ele>447.5</ele>
        <time>2023-12-21T20:42:54.790Z</time>
      </trkpt>
      <trkpt lat="43.05904" lon="-0.79102">
        <ele>449.54</ele>
        <time>2023-12-21T20:42:55.541Z</time>
      </trkpt>
      <trkpt lat="43.05889" lon="-0.79111">
        <ele>451.54</ele>
        <time>2023-12-21T20:42:56.295Z</time>
      </trkpt>
      <trkpt lat="43.05866" lon="-0.79132">
        <ele>453.66</ele>
        <time>2023-12-21T20:42:57.054Z</time>
      </trkpt>
      <trkpt lat="43.05834" lon="-0.7917">
        <ele>455.97</ele>
        <time>2023-12-21T20:42:57.821Z</time>
      </trkpt>
      <trkpt lat="43.05799" lon="-0.79204">
        <ele>458.33</ele>
        <time>2023-12-21T20:42:58.596Z</time>
      </trkpt>
      <trkpt lat="43.05784" lon="-0.79233">
        <ele>460.79</ele>
        <time>2023-12-21T20:42:59.376Z</time>
      </trkpt>
      <trkpt lat="43.05763" lon="-0.79265">
        <ele>463.38</ele>
        <time>2023-12-21T20:43:00.162Z</time>
      </trkpt>
      <trkpt lat="43.05741" lon="-0.79292">
        <ele>466.23</ele>
        <time>2023-12-21T20:43:00.953Z</time>
      </trkpt>
      <trkpt lat="43.05668" lon="-0.79366">
        <ele>469.22</ele>
        <time>2023-12-21T20:43:01.761Z</time>
      </trkpt>
      <trkpt lat="43.05654" lon="-0.79385">
        <ele>472.04</ele>
        <time>2023-12-21T20:43:02.573Z</time>
      </trkpt>
      <trkpt lat="43.05643" lon="-0.79404">
        <ele>474.94</ele>
        <time>2023-12-21T20:43:03.388Z</time>
      </trkpt>
      <trkpt lat="43.05632" lon="-0.79413">
        <ele>477.83</ele>
        <time>2023-12-21T20:43:04.206Z</time>
      </trkpt>
      <trkpt lat="43.05604" lon="-0.79425">
        <ele>480.88</ele>
        <time>2023-12-21T20:43:05.029Z</time>
      </trkpt>
      <trkpt lat="43.05539" lon="-0.79438">
        <ele>484.34</ele>
        <time>2023-12-21T20:43:05.864Z</time>
      </trkpt>
      <trkpt lat="43.05436" lon="-0.79451">
        <ele>488.3</ele>
        <time>2023-12-21T20:43:06.719Z</time>
      </trkpt>
      <trkpt lat="43.054" lon="-0.7948">
        <ele>491.91</ele>
        <time>2023-12-21T20:43:07.581Z</time>
      </trkpt>
      <trkpt lat="43.05383" lon="-0.79489">
        <ele>495.43</ele>
        <time>2023-12-21T20:43:08.447Z</time>
      </trkpt>
      <trkpt lat="43.05292" lon="-0.79511">
        <ele>499.44</ele>
        <time>2023-12-21T20:43:09.330Z</time>
      </trkpt>
      <trkpt lat="43.05259" lon="-0.79521">
        <ele>503.07</ele>
        <time>2023-12-21T20:43:10.219Z</time>
      </trkpt>
      <trkpt lat="43.05202" lon="-0.79494">
        <ele>506.96</ele>
        <time>2023-12-21T20:43:11.119Z</time>
      </trkpt>
      <trkpt lat="43.05183" lon="-0.79479">
        <ele>510.73</ele>
        <time>2023-12-21T20:43:12.023Z</time>
      </trkpt>
      <trkpt lat="43.05157" lon="-0.79448">
        <ele>514.66</ele>
        <time>2023-12-21T20:43:12.934Z</time>
      </trkpt>
      <trkpt lat="43.05135" lon="-0.79437">
        <ele>518.3</ele>
        <time>2023-12-21T20:43:13.849Z</time>
      </trkpt>
      <trkpt lat="43.05113" lon="-0.79431">
        <ele>521.82</ele>
        <time>2023-12-21T20:43:14.768Z</time>
      </trkpt>
      <trkpt lat="43.05045" lon="-0.79406">
        <ele>525.81</ele>
        <time>2023-12-21T20:43:15.701Z</time>
      </trkpt>
      <trkpt lat="43.05036" lon="-0.79398">
        <ele>529.24</ele>
        <time>2023-12-21T20:43:16.636Z</time>
      </trkpt>
      <trkpt lat="43.05029" lon="-0.79382">
        <ele>532.62</ele>
        <time>2023-12-21T20:43:17.573Z</time>
      </trkpt>
      <trkpt lat="43.05033" lon="-0.79335">
        <ele>536.15</ele>
        <time>2023-12-21T20:43:18.517Z</time>
      </trkpt>
      <trkpt lat="43.05023" lon="-0.79287">
        <ele>539.56</ele>
        <time>2023-12-21T20:43:19.467Z</time>
      </trkpt>
      <trkpt lat="43.05019" lon="-0.79241">
        <ele>542.99</ele>
        <time>2023-12-21T20:43:20.424Z</time>
      </trkpt>
      <trkpt lat="43.05009" lon="-0.79209">
        <ele>546.15</ele>
        <time>2023-12-21T20:43:21.385Z</time>
      </trkpt>
      <trkpt lat="43.05001" lon="-0.79174">
        <ele>549.24</ele>
        <time>2023-12-21T20:43:22.351Z</time>
      </trkpt>
      <trkpt lat="43.04991" lon="-0.79149">
        <ele>552.23</ele>
        <time>2023-12-21T20:43:23.321Z</time>
      </trkpt>
      <trkpt lat="43.04978" lon="-0.79128">
        <ele>555.14</ele>
        <time>2023-12-21T20:43:24.295Z</time>
      </trkpt>
      <trkpt lat="43.04963" lon="-0.79115">
        <ele>557.94</ele>
        <time>2023-12-21T20:43:25.272Z</time>
      </trkpt>
      <trkpt lat="43.04883" lon="-0.79082">
        <ele>560.66</ele>
        <time>2023-12-21T20:43:26.265Z</time>
      </trkpt>
      <trkpt lat="43.04874" lon="-0.79075">
        <ele>563.35</ele>
        <time>2023-12-21T20:43:27.260Z</time>
      </trkpt>
      <trkpt lat="43.04841" lon="-0.79038">
        <ele>566</ele>
        <time>2023-12-21T20:43:28.263Z</time>
      </trkpt>
      <trkpt lat="43.04826" lon="-0.79026">
        <ele>568.76</ele>
        <time>2023-12-21T20:43:29.269Z</time>
      </trkpt>
      <trkpt lat="43.04809" lon="-0.79021">
        <ele>571.55</ele>
        <time>2023-12-21T20:43:30.278Z</time>
      </trkpt>
      <trkpt lat="43.04754" lon="-0.79012">
        <ele>574.53</ele>
        <time>2023-12-21T20:43:31.298Z</time>
      </trkpt>
      <trkpt lat="43.04727" lon="-0.79013">
        <ele>577.41</ele>
        <time>2023-12-21T20:43:32.323Z</time>
      </trkpt>
      <trkpt lat="43.04673" lon="-0.79029">
        <ele>580.4</ele>
        <time>2023-12-21T20:43:33.358Z</time>
      </trkpt>
      <trkpt lat="43.04646" lon="-0.79031">
        <ele>583.37</ele>
        <time>2023-12-21T20:43:34.398Z</time>
      </trkpt>
      <trkpt lat="43.04622" lon="-0.7903">
        <ele>586.32</ele>
        <time>2023-12-21T20:43:35.442Z</time>
      </trkpt>
      <trkpt lat="43.04607" lon="-0.79024">
        <ele>589.36</ele>
        <time>2023-12-21T20:43:36.489Z</time>
      </trkpt>
      <trkpt lat="43.04597" lon="-0.79017">
        <ele>592.27</ele>
        <time>2023-12-21T20:43:37.538Z</time>
      </trkpt>
      <trkpt lat="43.04571" lon="-0.78964">
        <ele>595.62</ele>
        <time>2023-12-21T20:43:38.596Z</time>
      </trkpt>
      <trkpt lat="43.04536" lon="-0.78939">
        <ele>598.89</ele>
        <time>2023-12-21T20:43:39.661Z</time>
      </trkpt>
      <trkpt lat="43.04508" lon="-0.78907">
        <ele>602.12</ele>
        <time>2023-12-21T20:43:40.733Z</time>
      </trkpt>
      <trkpt lat="43.04477" lon="-0.78876">
        <ele>605.27</ele>
        <time>2023-12-21T20:43:41.812Z</time>
      </trkpt>
      <trkpt lat="43.04444" lon="-0.78848">
        <ele>608.43</ele>
        <time>2023-12-21T20:43:42.899Z</time>
      </trkpt>
      <trkpt lat="43.04424" lon="-0.78827">
        <ele>611.77</ele>
        <time>2023-12-21T20:43:43.990Z</time>
      </trkpt>
      <trkpt lat="43.04403" lon="-0.7881">
        <ele>615.09</ele>
        <time>2023-12-21T20:43:45.086Z</time>
      </trkpt>
      <trkpt lat="43.04388" lon="-0.78812">
        <ele>618.43</ele>
        <time>2023-12-21T20:43:46.185Z</time>
      </trkpt>
      <trkpt lat="43.04348" lon="-0.78839">
        <ele>621.45</ele>
        <time>2023-12-21T20:43:47.292Z</time>
      </trkpt>
      <trkpt lat="43.04322" lon="-0.78853">
        <ele>624.89</ele>
        <time>2023-12-21T20:43:48.404Z</time>
      </trkpt>
      <trkpt lat="43.0431" lon="-0.78855">
        <ele>628.34</ele>
        <time>2023-12-21T20:43:49.518Z</time>
      </trkpt>
      <trkpt lat="43.04276" lon="-0.7884">
        <ele>632.2</ele>
        <time>2023-12-21T20:43:50.639Z</time>
      </trkpt>
      <trkpt lat="43.04265" lon="-0.78839">
        <ele>635.75</ele>
        <time>2023-12-21T20:43:51.762Z</time>
      </trkpt>
      <trkpt lat="43.0421" lon="-0.78852">
        <ele>639.62</ele>
        <time>2023-12-21T20:43:52.895Z</time>
      </trkpt>
      <trkpt lat="43.04196" lon="-0.7885">
        <ele>643.21</ele>
        <time>2023-12-21T20:43:54.031Z</time>
      </trkpt>
      <trkpt lat="43.04183" lon="-0.78842">
        <ele>646.78</ele>
        <time>2023-12-21T20:43:55.170Z</time>
      </trkpt>
      <trkpt lat="43.04172" lon="-0.78817">
        <ele>650.65</ele>
        <time>2023-12-21T20:43:56.313Z</time>
      </trkpt>
      <trkpt lat="43.04169" lon="-0.78797">
        <ele>654.5</ele>
        <time>2023-12-21T20:43:57.458Z</time>
      </trkpt>
      <trkpt lat="43.04163" lon="-0.78779">
        <ele>658.35</ele>
        <time>2023-12-21T20:43:58.606Z</time>
      </trkpt>
      <trkpt lat="43.04154" lon="-0.7876">
        <ele>662.15</ele>
        <time>2023-12-21T20:43:59.757Z</time>
      </trkpt>
      <trkpt lat="43.04129" lon="-0.78734">
        <ele>666.01</ele>
        <time>2023-12-21T20:44:00.914Z</time>
      </trkpt>
      <trkpt lat="43.04097" lon="-0.78662">
        <ele>670.2</ele>
        <time>2023-12-21T20:44:02.083Z</time>
      </trkpt>
      <trkpt lat="43.04067" lon="-0.78607">
        <ele>674.13</ele>
        <time>2023-12-21T20:44:03.261Z</time>
      </trkpt>
      <trkpt lat="43.04049" lon="-0.78592">
        <ele>677.87</ele>
        <time>2023-12-21T20:44:04.443Z</time>
      </trkpt>
      <trkpt lat="43.04016" lon="-0.78582">
        <ele>681.66</ele>
        <time>2023-12-21T20:44:05.631Z</time>
      </trkpt>
      <trkpt lat="43.04004" lon="-0.78572">
        <ele>685.46</ele>
        <time>2023-12-21T20:44:06.822Z</time>
      </trkpt>
      <trkpt lat="43.03987" lon="-0.78533">
        <ele>689.6</ele>
        <time>2023-12-21T20:44:08.019Z</time>
      </trkpt>
      <trkpt lat="43.03968" lon="-0.78507">
        <ele>693.52</ele>
        <time>2023-12-21T20:44:09.221Z</time>
      </trkpt>
      <trkpt lat="43.03948" lon="-0.78464">
        <ele>697.61</ele>
        <time>2023-12-21T20:44:10.430Z</time>
      </trkpt>
      <trkpt lat="43.03937" lon="-0.78453">
        <ele>701.3</ele>
        <time>2023-12-21T20:44:11.641Z</time>
      </trkpt>
      <trkpt lat="43.03914" lon="-0.78448">
        <ele>704.66</ele>
        <time>2023-12-21T20:44:12.857Z</time>
      </trkpt>
      <trkpt lat="43.039" lon="-0.78447">
        <ele>708.02</ele>
        <time>2023-12-21T20:44:14.075Z</time>
      </trkpt>
      <trkpt lat="43.03878" lon="-0.78432">
        <ele>711.71</ele>
        <time>2023-12-21T20:44:15.298Z</time>
      </trkpt>
      <trkpt lat="43.03868" lon="-0.7843">
        <ele>715.16</ele>
        <time>2023-12-21T20:44:16.523Z</time>
      </trkpt>
      <trkpt lat="43.03858" lon="-0.78432">
        <ele>718.53</ele>
        <time>2023-12-21T20:44:17.750Z</time>
      </trkpt>
      <trkpt lat="43.03849" lon="-0.78438">
        <ele>721.76</ele>
        <time>2023-12-21T20:44:18.979Z</time>
      </trkpt>
      <trkpt lat="43.03829" lon="-0.78459">
        <ele>724.82</ele>
        <time>2023-12-21T20:44:20.212Z</time>
      </trkpt>
      <trkpt lat="43.0378" lon="-0.78496">
        <ele>728.3</ele>
        <time>2023-12-21T20:44:21.456Z</time>
      </trkpt>
      <trkpt lat="43.03763" lon="-0.78511">
        <ele>731.51</ele>
        <time>2023-12-21T20:44:22.703Z</time>
      </trkpt>
      <trkpt lat="43.03748" lon="-0.78516">
        <ele>734.7</ele>
        <time>2023-12-21T20:44:23.953Z</time>
      </trkpt>
      <trkpt lat="43.03656" lon="-0.78518">
        <ele>738.43</ele>
        <time>2023-12-21T20:44:25.220Z</time>
      </trkpt>
      <trkpt lat="43.0364" lon="-0.78516">
        <ele>741.53</ele>
        <time>2023-12-21T20:44:26.490Z</time>
      </trkpt>
      <trkpt lat="43.03598" lon="-0.78502">
        <ele>745.04</ele>
        <time>2023-12-21T20:44:27.769Z</time>
      </trkpt>
      <trkpt lat="43.03584" lon="-0.785">
        <ele>747.84</ele>
        <time>2023-12-21T20:44:29.050Z</time>
      </trkpt>
      <trkpt lat="43.03571" lon="-0.78504">
        <ele>750.44</ele>
        <time>2023-12-21T20:44:30.334Z</time>
      </trkpt>
      <trkpt lat="43.03552" lon="-0.78525">
        <ele>753.17</ele>
        <time>2023-12-21T20:44:31.622Z</time>
      </trkpt>
      <trkpt lat="43.03495" lon="-0.78603">
        <ele>755.85</ele>
        <time>2023-12-21T20:44:32.925Z</time>
      </trkpt>
      <trkpt lat="43.0349" lon="-0.78611">
        <ele>758.21</ele>
        <time>2023-12-21T20:44:34.230Z</time>
      </trkpt>
      <trkpt lat="43.03487" lon="-0.78625">
        <ele>760.49</ele>
        <time>2023-12-21T20:44:35.537Z</time>
      </trkpt>
      <trkpt lat="43.03488" lon="-0.78632">
        <ele>762.65</ele>
        <time>2023-12-21T20:44:36.845Z</time>
      </trkpt>
      <trkpt lat="43.03491" lon="-0.78643">
        <ele>764.76</ele>
        <time>2023-12-21T20:44:38.154Z</time>
      </trkpt>
      <trkpt lat="43.03498" lon="-0.7865">
        <ele>766.96</ele>
        <time>2023-12-21T20:44:39.465Z</time>
      </trkpt>
      <trkpt lat="43.03514" lon="-0.78647">
        <ele>768.98</ele>
        <time>2023-12-21T20:44:40.779Z</time>
      </trkpt>
      <trkpt lat="43.03572" lon="-0.78605">
        <ele>770.05</ele>
        <time>2023-12-21T20:44:42.105Z</time>
      </trkpt>
      <trkpt lat="43.03584" lon="-0.78599">
        <ele>771.59</ele>
        <time>2023-12-21T20:44:43.433Z</time>
      </trkpt>
      <trkpt lat="43.03595" lon="-0.78604">
        <ele>773.3</ele>
        <time>2023-12-21T20:44:44.764Z</time>
      </trkpt>
      <trkpt lat="43.03615" lon="-0.78617">
        <ele>774.98</ele>
        <time>2023-12-21T20:44:46.099Z</time>
      </trkpt>
      <trkpt lat="43.03638" lon="-0.78635">
        <ele>776.71</ele>
        <time>2023-12-21T20:44:47.439Z</time>
      </trkpt>
      <trkpt lat="43.03659" lon="-0.78665">
        <ele>778.24</ele>
        <time>2023-12-21T20:44:48.784Z</time>
      </trkpt>
      <trkpt lat="43.03662" lon="-0.78691">
        <ele>780</ele>
        <time>2023-12-21T20:44:50.133Z</time>
      </trkpt>
      <trkpt lat="43.03661" lon="-0.78721">
        <ele>781.93</ele>
        <time>2023-12-21T20:44:51.486Z</time>
      </trkpt>
      <trkpt lat="43.03658" lon="-0.78745">
        <ele>783.92</ele>
        <time>2023-12-21T20:44:52.842Z</time>
      </trkpt>
      <trkpt lat="43.0366" lon="-0.78763">
        <ele>785.69</ele>
        <time>2023-12-21T20:44:54.201Z</time>
      </trkpt>
      <trkpt lat="43.03666" lon="-0.78769">
        <ele>787.12</ele>
        <time>2023-12-21T20:44:55.561Z</time>
      </trkpt>
      <trkpt lat="43.03684" lon="-0.78775">
        <ele>788.29</ele>
        <time>2023-12-21T20:44:56.925Z</time>
      </trkpt>
      <trkpt lat="43.03695" lon="-0.7879">
        <ele>789.88</ele>
        <time>2023-12-21T20:44:58.291Z</time>
      </trkpt>
      <trkpt lat="43.03706" lon="-0.78829">
        <ele>791.78</ele>
        <time>2023-12-21T20:44:59.663Z</time>
      </trkpt>
      <trkpt lat="43.03713" lon="-0.78836">
        <ele>793.3</ele>
        <time>2023-12-21T20:45:01.037Z</time>
      </trkpt>
      <trkpt lat="43.03741" lon="-0.78826">
        <ele>794.45</ele>
        <time>2023-12-21T20:45:02.416Z</time>
      </trkpt>
      <trkpt lat="43.03751" lon="-0.78826">
        <ele>795.9</ele>
        <time>2023-12-21T20:45:03.797Z</time>
      </trkpt>
      <trkpt lat="43.03761" lon="-0.78835">
        <ele>797.5</ele>
        <time>2023-12-21T20:45:05.180Z</time>
      </trkpt>
      <trkpt lat="43.03774" lon="-0.78858">
        <ele>799.14</ele>
        <time>2023-12-21T20:45:06.567Z</time>
      </trkpt>
      <trkpt lat="43.03781" lon="-0.78874">
        <ele>800.66</ele>
        <time>2023-12-21T20:45:07.957Z</time>
      </trkpt>
      <trkpt lat="43.03781" lon="-0.78887">
        <ele>802.31</ele>
        <time>2023-12-21T20:45:09.349Z</time>
      </trkpt>
      <trkpt lat="43.03778" lon="-0.78893">
        <ele>804.05</ele>
        <time>2023-12-21T20:45:10.742Z</time>
      </trkpt>
      <trkpt lat="43.03769" lon="-0.78898">
        <ele>805.96</ele>
        <time>2023-12-21T20:45:12.136Z</time>
      </trkpt>
      <trkpt lat="43.03747" lon="-0.78884">
        <ele>807.97</ele>
        <time>2023-12-21T20:45:13.535Z</time>
      </trkpt>
      <trkpt lat="43.03728" lon="-0.7888">
        <ele>809.97</ele>
        <time>2023-12-21T20:45:14.937Z</time>
      </trkpt>
      <trkpt lat="43.03702" lon="-0.78892">
        <ele>812.36</ele>
        <time>2023-12-21T20:45:16.345Z</time>
      </trkpt>
      <trkpt lat="43.03685" lon="-0.78884">
        <ele>814.45</ele>
        <time>2023-12-21T20:45:17.756Z</time>
      </trkpt>
      <trkpt lat="43.03671" lon="-0.78866">
        <ele>816.33</ele>
        <time>2023-12-21T20:45:19.170Z</time>
      </trkpt>
      <trkpt lat="43.03646" lon="-0.78845">
        <ele>818.37</ele>
        <time>2023-12-21T20:45:20.590Z</time>
      </trkpt>
      <trkpt lat="43.03595" lon="-0.7884">
        <ele>820.92</ele>
        <time>2023-12-21T20:45:22.019Z</time>
      </trkpt>
      <trkpt lat="43.03585" lon="-0.78826">
        <ele>822.81</ele>
        <time>2023-12-21T20:45:23.451Z</time>
      </trkpt>
      <trkpt lat="43.03585" lon="-0.78798">
        <ele>824.43</ele>
        <time>2023-12-21T20:45:24.887Z</time>
      </trkpt>
      <trkpt lat="43.0358" lon="-0.78771">
        <ele>826.29</ele>
        <time>2023-12-21T20:45:26.327Z</time>
      </trkpt>
      <trkpt lat="43.03572" lon="-0.78761">
        <ele>828.25</ele>
        <time>2023-12-21T20:45:27.769Z</time>
      </trkpt>
      <trkpt lat="43.03562" lon="-0.78762">
        <ele>830.27</ele>
        <time>2023-12-21T20:45:29.213Z</time>
      </trkpt>
      <trkpt lat="43.03552" lon="-0.7877">
        <ele>832.37</ele>
        <time>2023-12-21T20:45:30.659Z</time>
      </trkpt>
      <trkpt lat="43.03543" lon="-0.78782">
        <ele>834.53</ele>
        <time>2023-12-21T20:45:32.107Z</time>
      </trkpt>
      <trkpt lat="43.03539" lon="-0.78797">
        <ele>836.71</ele>
        <time>2023-12-21T20:45:33.557Z</time>
      </trkpt>
      <trkpt lat="43.03549" lon="-0.78819">
        <ele>838.89</ele>
        <time>2023-12-21T20:45:35.011Z</time>
      </trkpt>
      <trkpt lat="43.0357" lon="-0.78875">
        <ele>841.52</ele>
        <time>2023-12-21T20:45:36.473Z</time>
      </trkpt>
      <trkpt lat="43.03604" lon="-0.7888">
        <ele>843.26</ele>
        <time>2023-12-21T20:45:37.942Z</time>
      </trkpt>
      <trkpt lat="43.03634" lon="-0.78907">
        <ele>845.45</ele>
        <time>2023-12-21T20:45:39.417Z</time>
      </trkpt>
      <trkpt lat="43.03648" lon="-0.78929">
        <ele>847.55</ele>
        <time>2023-12-21T20:45:40.896Z</time>
      </trkpt>
      <trkpt lat="43.03661" lon="-0.78969">
        <ele>849.57</ele>
        <time>2023-12-21T20:45:42.381Z</time>
      </trkpt>
      <trkpt lat="43.03662" lon="-0.78981">
        <ele>851.62</ele>
        <time>2023-12-21T20:45:43.868Z</time>
      </trkpt>
      <trkpt lat="43.0366" lon="-0.7899">
        <ele>853.72</ele>
        <time>2023-12-21T20:45:45.356Z</time>
      </trkpt>
      <trkpt lat="43.03653" lon="-0.7899">
        <ele>855.95</ele>
        <time>2023-12-21T20:45:46.846Z</time>
      </trkpt>
      <trkpt lat="43.03646" lon="-0.78978">
        <ele>858.23</ele>
        <time>2023-12-21T20:45:48.338Z</time>
      </trkpt>
      <trkpt lat="43.0364" lon="-0.78944">
        <ele>860.23</ele>
        <time>2023-12-21T20:45:49.835Z</time>
      </trkpt>
      <trkpt lat="43.03634" lon="-0.78934">
        <ele>862.34</ele>
        <time>2023-12-21T20:45:51.333Z</time>
      </trkpt>
      <trkpt lat="43.03617" lon="-0.7892">
        <ele>864.57</ele>
        <time>2023-12-21T20:45:52.835Z</time>
      </trkpt>
      <trkpt lat="43.03602" lon="-0.78918">
        <ele>866.93</ele>
        <time>2023-12-21T20:45:54.340Z</time>
      </trkpt>
      <trkpt lat="43.03566" lon="-0.78925">
        <ele>869.7</ele>
        <time>2023-12-21T20:45:55.852Z</time>
      </trkpt>
      <trkpt lat="43.03551" lon="-0.78917">
        <ele>871.92</ele>
        <time>2023-12-21T20:45:57.367Z</time>
      </trkpt>
      <trkpt lat="43.03538" lon="-0.78908">
        <ele>874.13</ele>
        <time>2023-12-21T20:45:58.884Z</time>
      </trkpt>
      <trkpt lat="43.03526" lon="-0.78903">
        <ele>876.39</ele>
        <time>2023-12-21T20:46:00.404Z</time>
      </trkpt>
      <trkpt lat="43.03521" lon="-0.78908">
        <ele>878.86</ele>
        <time>2023-12-21T20:46:01.925Z</time>
      </trkpt>
      <trkpt lat="43.03521" lon="-0.78922">
        <ele>881.54</ele>
        <time>2023-12-21T20:46:03.448Z</time>
      </trkpt>
      <trkpt lat="43.03535" lon="-0.78935">
        <ele>884.02</ele>
        <time>2023-12-21T20:46:04.974Z</time>
      </trkpt>
      <trkpt lat="43.03568" lon="-0.78948">
        <ele>886.32</ele>
        <time>2023-12-21T20:46:06.506Z</time>
      </trkpt>
      <trkpt lat="43.03596" lon="-0.78953">
        <ele>888.4</ele>
        <time>2023-12-21T20:46:08.043Z</time>
      </trkpt>
      <trkpt lat="43.03609" lon="-0.78968">
        <ele>890.78</ele>
        <time>2023-12-21T20:46:09.584Z</time>
      </trkpt>
      <trkpt lat="43.03614" lon="-0.78996">
        <ele>893.33</ele>
        <time>2023-12-21T20:46:11.129Z</time>
      </trkpt>
      <trkpt lat="43.03602" lon="-0.79052">
        <ele>896.58</ele>
        <time>2023-12-21T20:46:12.682Z</time>
      </trkpt>
      <trkpt lat="43.03596" lon="-0.79119">
        <ele>899.12</ele>
        <time>2023-12-21T20:46:14.244Z</time>
      </trkpt>
      <trkpt lat="43.0358" lon="-0.7918">
        <ele>902.11</ele>
        <time>2023-12-21T20:46:15.815Z</time>
      </trkpt>
      <trkpt lat="43.03592" lon="-0.79228">
        <ele>904.67</ele>
        <time>2023-12-21T20:46:17.392Z</time>
      </trkpt>
      <trkpt lat="43.03589" lon="-0.79265">
        <ele>907.58</ele>
        <time>2023-12-21T20:46:18.975Z</time>
      </trkpt>
      <trkpt lat="43.03591" lon="-0.79283">
        <ele>910.42</ele>
        <time>2023-12-21T20:46:20.560Z</time>
      </trkpt>
      <trkpt lat="43.03591" lon="-0.79283">
        <ele>910.44</ele>
        <time>2023-12-21T20:46:22.145Z</time>
      </trkpt>
      <trkpt lat="43.03648" lon="-0.79345">
        <ele>912.65</ele>
        <time>2023-12-21T20:46:23.744Z</time>
      </trkpt>
      <trkpt lat="43.03662" lon="-0.79379">
        <ele>915.32</ele>
        <time>2023-12-21T20:46:25.348Z</time>
      </trkpt>
      <trkpt lat="43.0365" lon="-0.79456">
        <ele>918.47</ele>
        <time>2023-12-21T20:46:26.963Z</time>
      </trkpt>
      <trkpt lat="43.03641" lon="-0.79502">
        <ele>921.38</ele>
        <time>2023-12-21T20:46:28.584Z</time>
      </trkpt>
      <trkpt lat="43.03602" lon="-0.79577">
        <ele>924.62</ele>
        <time>2023-12-21T20:46:30.218Z</time>
      </trkpt>
      <trkpt lat="43.03596" lon="-0.79581">
        <ele>927.39</ele>
        <time>2023-12-21T20:46:31.853Z</time>
      </trkpt>
      <trkpt lat="43.03592" lon="-0.79572">
        <ele>930.23</ele>
        <time>2023-12-21T20:46:33.489Z</time>
      </trkpt>
      <trkpt lat="43.03592" lon="-0.79559">
        <ele>933.01</ele>
        <time>2023-12-21T20:46:35.127Z</time>
      </trkpt>
      <trkpt lat="43.03602" lon="-0.79541">
        <ele>935.53</ele>
        <time>2023-12-21T20:46:36.768Z</time>
      </trkpt>
      <trkpt lat="43.03612" lon="-0.79517">
        <ele>938.02</ele>
        <time>2023-12-21T20:46:38.413Z</time>
      </trkpt>
      <trkpt lat="43.03612" lon="-0.79452">
        <ele>940.86</ele>
        <time>2023-12-21T20:46:40.067Z</time>
      </trkpt>
      <trkpt lat="43.03608" lon="-0.79429">
        <ele>943.57</ele>
        <time>2023-12-21T20:46:41.724Z</time>
      </trkpt>
      <trkpt lat="43.03596" lon="-0.79394">
        <ele>946.34</ele>
        <time>2023-12-21T20:46:43.386Z</time>
      </trkpt>
      <trkpt lat="43.03584" lon="-0.79384">
        <ele>949.29</ele>
        <time>2023-12-21T20:46:45.051Z</time>
      </trkpt>
      <trkpt lat="43.03575" lon="-0.79384">
        <ele>952.32</ele>
        <time>2023-12-21T20:46:46.718Z</time>
      </trkpt>
      <trkpt lat="43.03574" lon="-0.79397">
        <ele>955.34</ele>
        <time>2023-12-21T20:46:48.386Z</time>
      </trkpt>
      <trkpt lat="43.03587" lon="-0.79427">
        <ele>958.15</ele>
        <time>2023-12-21T20:46:50.059Z</time>
      </trkpt>
      <trkpt lat="43.03584" lon="-0.79459">
        <ele>961.25</ele>
        <time>2023-12-21T20:46:51.737Z</time>
      </trkpt>
      <trkpt lat="43.03565" lon="-0.79507">
        <ele>964.56</ele>
        <time>2023-12-21T20:46:53.422Z</time>
      </trkpt>
      <trkpt lat="43.03516" lon="-0.79583">
        <ele>968.62</ele>
        <time>2023-12-21T20:46:55.121Z</time>
      </trkpt>
      <trkpt lat="43.03509" lon="-0.79603">
        <ele>971.72</ele>
        <time>2023-12-21T20:46:56.823Z</time>
      </trkpt>
      <trkpt lat="43.03511" lon="-0.7965">
        <ele>974.52</ele>
        <time>2023-12-21T20:46:58.531Z</time>
      </trkpt>
      <trkpt lat="43.03507" lon="-0.79672">
        <ele>977.63</ele>
        <time>2023-12-21T20:47:00.242Z</time>
      </trkpt>
      <trkpt lat="43.0349" lon="-0.79713">
        <ele>980.84</ele>
        <time>2023-12-21T20:47:01.960Z</time>
      </trkpt>
      <trkpt lat="43.03463" lon="-0.79758">
        <ele>984.25</ele>
        <time>2023-12-21T20:47:03.686Z</time>
      </trkpt>
      <trkpt lat="43.0344" lon="-0.798">
        <ele>987.3</ele>
        <time>2023-12-21T20:47:05.419Z</time>
      </trkpt>
      <trkpt lat="43.03433" lon="-0.79801">
        <ele>990.52</ele>
        <time>2023-12-21T20:47:07.153Z</time>
      </trkpt>
      <trkpt lat="43.03431" lon="-0.79786">
        <ele>993.92</ele>
        <time>2023-12-21T20:47:08.889Z</time>
      </trkpt>
      <trkpt lat="43.03438" lon="-0.7977">
        <ele>996.96</ele>
        <time>2023-12-21T20:47:10.628Z</time>
      </trkpt>
      <trkpt lat="43.03455" lon="-0.79742">
        <ele>999.83</ele>
        <time>2023-12-21T20:47:12.372Z</time>
      </trkpt>
      <trkpt lat="43.03466" lon="-0.7971">
        <ele>1002.91</ele>
        <time>2023-12-21T20:47:14.121Z</time>
      </trkpt>
      <trkpt lat="43.03473" lon="-0.79649">
        <ele>1006.15</ele>
        <time>2023-12-21T20:47:15.878Z</time>
      </trkpt>
      <trkpt lat="43.03461" lon="-0.79582">
        <ele>1009.96</ele>
        <time>2023-12-21T20:47:17.644Z</time>
      </trkpt>
      <trkpt lat="43.03485" lon="-0.79461">
        <ele>1013.09</ele>
        <time>2023-12-21T20:47:19.428Z</time>
      </trkpt>
      <trkpt lat="43.03479" lon="-0.79412">
        <ele>1016.27</ele>
        <time>2023-12-21T20:47:21.218Z</time>
      </trkpt>
      <trkpt lat="43.03472" lon="-0.79415">
        <ele>1019.76</ele>
        <time>2023-12-21T20:47:23.010Z</time>
      </trkpt>
      <trkpt lat="43.0347" lon="-0.79423">
        <ele>1023.14</ele>
        <time>2023-12-21T20:47:24.803Z</time>
      </trkpt>
      <trkpt lat="43.0347" lon="-0.79449">
        <ele>1026.46</ele>
        <time>2023-12-21T20:47:26.599Z</time>
      </trkpt>
      <trkpt lat="43.03465" lon="-0.79482">
        <ele>1029.91</ele>
        <time>2023-12-21T20:47:28.400Z</time>
      </trkpt>
      <trkpt lat="43.03436" lon="-0.79549">
        <ele>1033.58</ele>
        <time>2023-12-21T20:47:30.212Z</time>
      </trkpt>
      <trkpt lat="43.03421" lon="-0.79622">
        <ele>1036.79</ele>
        <time>2023-12-21T20:47:32.034Z</time>
      </trkpt>
      <trkpt lat="43.03392" lon="-0.79689">
        <ele>1040.52</ele>
        <time>2023-12-21T20:47:33.867Z</time>
      </trkpt>
      <trkpt lat="43.03355" lon="-0.79747">
        <ele>1044.44</ele>
        <time>2023-12-21T20:47:35.710Z</time>
      </trkpt>
      <trkpt lat="43.03345" lon="-0.79773">
        <ele>1047.76</ele>
        <time>2023-12-21T20:47:37.557Z</time>
      </trkpt>
      <trkpt lat="43.03339" lon="-0.79806">
        <ele>1050.8</ele>
        <time>2023-12-21T20:47:39.409Z</time>
      </trkpt>
      <trkpt lat="43.03333" lon="-0.7983">
        <ele>1054</ele>
        <time>2023-12-21T20:47:41.264Z</time>
      </trkpt>
      <trkpt lat="43.03323" lon="-0.79828">
        <ele>1057.51</ele>
        <time>2023-12-21T20:47:43.121Z</time>
      </trkpt>
      <trkpt lat="43.0332" lon="-0.79813">
        <ele>1060.77</ele>
        <time>2023-12-21T20:47:44.980Z</time>
      </trkpt>
      <trkpt lat="43.03324" lon="-0.79781">
        <ele>1063.81</ele>
        <time>2023-12-21T20:47:46.844Z</time>
      </trkpt>
      <trkpt lat="43.03335" lon="-0.7974">
        <ele>1066.8</ele>
        <time>2023-12-21T20:47:48.714Z</time>
      </trkpt>
      <trkpt lat="43.0336" lon="-0.79666">
        <ele>1069.59</ele>
        <time>2023-12-21T20:47:50.595Z</time>
      </trkpt>
      <trkpt lat="43.03376" lon="-0.7956">
        <ele>1072.81</ele>
        <time>2023-12-21T20:47:52.490Z</time>
      </trkpt>
      <trkpt lat="43.03375" lon="-0.79466">
        <ele>1075.96</ele>
        <time>2023-12-21T20:47:54.398Z</time>
      </trkpt>
      <trkpt lat="43.03368" lon="-0.7941">
        <ele>1078.79</ele>
        <time>2023-12-21T20:47:56.314Z</time>
      </trkpt>
      <trkpt lat="43.03342" lon="-0.79346">
        <ele>1081.6</ele>
        <time>2023-12-21T20:47:58.240Z</time>
      </trkpt>
      <trkpt lat="43.03326" lon="-0.79325">
        <ele>1084.28</ele>
        <time>2023-12-21T20:48:00.170Z</time>
      </trkpt>
      <trkpt lat="43.03308" lon="-0.79316">
        <ele>1087.01</ele>
        <time>2023-12-21T20:48:02.104Z</time>
      </trkpt>
      <trkpt lat="43.0326" lon="-0.79302">
        <ele>1089.72</ele>
        <time>2023-12-21T20:48:04.047Z</time>
      </trkpt>
      <trkpt lat="43.03213" lon="-0.79291">
        <ele>1092.38</ele>
        <time>2023-12-21T20:48:05.999Z</time>
      </trkpt>
      <trkpt lat="43.03179" lon="-0.79289">
        <ele>1094.83</ele>
        <time>2023-12-21T20:48:07.957Z</time>
      </trkpt>
      <trkpt lat="43.03164" lon="-0.79283">
        <ele>1097.19</ele>
        <time>2023-12-21T20:48:09.918Z</time>
      </trkpt>
      <trkpt lat="43.03146" lon="-0.79271">
        <ele>1099.42</ele>
        <time>2023-12-21T20:48:11.883Z</time>
      </trkpt>
      <trkpt lat="43.03138" lon="-0.79268">
        <ele>1101.62</ele>
        <time>2023-12-21T20:48:13.849Z</time>
      </trkpt>
      <trkpt lat="43.03134" lon="-0.79273">
        <ele>1103.85</ele>
        <time>2023-12-21T20:48:15.816Z</time>
      </trkpt>
      <trkpt lat="43.03138" lon="-0.79285">
        <ele>1106.07</ele>
        <time>2023-12-21T20:48:17.785Z</time>
      </trkpt>
      <trkpt lat="43.03198" lon="-0.7932">
        <ele>1108.02</ele>
        <time>2023-12-21T20:48:19.766Z</time>
      </trkpt>
      <trkpt lat="43.03216" lon="-0.79339">
        <ele>1110.11</ele>
        <time>2023-12-21T20:48:21.751Z</time>
      </trkpt>
      <trkpt lat="43.03236" lon="-0.79382">
        <ele>1112.21</ele>
        <time>2023-12-21T20:48:23.743Z</time>
      </trkpt>
      <trkpt lat="43.0325" lon="-0.79424">
        <ele>1114.57</ele>
        <time>2023-12-21T20:48:25.742Z</time>
      </trkpt>
      <trkpt lat="43.03264" lon="-0.79438">
        <ele>1116.6</ele>
        <time>2023-12-21T20:48:27.744Z</time>
      </trkpt>
      <trkpt lat="43.03275" lon="-0.79455">
        <ele>1118.62</ele>
        <time>2023-12-21T20:48:29.749Z</time>
      </trkpt>
      <trkpt lat="43.03274" lon="-0.79476">
        <ele>1120.74</ele>
        <time>2023-12-21T20:48:31.757Z</time>
      </trkpt>
      <trkpt lat="43.03268" lon="-0.79515">
        <ele>1122.98</ele>
        <time>2023-12-21T20:48:33.770Z</time>
      </trkpt>
      <trkpt lat="43.03257" lon="-0.79543">
        <ele>1125.18</ele>
        <time>2023-12-21T20:48:35.788Z</time>
      </trkpt>
      <trkpt lat="43.03183" lon="-0.79675">
        <ele>1127.68</ele>
        <time>2023-12-21T20:48:37.828Z</time>
      </trkpt>
      <trkpt lat="43.03172" lon="-0.7969">
        <ele>1129.72</ele>
        <time>2023-12-21T20:48:39.871Z</time>
      </trkpt>
      <trkpt lat="43.03164" lon="-0.79696">
        <ele>1131.75</ele>
        <time>2023-12-21T20:48:41.916Z</time>
      </trkpt>
      <trkpt lat="43.0315" lon="-0.797">
        <ele>1133.85</ele>
        <time>2023-12-21T20:48:43.964Z</time>
      </trkpt>
      <trkpt lat="43.03131" lon="-0.79697">
        <ele>1135.97</ele>
        <time>2023-12-21T20:48:46.015Z</time>
      </trkpt>
      <trkpt lat="43.03103" lon="-0.79695">
        <ele>1138.07</ele>
        <time>2023-12-21T20:48:48.071Z</time>
      </trkpt>
      <trkpt lat="43.031" lon="-0.79692">
        <ele>1140.13</ele>
        <time>2023-12-21T20:48:50.128Z</time>
      </trkpt>
      <trkpt lat="43.03099" lon="-0.79683">
        <ele>1142.28</ele>
        <time>2023-12-21T20:48:52.186Z</time>
      </trkpt>
      <trkpt lat="43.03104" lon="-0.79677">
        <ele>1144.39</ele>
        <time>2023-12-21T20:48:54.246Z</time>
      </trkpt>
      <trkpt lat="43.03121" lon="-0.79679">
        <ele>1146.39</ele>
        <time>2023-12-21T20:48:56.309Z</time>
      </trkpt>
      <trkpt lat="43.0314" lon="-0.79676">
        <ele>1148.44</ele>
        <time>2023-12-21T20:48:58.375Z</time>
      </trkpt>
      <trkpt lat="43.03156" lon="-0.79662">
        <ele>1150.64</ele>
        <time>2023-12-21T20:49:00.445Z</time>
      </trkpt>
      <trkpt lat="43.03165" lon="-0.79643">
        <ele>1152.95</ele>
        <time>2023-12-21T20:49:02.518Z</time>
      </trkpt>
      <trkpt lat="43.03172" lon="-0.79618">
        <ele>1155.48</ele>
        <time>2023-12-21T20:49:04.595Z</time>
      </trkpt>
      <trkpt lat="43.03187" lon="-0.79548">
        <ele>1158.21</ele>
        <time>2023-12-21T20:49:06.681Z</time>
      </trkpt>
      <trkpt lat="43.03189" lon="-0.79526">
        <ele>1160.66</ele>
        <time>2023-12-21T20:49:08.770Z</time>
      </trkpt>
      <trkpt lat="43.03188" lon="-0.79512">
        <ele>1163.17</ele>
        <time>2023-12-21T20:49:10.861Z</time>
      </trkpt>
      <trkpt lat="43.03185" lon="-0.795">
        <ele>1165.68</ele>
        <time>2023-12-21T20:49:12.954Z</time>
      </trkpt>
      <trkpt lat="43.03169" lon="-0.79486">
        <ele>1168.42</ele>
        <time>2023-12-21T20:49:15.051Z</time>
      </trkpt>
      <trkpt lat="43.03093" lon="-0.79456">
        <ele>1171.91</ele>
        <time>2023-12-21T20:49:17.162Z</time>
      </trkpt>
      <trkpt lat="43.03046" lon="-0.79426">
        <ele>1174.55</ele>
        <time>2023-12-21T20:49:19.283Z</time>
      </trkpt>
      <trkpt lat="43.03022" lon="-0.79428">
        <ele>1177.47</ele>
        <time>2023-12-21T20:49:21.409Z</time>
      </trkpt>
      <trkpt lat="43.03" lon="-0.79435">
        <ele>1180.36</ele>
        <time>2023-12-21T20:49:23.539Z</time>
      </trkpt>
      <trkpt lat="43.02971" lon="-0.79447">
        <ele>1183.32</ele>
        <time>2023-12-21T20:49:25.674Z</time>
      </trkpt>
      <trkpt lat="43.02911" lon="-0.79466">
        <ele>1186.54</ele>
        <time>2023-12-21T20:49:27.821Z</time>
      </trkpt>
      <trkpt lat="43.02877" lon="-0.79487">
        <ele>1189.77</ele>
        <time>2023-12-21T20:49:29.975Z</time>
      </trkpt>
      <trkpt lat="43.02818" lon="-0.79535">
        <ele>1193</ele>
        <time>2023-12-21T20:49:32.142Z</time>
      </trkpt>
      <trkpt lat="43.02804" lon="-0.79543">
        <ele>1195.83</ele>
        <time>2023-12-21T20:49:34.311Z</time>
      </trkpt>
      <trkpt lat="43.02775" lon="-0.79544">
        <ele>1198.62</ele>
        <time>2023-12-21T20:49:36.486Z</time>
      </trkpt>
      <trkpt lat="43.02733" lon="-0.79557">
        <ele>1201.61</ele>
        <time>2023-12-21T20:49:38.669Z</time>
      </trkpt>
      <trkpt lat="43.0269" lon="-0.79568">
        <ele>1204.65</ele>
        <time>2023-12-21T20:49:40.860Z</time>
      </trkpt>
      <trkpt lat="43.02661" lon="-0.79565">
        <ele>1207.55</ele>
        <time>2023-12-21T20:49:43.056Z</time>
      </trkpt>
      <trkpt lat="43.02658" lon="-0.79568">
        <ele>1210.34</ele>
        <time>2023-12-21T20:49:45.253Z</time>
      </trkpt>
      <trkpt lat="43.02657" lon="-0.79573">
        <ele>1213.13</ele>
        <time>2023-12-21T20:49:47.451Z</time>
      </trkpt>
      <trkpt lat="43.02658" lon="-0.79577">
        <ele>1215.87</ele>
        <time>2023-12-21T20:49:49.649Z</time>
      </trkpt>
      <trkpt lat="43.02661" lon="-0.79582">
        <ele>1218.6</ele>
        <time>2023-12-21T20:49:51.848Z</time>
      </trkpt>
      <trkpt lat="43.02665" lon="-0.79584">
        <ele>1221.29</ele>
        <time>2023-12-21T20:49:54.048Z</time>
      </trkpt>
      <trkpt lat="43.02717" lon="-0.79584">
        <ele>1223.71</ele>
        <time>2023-12-21T20:49:56.258Z</time>
      </trkpt>
      <trkpt lat="43.02737" lon="-0.79587">
        <ele>1226.37</ele>
        <time>2023-12-21T20:49:58.471Z</time>
      </trkpt>
      <trkpt lat="43.02746" lon="-0.79594">
        <ele>1229.14</ele>
        <time>2023-12-21T20:50:00.686Z</time>
      </trkpt>
      <trkpt lat="43.0275" lon="-0.79604">
        <ele>1231.97</ele>
        <time>2023-12-21T20:50:02.903Z</time>
      </trkpt>
      <trkpt lat="43.02753" lon="-0.79616">
        <ele>1234.77</ele>
        <time>2023-12-21T20:50:05.122Z</time>
      </trkpt>
      <trkpt lat="43.02749" lon="-0.79635">
        <ele>1237.67</ele>
        <time>2023-12-21T20:50:07.343Z</time>
      </trkpt>
      <trkpt lat="43.02699" lon="-0.7974">
        <ele>1241.09</ele>
        <time>2023-12-21T20:50:09.581Z</time>
      </trkpt>
      <trkpt lat="43.02692" lon="-0.79763">
        <ele>1244.1</ele>
        <time>2023-12-21T20:50:11.823Z</time>
      </trkpt>
      <trkpt lat="43.02685" lon="-0.79795">
        <ele>1247.17</ele>
        <time>2023-12-21T20:50:14.069Z</time>
      </trkpt>
      <trkpt lat="43.02668" lon="-0.79831">
        <ele>1250.41</ele>
        <time>2023-12-21T20:50:16.321Z</time>
      </trkpt>
      <trkpt lat="43.02655" lon="-0.79875">
        <ele>1253.25</ele>
        <time>2023-12-21T20:50:18.580Z</time>
      </trkpt>
      <trkpt lat="43.02647" lon="-0.79891">
        <ele>1256.07</ele>
        <time>2023-12-21T20:50:20.841Z</time>
      </trkpt>
      <trkpt lat="43.026" lon="-0.79938">
        <ele>1259.32</ele>
        <time>2023-12-21T20:50:23.113Z</time>
      </trkpt>
      <trkpt lat="43.02591" lon="-0.7995">
        <ele>1262.14</ele>
        <time>2023-12-21T20:50:25.387Z</time>
      </trkpt>
      <trkpt lat="43.02584" lon="-0.79969">
        <ele>1264.83</ele>
        <time>2023-12-21T20:50:27.664Z</time>
      </trkpt>
      <trkpt lat="43.02581" lon="-0.79997">
        <ele>1267.25</ele>
        <time>2023-12-21T20:50:29.945Z</time>
      </trkpt>
      <trkpt lat="43.02584" lon="-0.80007">
        <ele>1269.66</ele>
        <time>2023-12-21T20:50:32.228Z</time>
      </trkpt>
      <trkpt lat="43.02588" lon="-0.80015">
        <ele>1271.95</ele>
        <time>2023-12-21T20:50:34.512Z</time>
      </trkpt>
      <trkpt lat="43.02604" lon="-0.80027">
        <ele>1274.11</ele>
        <time>2023-12-21T20:50:36.799Z</time>
      </trkpt>
      <trkpt lat="43.02612" lon="-0.80039">
        <ele>1276.34</ele>
        <time>2023-12-21T20:50:39.089Z</time>
      </trkpt>
      <trkpt lat="43.02617" lon="-0.80054">
        <ele>1278.61</ele>
        <time>2023-12-21T20:50:41.381Z</time>
      </trkpt>
      <trkpt lat="43.0262" lon="-0.80067">
        <ele>1280.84</ele>
        <time>2023-12-21T20:50:43.675Z</time>
      </trkpt>
      <trkpt lat="43.02621" lon="-0.80088">
        <ele>1283</ele>
        <time>2023-12-21T20:50:45.972Z</time>
      </trkpt>
      <trkpt lat="43.02619" lon="-0.80104">
        <ele>1285.1</ele>
        <time>2023-12-21T20:50:48.271Z</time>
      </trkpt>
      <trkpt lat="43.02613" lon="-0.80126">
        <ele>1287.21</ele>
        <time>2023-12-21T20:50:50.573Z</time>
      </trkpt>
      <trkpt lat="43.02592" lon="-0.80165">
        <ele>1289.37</ele>
        <time>2023-12-21T20:50:52.882Z</time>
      </trkpt>
      <trkpt lat="43.02573" lon="-0.80192">
        <ele>1291.45</ele>
        <time>2023-12-21T20:50:55.196Z</time>
      </trkpt>
      <trkpt lat="43.02534" lon="-0.80222">
        <ele>1293.51</ele>
        <time>2023-12-21T20:50:57.518Z</time>
      </trkpt>
      <trkpt lat="43.02521" lon="-0.8024">
        <ele>1295.26</ele>
        <time>2023-12-21T20:50:59.844Z</time>
      </trkpt>
      <trkpt lat="43.02515" lon="-0.80251">
        <ele>1296.88</ele>
        <time>2023-12-21T20:51:02.171Z</time>
      </trkpt>
      <trkpt lat="43.02496" lon="-0.80301">
        <ele>1298.36</ele>
        <time>2023-12-21T20:51:04.506Z</time>
      </trkpt>
      <trkpt lat="43.02483" lon="-0.80331">
        <ele>1300.01</ele>
        <time>2023-12-21T20:51:06.846Z</time>
      </trkpt>
      <trkpt lat="43.02468" lon="-0.80359">
        <ele>1301.64</ele>
        <time>2023-12-21T20:51:09.191Z</time>
      </trkpt>
      <trkpt lat="43.02463" lon="-0.80365">
        <ele>1303.12</ele>
        <time>2023-12-21T20:51:11.537Z</time>
      </trkpt>
      <trkpt lat="43.02459" lon="-0.80365">
        <ele>1304.62</ele>
        <time>2023-12-21T20:51:13.884Z</time>
      </trkpt>
      <trkpt lat="43.02455" lon="-0.80362">
        <ele>1306.12</ele>
        <time>2023-12-21T20:51:16.231Z</time>
      </trkpt>
      <trkpt lat="43.02453" lon="-0.80358">
        <ele>1307.54</ele>
        <time>2023-12-21T20:51:18.579Z</time>
      </trkpt>
      <trkpt lat="43.02453" lon="-0.8035">
        <ele>1308.92</ele>
        <time>2023-12-21T20:51:20.928Z</time>
      </trkpt>
      <trkpt lat="43.02456" lon="-0.80338">
        <ele>1310.23</ele>
        <time>2023-12-21T20:51:23.279Z</time>
      </trkpt>
      <trkpt lat="43.02475" lon="-0.80305">
        <ele>1311.04</ele>
        <time>2023-12-21T20:51:25.636Z</time>
      </trkpt>
      <trkpt lat="43.0248" lon="-0.80289">
        <ele>1312.13</ele>
        <time>2023-12-21T20:51:27.995Z</time>
      </trkpt>
      <trkpt lat="43.02491" lon="-0.80246">
        <ele>1313.64</ele>
        <time>2023-12-21T20:51:30.360Z</time>
      </trkpt>
      <trkpt lat="43.02501" lon="-0.80181">
        <ele>1315.08</ele>
        <time>2023-12-21T20:51:32.734Z</time>
      </trkpt>
      <trkpt lat="43.02501" lon="-0.8016">
        <ele>1316.31</ele>
        <time>2023-12-21T20:51:35.111Z</time>
      </trkpt>
      <trkpt lat="43.02497" lon="-0.80133">
        <ele>1317.55</ele>
        <time>2023-12-21T20:51:37.492Z</time>
      </trkpt>
      <trkpt lat="43.02486" lon="-0.80095">
        <ele>1318.83</ele>
        <time>2023-12-21T20:51:39.878Z</time>
      </trkpt>
      <trkpt lat="43.02479" lon="-0.80017">
        <ele>1320.54</ele>
        <time>2023-12-21T20:51:42.275Z</time>
      </trkpt>
      <trkpt lat="43.0248" lon="-0.80003">
        <ele>1321.85</ele>
        <time>2023-12-21T20:51:44.674Z</time>
      </trkpt>
      <trkpt lat="43.0249" lon="-0.79974">
        <ele>1322.94</ele>
        <time>2023-12-21T20:51:47.078Z</time>
      </trkpt>
      <trkpt lat="43.02492" lon="-0.79964">
        <ele>1324.26</ele>
        <time>2023-12-21T20:51:49.483Z</time>
      </trkpt>
      <trkpt lat="43.02496" lon="-0.79905">
        <ele>1325.87</ele>
        <time>2023-12-21T20:51:51.896Z</time>
      </trkpt>
      <trkpt lat="43.02491" lon="-0.79857">
        <ele>1327.52</ele>
        <time>2023-12-21T20:51:54.316Z</time>
      </trkpt>
      <trkpt lat="43.02496" lon="-0.79814">
        <ele>1328.79</ele>
        <time>2023-12-21T20:51:56.742Z</time>
      </trkpt>
      <trkpt lat="43.02493" lon="-0.79801">
        <ele>1330.19</ele>
        <time>2023-12-21T20:51:59.169Z</time>
      </trkpt>
      <trkpt lat="43.02488" lon="-0.79788">
        <ele>1331.66</ele>
        <time>2023-12-21T20:52:01.598Z</time>
      </trkpt>
      <trkpt lat="43.02478" lon="-0.79777">
        <ele>1333.16</ele>
        <time>2023-12-21T20:52:04.030Z</time>
      </trkpt>
      <trkpt lat="43.02467" lon="-0.79773">
        <ele>1334.75</ele>
        <time>2023-12-21T20:52:06.464Z</time>
      </trkpt>
      <trkpt lat="43.02459" lon="-0.79776">
        <ele>1336.44</ele>
        <time>2023-12-21T20:52:08.899Z</time>
      </trkpt>
      <trkpt lat="43.02454" lon="-0.79782">
        <ele>1338.17</ele>
        <time>2023-12-21T20:52:11.336Z</time>
      </trkpt>
      <trkpt lat="43.02446" lon="-0.79798">
        <ele>1340.07</ele>
        <time>2023-12-21T20:52:13.775Z</time>
      </trkpt>
      <trkpt lat="43.02436" lon="-0.79833">
        <ele>1342.07</ele>
        <time>2023-12-21T20:52:16.219Z</time>
      </trkpt>
      <trkpt lat="43.02427" lon="-0.79852">
        <ele>1343.9</ele>
        <time>2023-12-21T20:52:18.667Z</time>
      </trkpt>
      <trkpt lat="43.02411" lon="-0.79872">
        <ele>1345.7</ele>
        <time>2023-12-21T20:52:21.119Z</time>
      </trkpt>
      <trkpt lat="43.02395" lon="-0.79884">
        <ele>1347.6</ele>
        <time>2023-12-21T20:52:23.574Z</time>
      </trkpt>
      <trkpt lat="43.0235" lon="-0.79905">
        <ele>1349.66</ele>
        <time>2023-12-21T20:52:26.038Z</time>
      </trkpt>
      <trkpt lat="43.0233" lon="-0.79911">
        <ele>1351.63</ele>
        <time>2023-12-21T20:52:28.506Z</time>
      </trkpt>
      <trkpt lat="43.02308" lon="-0.79905">
        <ele>1353.44</ele>
        <time>2023-12-21T20:52:30.978Z</time>
      </trkpt>
      <trkpt lat="43.0227" lon="-0.79905">
        <ele>1355.51</ele>
        <time>2023-12-21T20:52:33.457Z</time>
      </trkpt>
      <trkpt lat="43.02225" lon="-0.79891">
        <ele>1357.34</ele>
        <time>2023-12-21T20:52:35.945Z</time>
      </trkpt>
      <trkpt lat="43.02205" lon="-0.79892">
        <ele>1359.3</ele>
        <time>2023-12-21T20:52:38.436Z</time>
      </trkpt>
      <trkpt lat="43.02196" lon="-0.79884">
        <ele>1360.97</ele>
        <time>2023-12-21T20:52:40.929Z</time>
      </trkpt>
      <trkpt lat="43.02183" lon="-0.79851">
        <ele>1362.35</ele>
        <time>2023-12-21T20:52:43.427Z</time>
      </trkpt>
      <trkpt lat="43.02176" lon="-0.7984">
        <ele>1364.02</ele>
        <time>2023-12-21T20:52:45.927Z</time>
      </trkpt>
      <trkpt lat="43.02157" lon="-0.79823">
        <ele>1365.89</ele>
        <time>2023-12-21T20:52:48.432Z</time>
      </trkpt>
      <trkpt lat="43.02151" lon="-0.7981">
        <ele>1367.61</ele>
        <time>2023-12-21T20:52:50.939Z</time>
      </trkpt>
      <trkpt lat="43.02148" lon="-0.79794">
        <ele>1369.27</ele>
        <time>2023-12-21T20:52:53.448Z</time>
      </trkpt>
      <trkpt lat="43.02131" lon="-0.79742">
        <ele>1371.07</ele>
        <time>2023-12-21T20:52:55.965Z</time>
      </trkpt>
      <trkpt lat="43.02114" lon="-0.79717">
        <ele>1372.93</ele>
        <time>2023-12-21T20:52:58.486Z</time>
      </trkpt>
      <trkpt lat="43.0208" lon="-0.79679">
        <ele>1374.87</ele>
        <time>2023-12-21T20:53:01.016Z</time>
      </trkpt>
      <trkpt lat="43.02073" lon="-0.79675">
        <ele>1376.63</ele>
        <time>2023-12-21T20:53:03.547Z</time>
      </trkpt>
      <trkpt lat="43.02063" lon="-0.79673">
        <ele>1378.42</ele>
        <time>2023-12-21T20:53:06.080Z</time>
      </trkpt>
      <trkpt lat="43.02049" lon="-0.79674">
        <ele>1380.29</ele>
        <time>2023-12-21T20:53:08.615Z</time>
      </trkpt>
      <trkpt lat="43.02036" lon="-0.79671">
        <ele>1382.08</ele>
        <time>2023-12-21T20:53:11.153Z</time>
      </trkpt>
      <trkpt lat="43.02032" lon="-0.79664">
        <ele>1383.69</ele>
        <time>2023-12-21T20:53:13.692Z</time>
      </trkpt>
      <trkpt lat="43.02024" lon="-0.79645">
        <ele>1385.15</ele>
        <time>2023-12-21T20:53:16.234Z</time>
      </trkpt>
      <trkpt lat="43.02019" lon="-0.79638">
        <ele>1386.78</ele>
        <time>2023-12-21T20:53:18.777Z</time>
      </trkpt>
      <trkpt lat="43.02008" lon="-0.79633">
        <ele>1388.52</ele>
        <time>2023-12-21T20:53:21.323Z</time>
      </trkpt>
      <trkpt lat="43.01964" lon="-0.7964">
        <ele>1390.69</ele>
        <time>2023-12-21T20:53:23.877Z</time>
      </trkpt>
      <trkpt lat="43.01954" lon="-0.79637">
        <ele>1392.45</ele>
        <time>2023-12-21T20:53:26.433Z</time>
      </trkpt>
      <trkpt lat="43.01945" lon="-0.79629">
        <ele>1394.17</ele>
        <time>2023-12-21T20:53:28.991Z</time>
      </trkpt>
      <trkpt lat="43.01914" lon="-0.79589">
        <ele>1395.73</ele>
        <time>2023-12-21T20:53:31.557Z</time>
      </trkpt>
      <trkpt lat="43.01908" lon="-0.79584">
        <ele>1397.45</ele>
        <time>2023-12-21T20:53:34.124Z</time>
      </trkpt>
      <trkpt lat="43.01836" lon="-0.79564">
        <ele>1399.63</ele>
        <time>2023-12-21T20:53:36.705Z</time>
      </trkpt>
      <trkpt lat="43.01826" lon="-0.79566">
        <ele>1401.47</ele>
        <time>2023-12-21T20:53:39.287Z</time>
      </trkpt>
      <trkpt lat="43.01813" lon="-0.79573">
        <ele>1403.35</ele>
        <time>2023-12-21T20:53:41.872Z</time>
      </trkpt>
      <trkpt lat="43.01806" lon="-0.79581">
        <ele>1405.19</ele>
        <time>2023-12-21T20:53:44.459Z</time>
      </trkpt>
      <trkpt lat="43.01801" lon="-0.79592">
        <ele>1407.04</ele>
        <time>2023-12-21T20:53:47.048Z</time>
      </trkpt>
      <trkpt lat="43.01797" lon="-0.79615">
        <ele>1408.82</ele>
        <time>2023-12-21T20:53:49.640Z</time>
      </trkpt>
      <trkpt lat="43.01794" lon="-0.79622">
        <ele>1410.52</ele>
        <time>2023-12-21T20:53:52.233Z</time>
      </trkpt>
      <trkpt lat="43.01787" lon="-0.79627">
        <ele>1412.23</ele>
        <time>2023-12-21T20:53:54.827Z</time>
      </trkpt>
      <trkpt lat="43.01781" lon="-0.79626">
        <ele>1413.9</ele>
        <time>2023-12-21T20:53:57.422Z</time>
      </trkpt>
      <trkpt lat="43.01762" lon="-0.796">
        <ele>1415.6</ele>
        <time>2023-12-21T20:54:00.022Z</time>
      </trkpt>
      <trkpt lat="43.01756" lon="-0.79589">
        <ele>1417.26</ele>
        <time>2023-12-21T20:54:02.624Z</time>
      </trkpt>
      <trkpt lat="43.01752" lon="-0.79557">
        <ele>1418.74</ele>
        <time>2023-12-21T20:54:05.231Z</time>
      </trkpt>
      <trkpt lat="43.01749" lon="-0.79552">
        <ele>1420.27</ele>
        <time>2023-12-21T20:54:07.839Z</time>
      </trkpt>
      <trkpt lat="43.01724" lon="-0.79526">
        <ele>1421.86</ele>
        <time>2023-12-21T20:54:10.453Z</time>
      </trkpt>
      <trkpt lat="43.01706" lon="-0.79487">
        <ele>1423.24</ele>
        <time>2023-12-21T20:54:13.073Z</time>
      </trkpt>
      <trkpt lat="43.01666" lon="-0.79413">
        <ele>1424.93</ele>
        <time>2023-12-21T20:54:15.705Z</time>
      </trkpt>
      <trkpt lat="43.01658" lon="-0.7939">
        <ele>1426.37</ele>
        <time>2023-12-21T20:54:18.341Z</time>
      </trkpt>
      <trkpt lat="43.01627" lon="-0.79357">
        <ele>1428.49</ele>
        <time>2023-12-21T20:54:20.984Z</time>
      </trkpt>
      <trkpt lat="43.01596" lon="-0.7933">
        <ele>1430.22</ele>
        <time>2023-12-21T20:54:23.634Z</time>
      </trkpt>
      <trkpt lat="43.01589" lon="-0.79322">
        <ele>1431.68</ele>
        <time>2023-12-21T20:54:26.286Z</time>
      </trkpt>
      <trkpt lat="43.01582" lon="-0.79308">
        <ele>1433.19</ele>
        <time>2023-12-21T20:54:28.940Z</time>
      </trkpt>
      <trkpt lat="43.01571" lon="-0.79278">
        <ele>1434.6</ele>
        <time>2023-12-21T20:54:31.599Z</time>
      </trkpt>
      <trkpt lat="43.01569" lon="-0.79257">
        <ele>1435.98</ele>
        <time>2023-12-21T20:54:34.260Z</time>
      </trkpt>
      <trkpt lat="43.01572" lon="-0.79241">
        <ele>1437.22</ele>
        <time>2023-12-21T20:54:36.924Z</time>
      </trkpt>
      <trkpt lat="43.01571" lon="-0.79223">
        <ele>1438.5</ele>
        <time>2023-12-21T20:54:39.590Z</time>
      </trkpt>
      <trkpt lat="43.01557" lon="-0.79164">
        <ele>1439.77</ele>
        <time>2023-12-21T20:54:42.265Z</time>
      </trkpt>
      <trkpt lat="43.01553" lon="-0.79136">
        <ele>1441.04</ele>
        <time>2023-12-21T20:54:44.944Z</time>
      </trkpt>
      <trkpt lat="43.01553" lon="-0.79101">
        <ele>1442.23</ele>
        <time>2023-12-21T20:54:47.627Z</time>
      </trkpt>
      <trkpt lat="43.01556" lon="-0.7897">
        <ele>1443.7</ele>
        <time>2023-12-21T20:54:50.328Z</time>
      </trkpt>
      <trkpt lat="43.0156" lon="-0.78949">
        <ele>1444.61</ele>
        <time>2023-12-21T20:54:53.032Z</time>
      </trkpt>
      <trkpt lat="43.01579" lon="-0.78894">
        <ele>1445.39</ele>
        <time>2023-12-21T20:54:55.744Z</time>
      </trkpt>
      <trkpt lat="43.01579" lon="-0.78877">
        <ele>1446.01</ele>
        <time>2023-12-21T20:54:58.459Z</time>
      </trkpt>
      <trkpt lat="43.01577" lon="-0.78858">
        <ele>1446.54</ele>
        <time>2023-12-21T20:55:01.176Z</time>
      </trkpt>
      <trkpt lat="43.01569" lon="-0.78838">
        <ele>1447.05</ele>
        <time>2023-12-21T20:55:03.897Z</time>
      </trkpt>
      <trkpt lat="43.01547" lon="-0.78793">
        <ele>1447.76</ele>
        <time>2023-12-21T20:55:06.625Z</time>
      </trkpt>
      <trkpt lat="43.01541" lon="-0.78763">
        <ele>1447.86</ele>
        <time>2023-12-21T20:55:09.357Z</time>
      </trkpt>
      <trkpt lat="43.0154" lon="-0.78713">
        <ele>1447.75</ele>
        <time>2023-12-21T20:55:12.096Z</time>
      </trkpt>
      <trkpt lat="43.01543" lon="-0.78689">
        <ele>1447.37</ele>
        <time>2023-12-21T20:55:14.838Z</time>
      </trkpt>
      <trkpt lat="43.01547" lon="-0.78669">
        <ele>1446.86</ele>
        <time>2023-12-21T20:55:17.583Z</time>
      </trkpt>
      <trkpt lat="43.01589" lon="-0.78567">
        <ele>1445.71</ele>
        <time>2023-12-21T20:55:20.344Z</time>
      </trkpt>
      <trkpt lat="43.01604" lon="-0.78518">
        <ele>1444.92</ele>
        <time>2023-12-21T20:55:23.112Z</time>
      </trkpt>
      <trkpt lat="43.0161" lon="-0.7847">
        <ele>1444.08</ele>
        <time>2023-12-21T20:55:25.887Z</time>
      </trkpt>
      <trkpt lat="43.01614" lon="-0.78429">
        <ele>1443.19</ele>
        <time>2023-12-21T20:55:28.668Z</time>
      </trkpt>
      <trkpt lat="43.01625" lon="-0.78372">
        <ele>1442.05</ele>
        <time>2023-12-21T20:55:31.457Z</time>
      </trkpt>
      <trkpt lat="43.01624" lon="-0.78347">
        <ele>1440.6</ele>
        <time>2023-12-21T20:55:34.249Z</time>
      </trkpt>
      <trkpt lat="43.01611" lon="-0.78242">
        <ele>1438.9</ele>
        <time>2023-12-21T20:55:37.056Z</time>
      </trkpt>
      <trkpt lat="43.01608" lon="-0.78124">
        <ele>1437.25</ele>
        <time>2023-12-21T20:55:39.879Z</time>
      </trkpt>
      <trkpt lat="43.0161" lon="-0.78105">
        <ele>1435.52</ele>
        <time>2023-12-21T20:55:42.704Z</time>
      </trkpt>
      <trkpt lat="43.01635" lon="-0.78005">
        <ele>1433.47</ele>
        <time>2023-12-21T20:55:45.544Z</time>
      </trkpt>
      <trkpt lat="43.0164" lon="-0.77977">
        <ele>1431.58</ele>
        <time>2023-12-21T20:55:48.388Z</time>
      </trkpt>
      <trkpt lat="43.01641" lon="-0.77941">
        <ele>1429.54</ele>
        <time>2023-12-21T20:55:51.237Z</time>
      </trkpt>
      <trkpt lat="43.01632" lon="-0.77795">
        <ele>1427.53</ele>
        <time>2023-12-21T20:55:54.106Z</time>
      </trkpt>
      <trkpt lat="43.01636" lon="-0.7776">
        <ele>1425.2</ele>
        <time>2023-12-21T20:55:56.979Z</time>
      </trkpt>
      <trkpt lat="43.01648" lon="-0.77685">
        <ele>1422.84</ele>
        <time>2023-12-21T20:55:59.863Z</time>
      </trkpt>
      <trkpt lat="43.01648" lon="-0.77641">
        <ele>1420.45</ele>
        <time>2023-12-21T20:56:02.753Z</time>
      </trkpt>
      <trkpt lat="43.01643" lon="-0.77611">
        <ele>1418.08</ele>
        <time>2023-12-21T20:56:05.647Z</time>
      </trkpt>
      <trkpt lat="43.01632" lon="-0.77575">
        <ele>1415.71</ele>
        <time>2023-12-21T20:56:08.547Z</time>
      </trkpt>
      <trkpt lat="43.01615" lon="-0.77542">
        <ele>1413.2</ele>
        <time>2023-12-21T20:56:11.452Z</time>
      </trkpt>
      <trkpt lat="43.01555" lon="-0.77453">
        <ele>1410.46</ele>
        <time>2023-12-21T20:56:14.374Z</time>
      </trkpt>
      <trkpt lat="43.01543" lon="-0.7743">
        <ele>1407.8</ele>
        <time>2023-12-21T20:56:17.299Z</time>
      </trkpt>
      <trkpt lat="43.01532" lon="-0.77403">
        <ele>1405.03</ele>
        <time>2023-12-21T20:56:20.229Z</time>
      </trkpt>
      <trkpt lat="43.01485" lon="-0.77244">
        <ele>1401.72</ele>
        <time>2023-12-21T20:56:23.182Z</time>
      </trkpt>
      <trkpt lat="43.01462" lon="-0.7715">
        <ele>1398.87</ele>
        <time>2023-12-21T20:56:26.148Z</time>
      </trkpt>
      <trkpt lat="43.01447" lon="-0.77095">
        <ele>1396.4</ele>
        <time>2023-12-21T20:56:29.123Z</time>
      </trkpt>
      <trkpt lat="43.01438" lon="-0.77076">
        <ele>1394.09</ele>
        <time>2023-12-21T20:56:32.101Z</time>
      </trkpt>
      <trkpt lat="43.01425" lon="-0.77061">
        <ele>1391.8</ele>
        <time>2023-12-21T20:56:35.082Z</time>
      </trkpt>
      <trkpt lat="43.01403" lon="-0.77045">
        <ele>1389.39</ele>
        <time>2023-12-21T20:56:38.067Z</time>
      </trkpt>
      <trkpt lat="43.01392" lon="-0.77024">
        <ele>1386.77</ele>
        <time>2023-12-21T20:56:41.056Z</time>
      </trkpt>
      <trkpt lat="43.01387" lon="-0.76999">
        <ele>1384.22</ele>
        <time>2023-12-21T20:56:44.048Z</time>
      </trkpt>
      <trkpt lat="43.01388" lon="-0.76964">
        <ele>1381.88</ele>
        <time>2023-12-21T20:56:47.045Z</time>
      </trkpt>
      <trkpt lat="43.01395" lon="-0.76913">
        <ele>1379.5</ele>
        <time>2023-12-21T20:56:50.049Z</time>
      </trkpt>
      <trkpt lat="43.01394" lon="-0.76887">
        <ele>1377.07</ele>
        <time>2023-12-21T20:56:53.057Z</time>
      </trkpt>
      <trkpt lat="43.01386" lon="-0.76868">
        <ele>1374.64</ele>
        <time>2023-12-21T20:56:56.068Z</time>
      </trkpt>
      <trkpt lat="43.01367" lon="-0.76848">
        <ele>1372</ele>
        <time>2023-12-21T20:56:59.083Z</time>
      </trkpt>
      <trkpt lat="43.01355" lon="-0.76827">
        <ele>1369.46</ele>
        <time>2023-12-21T20:57:02.102Z</time>
      </trkpt>
      <trkpt lat="43.01338" lon="-0.76777">
        <ele>1367.06</ele>
        <time>2023-12-21T20:57:05.128Z</time>
      </trkpt>
      <trkpt lat="43.01321" lon="-0.76752">
        <ele>1364.73</ele>
        <time>2023-12-21T20:57:08.159Z</time>
      </trkpt>
      <trkpt lat="43.01297" lon="-0.76724">
        <ele>1362.31</ele>
        <time>2023-12-21T20:57:11.196Z</time>
      </trkpt>
      <trkpt lat="43.01268" lon="-0.76664">
        <ele>1360.16</ele>
        <time>2023-12-21T20:57:14.243Z</time>
      </trkpt>
      <trkpt lat="43.01245" lon="-0.76624">
        <ele>1357.88</ele>
        <time>2023-12-21T20:57:17.297Z</time>
      </trkpt>
      <trkpt lat="43.01229" lon="-0.76589">
        <ele>1355.87</ele>
        <time>2023-12-21T20:57:20.356Z</time>
      </trkpt>
      <trkpt lat="43.01204" lon="-0.76522">
        <ele>1353.63</ele>
        <time>2023-12-21T20:57:23.426Z</time>
      </trkpt>
      <trkpt lat="43.01198" lon="-0.76497">
        <ele>1351.73</ele>
        <time>2023-12-21T20:57:26.499Z</time>
      </trkpt>
      <trkpt lat="43.01196" lon="-0.76461">
        <ele>1350.1</ele>
        <time>2023-12-21T20:57:29.577Z</time>
      </trkpt>
      <trkpt lat="43.01189" lon="-0.76399">
        <ele>1348.62</ele>
        <time>2023-12-21T20:57:32.664Z</time>
      </trkpt>
      <trkpt lat="43.01168" lon="-0.76302">
        <ele>1346.54</ele>
        <time>2023-12-21T20:57:35.765Z</time>
      </trkpt>
      <trkpt lat="43.01157" lon="-0.76242">
        <ele>1344.77</ele>
        <time>2023-12-21T20:57:38.874Z</time>
      </trkpt>
      <trkpt lat="43.01153" lon="-0.76234">
        <ele>1343.45</ele>
        <time>2023-12-21T20:57:41.984Z</time>
      </trkpt>
      <trkpt lat="43.01142" lon="-0.76227">
        <ele>1342.18</ele>
        <time>2023-12-21T20:57:45.097Z</time>
      </trkpt>
      <trkpt lat="43.01126" lon="-0.7623">
        <ele>1341.07</ele>
        <time>2023-12-21T20:57:48.213Z</time>
      </trkpt>
      <trkpt lat="43.01116" lon="-0.76237">
        <ele>1340.02</ele>
        <time>2023-12-21T20:57:51.331Z</time>
      </trkpt>
      <trkpt lat="43.01079" lon="-0.7627">
        <ele>1339.02</ele>
        <time>2023-12-21T20:57:54.457Z</time>
      </trkpt>
      <trkpt lat="43.01013" lon="-0.76302">
        <ele>1338.13</ele>
        <time>2023-12-21T20:57:57.596Z</time>
      </trkpt>
      <trkpt lat="43.00986" lon="-0.76302">
        <ele>1337.32</ele>
        <time>2023-12-21T20:58:00.740Z</time>
      </trkpt>
      <trkpt lat="43.00978" lon="-0.763">
        <ele>1336.61</ele>
        <time>2023-12-21T20:58:03.885Z</time>
      </trkpt>
      <trkpt lat="43.00971" lon="-0.76295">
        <ele>1336</ele>
        <time>2023-12-21T20:58:07.032Z</time>
      </trkpt>
      <trkpt lat="43.00956" lon="-0.7627">
        <ele>1335.62</ele>
        <time>2023-12-21T20:58:10.183Z</time>
      </trkpt>
      <trkpt lat="43.00941" lon="-0.76234">
        <ele>1335.19</ele>
        <time>2023-12-21T20:58:13.340Z</time>
      </trkpt>
      <trkpt lat="43.0093" lon="-0.76193">
        <ele>1334.51</ele>
        <time>2023-12-21T20:58:16.503Z</time>
      </trkpt>
      <trkpt lat="43.00923" lon="-0.76175">
        <ele>1333.81</ele>
        <time>2023-12-21T20:58:19.669Z</time>
      </trkpt>
      <trkpt lat="43.00905" lon="-0.76142">
        <ele>1333.12</ele>
        <time>2023-12-21T20:58:22.840Z</time>
      </trkpt>
      <trkpt lat="43.00871" lon="-0.7609">
        <ele>1332.38</ele>
        <time>2023-12-21T20:58:26.021Z</time>
      </trkpt>
      <trkpt lat="43.00841" lon="-0.76056">
        <ele>1331.76</ele>
        <time>2023-12-21T20:58:29.209Z</time>
      </trkpt>
      <trkpt lat="43.00841" lon="-0.76056">
        <ele>1331.76</ele>
        <time>2023-12-21T20:58:32.397Z</time>
      </trkpt>
      <trkpt lat="43.00841" lon="-0.76056">
        <ele>1331.76</ele>
        <time>2023-12-21T20:58:35.585Z</time>
      </trkpt>
      <trkpt lat="43.00823" lon="-0.76042">
        <ele>1331.19</ele>
        <time>2023-12-21T20:58:38.777Z</time>
      </trkpt>
      <trkpt lat="43.00789" lon="-0.76019">
        <ele>1330.56</ele>
        <time>2023-12-21T20:58:41.976Z</time>
      </trkpt>
      <trkpt lat="43.00777" lon="-0.76012">
        <ele>1329.99</ele>
        <time>2023-12-21T20:58:45.177Z</time>
      </trkpt>
      <trkpt lat="43.0076" lon="-0.76006">
        <ele>1329.45</ele>
        <time>2023-12-21T20:58:48.382Z</time>
      </trkpt>
      <trkpt lat="43.00713" lon="-0.76">
        <ele>1328.89</ele>
        <time>2023-12-21T20:58:51.596Z</time>
      </trkpt>
      <trkpt lat="43.00668" lon="-0.76001">
        <ele>1328.25</ele>
        <time>2023-12-21T20:58:54.818Z</time>
      </trkpt>
      <trkpt lat="43.00656" lon="-0.76005">
        <ele>1327.59</ele>
        <time>2023-12-21T20:58:58.042Z</time>
      </trkpt>
      <trkpt lat="43.0065" lon="-0.76008">
        <ele>1326.9</ele>
        <time>2023-12-21T20:59:01.267Z</time>
      </trkpt>
      <trkpt lat="43.00643" lon="-0.76016">
        <ele>1326.19</ele>
        <time>2023-12-21T20:59:04.494Z</time>
      </trkpt>
      <trkpt lat="43.0063" lon="-0.76041">
        <ele>1325.39</ele>
        <time>2023-12-21T20:59:07.725Z</time>
      </trkpt>
      <trkpt lat="43.00619" lon="-0.76077">
        <ele>1324.54</ele>
        <time>2023-12-21T20:59:10.962Z</time>
      </trkpt>
      <trkpt lat="43.00617" lon="-0.761">
        <ele>1323.49</ele>
        <time>2023-12-21T20:59:14.202Z</time>
      </trkpt>
      <trkpt lat="43.00617" lon="-0.76111">
        <ele>1322.46</ele>
        <time>2023-12-21T20:59:17.443Z</time>
      </trkpt>
      <trkpt lat="43.00622" lon="-0.76137">
        <ele>1321.07</ele>
        <time>2023-12-21T20:59:20.688Z</time>
      </trkpt>
      <trkpt lat="43.00622" lon="-0.76159">
        <ele>1319.95</ele>
        <time>2023-12-21T20:59:23.936Z</time>
      </trkpt>
      <trkpt lat="43.00618" lon="-0.76183">
        <ele>1318.96</ele>
        <time>2023-12-21T20:59:27.187Z</time>
      </trkpt>
      <trkpt lat="43.00587" lon="-0.76226">
        <ele>1318.59</ele>
        <time>2023-12-21T20:59:30.446Z</time>
      </trkpt>
      <trkpt lat="43.00556" lon="-0.7628">
        <ele>1317.44</ele>
        <time>2023-12-21T20:59:33.715Z</time>
      </trkpt>
      <trkpt lat="43.00532" lon="-0.76332">
        <ele>1316.19</ele>
        <time>2023-12-21T20:59:36.992Z</time>
      </trkpt>
      <trkpt lat="43.00525" lon="-0.7634">
        <ele>1315.29</ele>
        <time>2023-12-21T20:59:40.271Z</time>
      </trkpt>
      <trkpt lat="43.00512" lon="-0.76347">
        <ele>1314.43</ele>
        <time>2023-12-21T20:59:43.553Z</time>
      </trkpt>
      <trkpt lat="43.00503" lon="-0.76349">
        <ele>1313.61</ele>
        <time>2023-12-21T20:59:46.836Z</time>
      </trkpt>
      <trkpt lat="43.00466" lon="-0.76341">
        <ele>1313.02</ele>
        <time>2023-12-21T20:59:50.126Z</time>
      </trkpt>
      <trkpt lat="43.00442" lon="-0.76333">
        <ele>1312.33</ele>
        <time>2023-12-21T20:59:53.421Z</time>
      </trkpt>
      <trkpt lat="43.0043" lon="-0.76331">
        <ele>1311.63</ele>
        <time>2023-12-21T20:59:56.718Z</time>
      </trkpt>
      <trkpt lat="43.00421" lon="-0.76335">
        <ele>1310.82</ele>
        <time>2023-12-21T21:00:00.017Z</time>
      </trkpt>
      <trkpt lat="43.00399" lon="-0.76343">
        <ele>1310.01</ele>
        <time>2023-12-21T21:00:03.320Z</time>
      </trkpt>
      <trkpt lat="43.00367" lon="-0.76362">
        <ele>1309.2</ele>
        <time>2023-12-21T21:00:06.630Z</time>
      </trkpt>
      <trkpt lat="43.00332" lon="-0.76387">
        <ele>1308.38</ele>
        <time>2023-12-21T21:00:09.947Z</time>
      </trkpt>
      <trkpt lat="43.00307" lon="-0.76418">
        <ele>1307.45</ele>
        <time>2023-12-21T21:00:13.270Z</time>
      </trkpt>
      <trkpt lat="43.003" lon="-0.76422">
        <ele>1306.77</ele>
        <time>2023-12-21T21:00:16.595Z</time>
      </trkpt>
      <trkpt lat="43.00294" lon="-0.76422">
        <ele>1306.16</ele>
        <time>2023-12-21T21:00:19.921Z</time>
      </trkpt>
      <trkpt lat="43.00288" lon="-0.76419">
        <ele>1305.57</ele>
        <time>2023-12-21T21:00:23.248Z</time>
      </trkpt>
      <trkpt lat="43.00281" lon="-0.76409">
        <ele>1305.01</ele>
        <time>2023-12-21T21:00:26.577Z</time>
      </trkpt>
      <trkpt lat="43.00275" lon="-0.7639">
        <ele>1304.55</ele>
        <time>2023-12-21T21:00:29.909Z</time>
      </trkpt>
      <trkpt lat="43.00275" lon="-0.76375">
        <ele>1304.14</ele>
        <time>2023-12-21T21:00:33.243Z</time>
      </trkpt>
      <trkpt lat="43.00277" lon="-0.76365">
        <ele>1303.77</ele>
        <time>2023-12-21T21:00:36.578Z</time>
      </trkpt>
      <trkpt lat="43.00286" lon="-0.76337">
        <ele>1303.64</ele>
        <time>2023-12-21T21:00:39.917Z</time>
      </trkpt>
      <trkpt lat="43.00286" lon="-0.76317">
        <ele>1303.27</ele>
        <time>2023-12-21T21:00:43.259Z</time>
      </trkpt>
      <trkpt lat="43.00276" lon="-0.76246">
        <ele>1302.73</ele>
        <time>2023-12-21T21:00:46.611Z</time>
      </trkpt>
      <trkpt lat="43.00275" lon="-0.76217">
        <ele>1302.17</ele>
        <time>2023-12-21T21:00:49.967Z</time>
      </trkpt>
      <trkpt lat="43.0028" lon="-0.76185">
        <ele>1301.68</ele>
        <time>2023-12-21T21:00:53.327Z</time>
      </trkpt>
      <trkpt lat="43.00284" lon="-0.76173">
        <ele>1301.19</ele>
        <time>2023-12-21T21:00:56.689Z</time>
      </trkpt>
      <trkpt lat="43.00308" lon="-0.76121">
        <ele>1300.85</ele>
        <time>2023-12-21T21:01:00.059Z</time>
      </trkpt>
      <trkpt lat="43.00311" lon="-0.7611">
        <ele>1300.35</ele>
        <time>2023-12-21T21:01:03.431Z</time>
      </trkpt>
      <trkpt lat="43.00311" lon="-0.76101">
        <ele>1299.75</ele>
        <time>2023-12-21T21:01:06.804Z</time>
      </trkpt>
      <trkpt lat="43.00309" lon="-0.76094">
        <ele>1299.04</ele>
        <time>2023-12-21T21:01:10.178Z</time>
      </trkpt>
      <trkpt lat="43.00296" lon="-0.76068">
        <ele>1298.02</ele>
        <time>2023-12-21T21:01:13.557Z</time>
      </trkpt>
      <trkpt lat="43.00292" lon="-0.76051">
        <ele>1297.26</ele>
        <time>2023-12-21T21:01:16.938Z</time>
      </trkpt>
      <trkpt lat="43.0029" lon="-0.76036">
        <ele>1296.5</ele>
        <time>2023-12-21T21:01:20.321Z</time>
      </trkpt>
      <trkpt lat="43.0029" lon="-0.75998">
        <ele>1295.83</ele>
        <time>2023-12-21T21:01:23.709Z</time>
      </trkpt>
      <trkpt lat="43.00288" lon="-0.75988">
        <ele>1294.95</ele>
        <time>2023-12-21T21:01:27.099Z</time>
      </trkpt>
      <trkpt lat="43.00285" lon="-0.75983">
        <ele>1293.96</ele>
        <time>2023-12-21T21:01:30.490Z</time>
      </trkpt>
      <trkpt lat="43.00278" lon="-0.75979">
        <ele>1292.81</ele>
        <time>2023-12-21T21:01:33.882Z</time>
      </trkpt>
      <trkpt lat="43.0022" lon="-0.7598">
        <ele>1290.71</ele>
        <time>2023-12-21T21:01:37.285Z</time>
      </trkpt>
      <trkpt lat="43.00209" lon="-0.75979">
        <ele>1289.46</ele>
        <time>2023-12-21T21:01:40.690Z</time>
      </trkpt>
      <trkpt lat="43.00201" lon="-0.75976">
        <ele>1288.25</ele>
        <time>2023-12-21T21:01:44.096Z</time>
      </trkpt>
      <trkpt lat="43.00193" lon="-0.75971">
        <ele>1287.02</ele>
        <time>2023-12-21T21:01:47.504Z</time>
      </trkpt>
      <trkpt lat="43.00187" lon="-0.75962">
        <ele>1285.81</ele>
        <time>2023-12-21T21:01:50.914Z</time>
      </trkpt>
      <trkpt lat="43.0018" lon="-0.75949">
        <ele>1284.54</ele>
        <time>2023-12-21T21:01:54.326Z</time>
      </trkpt>
      <trkpt lat="43.00172" lon="-0.75915">
        <ele>1283.23</ele>
        <time>2023-12-21T21:01:57.743Z</time>
      </trkpt>
      <trkpt lat="43.00167" lon="-0.75874">
        <ele>1281.81</ele>
        <time>2023-12-21T21:02:01.165Z</time>
      </trkpt>
      <trkpt lat="43.00168" lon="-0.75847">
        <ele>1280.55</ele>
        <time>2023-12-21T21:02:04.591Z</time>
      </trkpt>
      <trkpt lat="43.00166" lon="-0.7584">
        <ele>1278.94</ele>
        <time>2023-12-21T21:02:08.018Z</time>
      </trkpt>
      <trkpt lat="43.00145" lon="-0.75808">
        <ele>1276.91</ele>
        <time>2023-12-21T21:02:11.451Z</time>
      </trkpt>
      <trkpt lat="43.00118" lon="-0.75746">
        <ele>1275.06</ele>
        <time>2023-12-21T21:02:14.894Z</time>
      </trkpt>
      <trkpt lat="43.00103" lon="-0.75734">
        <ele>1272.98</ele>
        <time>2023-12-21T21:02:18.340Z</time>
      </trkpt>
      <trkpt lat="43.0009" lon="-0.7572">
        <ele>1270.89</ele>
        <time>2023-12-21T21:02:21.789Z</time>
      </trkpt>
      <trkpt lat="43.00067" lon="-0.75689">
        <ele>1268.89</ele>
        <time>2023-12-21T21:02:25.244Z</time>
      </trkpt>
      <trkpt lat="43.00055" lon="-0.75675">
        <ele>1266.77</ele>
        <time>2023-12-21T21:02:28.702Z</time>
      </trkpt>
      <trkpt lat="43.00048" lon="-0.75664">
        <ele>1264.63</ele>
        <time>2023-12-21T21:02:32.162Z</time>
      </trkpt>
      <trkpt lat="43.00024" lon="-0.7561">
        <ele>1262.29</ele>
        <time>2023-12-21T21:02:35.631Z</time>
      </trkpt>
      <trkpt lat="43.00017" lon="-0.75599">
        <ele>1259.94</ele>
        <time>2023-12-21T21:02:39.102Z</time>
      </trkpt>
      <trkpt lat="42.99998" lon="-0.75578">
        <ele>1256.39</ele>
        <time>2023-12-21T21:02:42.577Z</time>
      </trkpt>
      <trkpt lat="42.99994" lon="-0.75571">
        <ele>1254.09</ele>
        <time>2023-12-21T21:02:46.054Z</time>
      </trkpt>
      <trkpt lat="42.99966" lon="-0.75508">
        <ele>1251.69</ele>
        <time>2023-12-21T21:02:49.541Z</time>
      </trkpt>
      <trkpt lat="42.9993" lon="-0.75432">
        <ele>1249.36</ele>
        <time>2023-12-21T21:02:53.040Z</time>
      </trkpt>
      <trkpt lat="42.99922" lon="-0.75417">
        <ele>1247.1</ele>
        <time>2023-12-21T21:02:56.541Z</time>
      </trkpt>
      <trkpt lat="42.99901" lon="-0.75393">
        <ele>1244.44</ele>
        <time>2023-12-21T21:03:00.048Z</time>
      </trkpt>
      <trkpt lat="42.99865" lon="-0.75337">
        <ele>1242.13</ele>
        <time>2023-12-21T21:03:03.565Z</time>
      </trkpt>
      <trkpt lat="42.99854" lon="-0.75316">
        <ele>1239.85</ele>
        <time>2023-12-21T21:03:07.085Z</time>
      </trkpt>
      <trkpt lat="42.99842" lon="-0.75287">
        <ele>1237.72</ele>
        <time>2023-12-21T21:03:10.610Z</time>
      </trkpt>
      <trkpt lat="42.99838" lon="-0.7528">
        <ele>1235.43</ele>
        <time>2023-12-21T21:03:14.136Z</time>
      </trkpt>
      <trkpt lat="42.99834" lon="-0.75279">
        <ele>1233.02</ele>
        <time>2023-12-21T21:03:17.663Z</time>
      </trkpt>
      <trkpt lat="42.99828" lon="-0.75281">
        <ele>1230.54</ele>
        <time>2023-12-21T21:03:21.191Z</time>
      </trkpt>
      <trkpt lat="42.99836" lon="-0.75308">
        <ele>1227.47</ele>
        <time>2023-12-21T21:03:24.723Z</time>
      </trkpt>
      <trkpt lat="42.99845" lon="-0.75355">
        <ele>1224.33</ele>
        <time>2023-12-21T21:03:28.262Z</time>
      </trkpt>
      <trkpt lat="42.99848" lon="-0.75368">
        <ele>1221.33</ele>
        <time>2023-12-21T21:03:31.802Z</time>
      </trkpt>
      <trkpt lat="42.99876" lon="-0.75443">
        <ele>1217.58</ele>
        <time>2023-12-21T21:03:35.354Z</time>
      </trkpt>
      <trkpt lat="42.99889" lon="-0.75484">
        <ele>1214.03</ele>
        <time>2023-12-21T21:03:38.912Z</time>
      </trkpt>
      <trkpt lat="42.99904" lon="-0.75538">
        <ele>1210.06</ele>
        <time>2023-12-21T21:03:42.478Z</time>
      </trkpt>
      <trkpt lat="42.99919" lon="-0.75569">
        <ele>1206.38</ele>
        <time>2023-12-21T21:03:46.049Z</time>
      </trkpt>
      <trkpt lat="42.99925" lon="-0.75587">
        <ele>1202.66</ele>
        <time>2023-12-21T21:03:49.623Z</time>
      </trkpt>
      <trkpt lat="42.99939" lon="-0.75621">
        <ele>1198.87</ele>
        <time>2023-12-21T21:03:53.202Z</time>
      </trkpt>
      <trkpt lat="42.99945" lon="-0.75637">
        <ele>1194.95</ele>
        <time>2023-12-21T21:03:56.783Z</time>
      </trkpt>
      <trkpt lat="42.99957" lon="-0.75682">
        <ele>1190.67</ele>
        <time>2023-12-21T21:04:00.371Z</time>
      </trkpt>
      <trkpt lat="42.99972" lon="-0.75752">
        <ele>1185.92</ele>
        <time>2023-12-21T21:04:03.969Z</time>
      </trkpt>
      <trkpt lat="42.99979" lon="-0.75797">
        <ele>1181</ele>
        <time>2023-12-21T21:04:07.573Z</time>
      </trkpt>
      <trkpt lat="43.00002" lon="-0.75845">
        <ele>1176.29</ele>
        <time>2023-12-21T21:04:11.185Z</time>
      </trkpt>
      <trkpt lat="43.00008" lon="-0.75864">
        <ele>1171.24</ele>
        <time>2023-12-21T21:04:14.800Z</time>
      </trkpt>
      <trkpt lat="43.00017" lon="-0.75914">
        <ele>1166.69</ele>
        <time>2023-12-21T21:04:18.422Z</time>
      </trkpt>
      <trkpt lat="43.00018" lon="-0.75978">
        <ele>1160.91</ele>
        <time>2023-12-21T21:04:22.053Z</time>
      </trkpt>
      <trkpt lat="43.0002" lon="-0.76016">
        <ele>1155.27</ele>
        <time>2023-12-21T21:04:25.689Z</time>
      </trkpt>
      <trkpt lat="43.00035" lon="-0.761">
        <ele>1149.57</ele>
        <time>2023-12-21T21:04:29.337Z</time>
      </trkpt>
      <trkpt lat="43.00036" lon="-0.76118">
        <ele>1143.49</ele>
        <time>2023-12-21T21:04:32.987Z</time>
      </trkpt>
      <trkpt lat="43.0002" lon="-0.76255">
        <ele>1136.04</ele>
        <time>2023-12-21T21:04:36.656Z</time>
      </trkpt>
      <trkpt lat="43.00015" lon="-0.76283">
        <ele>1129.63</ele>
        <time>2023-12-21T21:04:40.329Z</time>
      </trkpt>
      <trkpt lat="42.99996" lon="-0.76359">
        <ele>1122.11</ele>
        <time>2023-12-21T21:04:44.013Z</time>
      </trkpt>
      <trkpt lat="42.99964" lon="-0.76453">
        <ele>1115.03</ele>
        <time>2023-12-21T21:04:47.711Z</time>
      </trkpt>
      <trkpt lat="42.9995" lon="-0.76492">
        <ele>1108.37</ele>
        <time>2023-12-21T21:04:51.415Z</time>
      </trkpt>
      <trkpt lat="42.99933" lon="-0.76533">
        <ele>1101.59</ele>
        <time>2023-12-21T21:04:55.125Z</time>
      </trkpt>
      <trkpt lat="42.99908" lon="-0.76603">
        <ele>1094.55</ele>
        <time>2023-12-21T21:04:58.846Z</time>
      </trkpt>
      <trkpt lat="42.99887" lon="-0.76646">
        <ele>1087.83</ele>
        <time>2023-12-21T21:05:02.574Z</time>
      </trkpt>
      <trkpt lat="42.99872" lon="-0.76696">
        <ele>1081.37</ele>
        <time>2023-12-21T21:05:06.309Z</time>
      </trkpt>
      <trkpt lat="42.99863" lon="-0.7676">
        <ele>1074.94</ele>
        <time>2023-12-21T21:05:10.053Z</time>
      </trkpt>
      <trkpt lat="42.99858" lon="-0.76887">
        <ele>1068.34</ele>
        <time>2023-12-21T21:05:13.815Z</time>
      </trkpt>
      <trkpt lat="42.9984" lon="-0.77007">
        <ele>1061.81</ele>
        <time>2023-12-21T21:05:17.593Z</time>
      </trkpt>
      <trkpt lat="42.99836" lon="-0.77031">
        <ele>1055.97</ele>
        <time>2023-12-21T21:05:21.375Z</time>
      </trkpt>
      <trkpt lat="42.99819" lon="-0.77208">
        <ele>1049.86</ele>
        <time>2023-12-21T21:05:25.181Z</time>
      </trkpt>
      <trkpt lat="42.99819" lon="-0.77259">
        <ele>1044.43</ele>
        <time>2023-12-21T21:05:28.994Z</time>
      </trkpt>
      <trkpt lat="42.99817" lon="-0.77319">
        <ele>1038.93</ele>
        <time>2023-12-21T21:05:32.815Z</time>
      </trkpt>
      <trkpt lat="42.99819" lon="-0.77346">
        <ele>1033.97</ele>
        <time>2023-12-21T21:05:36.640Z</time>
      </trkpt>
      <trkpt lat="42.99826" lon="-0.77403">
        <ele>1029.14</ele>
        <time>2023-12-21T21:05:40.473Z</time>
      </trkpt>
      <trkpt lat="42.9984" lon="-0.77455">
        <ele>1024.28</ele>
        <time>2023-12-21T21:05:44.314Z</time>
      </trkpt>
      <trkpt lat="42.99862" lon="-0.77505">
        <ele>1019.82</ele>
        <time>2023-12-21T21:05:48.162Z</time>
      </trkpt>
      <trkpt lat="42.99874" lon="-0.77528">
        <ele>1015.54</ele>
        <time>2023-12-21T21:05:52.014Z</time>
      </trkpt>
      <trkpt lat="42.99891" lon="-0.77554">
        <ele>1011.59</ele>
        <time>2023-12-21T21:05:55.871Z</time>
      </trkpt>
      <trkpt lat="42.99912" lon="-0.77579">
        <ele>1007.99</ele>
        <time>2023-12-21T21:05:59.733Z</time>
      </trkpt>
      <trkpt lat="42.99921" lon="-0.77588">
        <ele>1004.56</ele>
        <time>2023-12-21T21:06:03.597Z</time>
      </trkpt>
      <trkpt lat="42.99935" lon="-0.77595">
        <ele>1001.38</ele>
        <time>2023-12-21T21:06:07.464Z</time>
      </trkpt>
      <trkpt lat="42.9999" lon="-0.77597">
        <ele>998.5</ele>
        <time>2023-12-21T21:06:11.341Z</time>
      </trkpt>
      <trkpt lat="43.00031" lon="-0.77613">
        <ele>994.89</ele>
        <time>2023-12-21T21:06:15.226Z</time>
      </trkpt>
      <trkpt lat="43.00041" lon="-0.77613">
        <ele>992.06</ele>
        <time>2023-12-21T21:06:19.113Z</time>
      </trkpt>
      <trkpt lat="43.00048" lon="-0.77609">
        <ele>989.53</ele>
        <time>2023-12-21T21:06:23.002Z</time>
      </trkpt>
      <trkpt lat="43.00068" lon="-0.77578">
        <ele>987.61</ele>
        <time>2023-12-21T21:06:26.896Z</time>
      </trkpt>
      <trkpt lat="43.00079" lon="-0.77574">
        <ele>985.37</ele>
        <time>2023-12-21T21:06:30.792Z</time>
      </trkpt>
      <trkpt lat="43.00091" lon="-0.7758">
        <ele>983.04</ele>
        <time>2023-12-21T21:06:34.691Z</time>
      </trkpt>
      <trkpt lat="43.0012" lon="-0.77627">
        <ele>980.09</ele>
        <time>2023-12-21T21:06:38.598Z</time>
      </trkpt>
      <trkpt lat="43.0013" lon="-0.77639">
        <ele>977.85</ele>
        <time>2023-12-21T21:06:42.508Z</time>
      </trkpt>
      <trkpt lat="43.0014" lon="-0.77648">
        <ele>975.76</ele>
        <time>2023-12-21T21:06:46.420Z</time>
      </trkpt>
      <trkpt lat="43.00177" lon="-0.77676">
        <ele>973.6</ele>
        <time>2023-12-21T21:06:50.340Z</time>
      </trkpt>
      <trkpt lat="43.00197" lon="-0.77696">
        <ele>971.42</ele>
        <time>2023-12-21T21:06:54.264Z</time>
      </trkpt>
      <trkpt lat="43.0021" lon="-0.77708">
        <ele>969.38</ele>
        <time>2023-12-21T21:06:58.191Z</time>
      </trkpt>
      <trkpt lat="43.00222" lon="-0.77714">
        <ele>967.47</ele>
        <time>2023-12-21T21:07:02.121Z</time>
      </trkpt>
      <trkpt lat="43.00236" lon="-0.77719">
        <ele>965.64</ele>
        <time>2023-12-21T21:07:06.053Z</time>
      </trkpt>
      <trkpt lat="43.00258" lon="-0.77718">
        <ele>964.03</ele>
        <time>2023-12-21T21:07:09.989Z</time>
      </trkpt>
      <trkpt lat="43.00274" lon="-0.77714">
        <ele>962.5</ele>
        <time>2023-12-21T21:07:13.928Z</time>
      </trkpt>
      <trkpt lat="43.00302" lon="-0.77696">
        <ele>961.03</ele>
        <time>2023-12-21T21:07:17.873Z</time>
      </trkpt>
      <trkpt lat="43.00309" lon="-0.77695">
        <ele>959.66</ele>
        <time>2023-12-21T21:07:21.819Z</time>
      </trkpt>
      <trkpt lat="43.00316" lon="-0.77696">
        <ele>958.38</ele>
        <time>2023-12-21T21:07:25.767Z</time>
      </trkpt>
      <trkpt lat="43.00332" lon="-0.77718">
        <ele>957.16</ele>
        <time>2023-12-21T21:07:29.719Z</time>
      </trkpt>
      <trkpt lat="43.00336" lon="-0.77731">
        <ele>956.13</ele>
        <time>2023-12-21T21:07:33.673Z</time>
      </trkpt>
      <trkpt lat="43.00336" lon="-0.77738">
        <ele>955.18</ele>
        <time>2023-12-21T21:07:37.628Z</time>
      </trkpt>
      <trkpt lat="43.00334" lon="-0.77751">
        <ele>954.28</ele>
        <time>2023-12-21T21:07:41.585Z</time>
      </trkpt>
      <trkpt lat="43.00328" lon="-0.77763">
        <ele>953.48</ele>
        <time>2023-12-21T21:07:45.544Z</time>
      </trkpt>
      <trkpt lat="43.0032" lon="-0.77775">
        <ele>952.8</ele>
        <time>2023-12-21T21:07:49.505Z</time>
      </trkpt>
      <trkpt lat="43.00312" lon="-0.77782">
        <ele>952.21</ele>
        <time>2023-12-21T21:07:53.468Z</time>
      </trkpt>
      <trkpt lat="43.003" lon="-0.77785">
        <ele>951.7</ele>
        <time>2023-12-21T21:07:57.433Z</time>
      </trkpt>
      <trkpt lat="43.00261" lon="-0.77785">
        <ele>951.1</ele>
        <time>2023-12-21T21:08:01.405Z</time>
      </trkpt>
      <trkpt lat="43.00214" lon="-0.77771">
        <ele>950.96</ele>
        <time>2023-12-21T21:08:05.386Z</time>
      </trkpt>
      <trkpt lat="43.00111" lon="-0.77768">
        <ele>950.54</ele>
        <time>2023-12-21T21:08:09.386Z</time>
      </trkpt>
      <trkpt lat="43.00077" lon="-0.77763">
        <ele>950.51</ele>
        <time>2023-12-21T21:08:13.393Z</time>
      </trkpt>
      <trkpt lat="43.00065" lon="-0.77764">
        <ele>950.51</ele>
        <time>2023-12-21T21:08:17.402Z</time>
      </trkpt>
      <trkpt lat="42.99992" lon="-0.77799">
        <ele>950.46</ele>
        <time>2023-12-21T21:08:21.425Z</time>
      </trkpt>
      <trkpt lat="42.99965" lon="-0.77819">
        <ele>950.42</ele>
        <time>2023-12-21T21:08:25.454Z</time>
      </trkpt>
      <trkpt lat="42.9995" lon="-0.77824">
        <ele>950.57</ele>
        <time>2023-12-21T21:08:29.486Z</time>
      </trkpt>
      <trkpt lat="42.99926" lon="-0.77821">
        <ele>950.82</ele>
        <time>2023-12-21T21:08:33.522Z</time>
      </trkpt>
      <trkpt lat="42.99917" lon="-0.77817">
        <ele>951.14</ele>
        <time>2023-12-21T21:08:37.560Z</time>
      </trkpt>
      <trkpt lat="42.99906" lon="-0.77806">
        <ele>951.52</ele>
        <time>2023-12-21T21:08:41.601Z</time>
      </trkpt>
      <trkpt lat="42.99862" lon="-0.77744">
        <ele>952.6</ele>
        <time>2023-12-21T21:08:45.653Z</time>
      </trkpt>
      <trkpt lat="42.99856" lon="-0.7774">
        <ele>952.98</ele>
        <time>2023-12-21T21:08:49.707Z</time>
      </trkpt>
      <trkpt lat="42.99851" lon="-0.77739">
        <ele>953.33</ele>
        <time>2023-12-21T21:08:53.762Z</time>
      </trkpt>
      <trkpt lat="42.99846" lon="-0.77742">
        <ele>953.69</ele>
        <time>2023-12-21T21:08:57.818Z</time>
      </trkpt>
      <trkpt lat="42.9984" lon="-0.77749">
        <ele>954.11</ele>
        <time>2023-12-21T21:09:01.875Z</time>
      </trkpt>
      <trkpt lat="42.99838" lon="-0.77755">
        <ele>954.39</ele>
        <time>2023-12-21T21:09:05.933Z</time>
      </trkpt>
      <trkpt lat="42.99839" lon="-0.77763">
        <ele>954.56</ele>
        <time>2023-12-21T21:09:09.992Z</time>
      </trkpt>
      <trkpt lat="42.99848" lon="-0.77791">
        <ele>954.54</ele>
        <time>2023-12-21T21:09:14.055Z</time>
      </trkpt>
      <trkpt lat="42.99852" lon="-0.77811">
        <ele>954.56</ele>
        <time>2023-12-21T21:09:18.121Z</time>
      </trkpt>
      <trkpt lat="42.9986" lon="-0.77904">
        <ele>954.07</ele>
        <time>2023-12-21T21:09:22.200Z</time>
      </trkpt>
      <trkpt lat="42.9986" lon="-0.77916">
        <ele>953.87</ele>
        <time>2023-12-21T21:09:26.281Z</time>
      </trkpt>
      <trkpt lat="42.99858" lon="-0.7793">
        <ele>953.64</ele>
        <time>2023-12-21T21:09:30.363Z</time>
      </trkpt>
      <trkpt lat="42.99854" lon="-0.77938">
        <ele>953.4</ele>
        <time>2023-12-21T21:09:34.447Z</time>
      </trkpt>
      <trkpt lat="42.9985" lon="-0.77943">
        <ele>953.11</ele>
        <time>2023-12-21T21:09:38.532Z</time>
      </trkpt>
      <trkpt lat="42.99828" lon="-0.77948">
        <ele>953.03</ele>
        <time>2023-12-21T21:09:42.621Z</time>
      </trkpt>
      <trkpt lat="42.99821" lon="-0.77953">
        <ele>952.67</ele>
        <time>2023-12-21T21:09:46.711Z</time>
      </trkpt>
      <trkpt lat="42.99815" lon="-0.77964">
        <ele>952.2</ele>
        <time>2023-12-21T21:09:50.803Z</time>
      </trkpt>
      <trkpt lat="42.99797" lon="-0.78025">
        <ele>951.53</ele>
        <time>2023-12-21T21:09:54.904Z</time>
      </trkpt>
      <trkpt lat="42.99783" lon="-0.7806">
        <ele>950.71</ele>
        <time>2023-12-21T21:09:59.011Z</time>
      </trkpt>
      <trkpt lat="42.99724" lon="-0.7813">
        <ele>950.15</ele>
        <time>2023-12-21T21:10:03.132Z</time>
      </trkpt>
      <trkpt lat="42.99652" lon="-0.78222">
        <ele>948.34</ele>
        <time>2023-12-21T21:10:07.272Z</time>
      </trkpt>
      <trkpt lat="42.99636" lon="-0.78234">
        <ele>947.32</ele>
        <time>2023-12-21T21:10:11.415Z</time>
      </trkpt>
      <trkpt lat="42.99628" lon="-0.78238">
        <ele>946.45</ele>
        <time>2023-12-21T21:10:15.560Z</time>
      </trkpt>
      <trkpt lat="42.99621" lon="-0.78238">
        <ele>945.6</ele>
        <time>2023-12-21T21:10:19.706Z</time>
      </trkpt>
      <trkpt lat="42.99615" lon="-0.78236">
        <ele>944.73</ele>
        <time>2023-12-21T21:10:23.853Z</time>
      </trkpt>
      <trkpt lat="42.99595" lon="-0.78213">
        <ele>944.15</ele>
        <time>2023-12-21T21:10:28.005Z</time>
      </trkpt>
      <trkpt lat="42.99582" lon="-0.78206">
        <ele>943.42</ele>
        <time>2023-12-21T21:10:32.160Z</time>
      </trkpt>
      <trkpt lat="42.99574" lon="-0.78205">
        <ele>942.48</ele>
        <time>2023-12-21T21:10:36.316Z</time>
      </trkpt>
      <trkpt lat="42.99566" lon="-0.78206">
        <ele>941.48</ele>
        <time>2023-12-21T21:10:40.474Z</time>
      </trkpt>
      <trkpt lat="42.99557" lon="-0.7821">
        <ele>940.43</ele>
        <time>2023-12-21T21:10:44.633Z</time>
      </trkpt>
      <trkpt lat="42.99544" lon="-0.7822">
        <ele>939.28</ele>
        <time>2023-12-21T21:10:48.795Z</time>
      </trkpt>
      <trkpt lat="42.99536" lon="-0.7823">
        <ele>938.02</ele>
        <time>2023-12-21T21:10:52.959Z</time>
      </trkpt>
      <trkpt lat="42.99528" lon="-0.78244">
        <ele>936.64</ele>
        <time>2023-12-21T21:10:57.126Z</time>
      </trkpt>
      <trkpt lat="42.99513" lon="-0.78307">
        <ele>934.85</ele>
        <time>2023-12-21T21:11:01.302Z</time>
      </trkpt>
      <trkpt lat="42.99512" lon="-0.78319">
        <ele>933.11</ele>
        <time>2023-12-21T21:11:05.479Z</time>
      </trkpt>
      <trkpt lat="42.99514" lon="-0.78335">
        <ele>931.13</ele>
        <time>2023-12-21T21:11:09.658Z</time>
      </trkpt>
      <trkpt lat="42.99521" lon="-0.78365">
        <ele>928.9</ele>
        <time>2023-12-21T21:11:13.842Z</time>
      </trkpt>
      <trkpt lat="42.9952" lon="-0.78379">
        <ele>926.88</ele>
        <time>2023-12-21T21:11:18.028Z</time>
      </trkpt>
      <trkpt lat="42.99517" lon="-0.78385">
        <ele>924.86</ele>
        <time>2023-12-21T21:11:22.215Z</time>
      </trkpt>
      <trkpt lat="42.99494" lon="-0.78414">
        <ele>923.04</ele>
        <time>2023-12-21T21:11:26.407Z</time>
      </trkpt>
      <trkpt lat="42.99481" lon="-0.78441">
        <ele>920.73</ele>
        <time>2023-12-21T21:11:30.604Z</time>
      </trkpt>
      <trkpt lat="42.99468" lon="-0.78459">
        <ele>918.38</ele>
        <time>2023-12-21T21:11:34.804Z</time>
      </trkpt>
      <trkpt lat="42.99396" lon="-0.78543">
        <ele>915.46</ele>
        <time>2023-12-21T21:11:39.022Z</time>
      </trkpt>
      <trkpt lat="42.99372" lon="-0.78567">
        <ele>912.71</ele>
        <time>2023-12-21T21:11:43.245Z</time>
      </trkpt>
      <trkpt lat="42.9936" lon="-0.78577">
        <ele>910.1</ele>
        <time>2023-12-21T21:11:47.471Z</time>
      </trkpt>
      <trkpt lat="42.99314" lon="-0.78606">
        <ele>907.03</ele>
        <time>2023-12-21T21:11:51.707Z</time>
      </trkpt>
      <trkpt lat="42.993" lon="-0.78607">
        <ele>904.66</ele>
        <time>2023-12-21T21:11:55.945Z</time>
      </trkpt>
      <trkpt lat="42.99289" lon="-0.78606">
        <ele>902.37</ele>
        <time>2023-12-21T21:12:00.185Z</time>
      </trkpt>
      <trkpt lat="42.99237" lon="-0.78592">
        <ele>900.07</ele>
        <time>2023-12-21T21:12:04.435Z</time>
      </trkpt>
      <trkpt lat="42.99218" lon="-0.7859">
        <ele>897.98</ele>
        <time>2023-12-21T21:12:08.689Z</time>
      </trkpt>
      <trkpt lat="42.99194" lon="-0.78598">
        <ele>895.84</ele>
        <time>2023-12-21T21:12:12.947Z</time>
      </trkpt>
      <trkpt lat="42.99184" lon="-0.7861">
        <ele>893.77</ele>
        <time>2023-12-21T21:12:17.208Z</time>
      </trkpt>
      <trkpt lat="42.99181" lon="-0.78616">
        <ele>891.85</ele>
        <time>2023-12-21T21:12:21.470Z</time>
      </trkpt>
      <trkpt lat="42.9918" lon="-0.78628">
        <ele>890.02</ele>
        <time>2023-12-21T21:12:25.733Z</time>
      </trkpt>
      <trkpt lat="42.99182" lon="-0.78636">
        <ele>888.32</ele>
        <time>2023-12-21T21:12:29.997Z</time>
      </trkpt>
      <trkpt lat="42.99189" lon="-0.78651">
        <ele>886.65</ele>
        <time>2023-12-21T21:12:34.264Z</time>
      </trkpt>
      <trkpt lat="42.99204" lon="-0.78667">
        <ele>885.08</ele>
        <time>2023-12-21T21:12:38.534Z</time>
      </trkpt>
      <trkpt lat="42.99221" lon="-0.78681">
        <ele>883.75</ele>
        <time>2023-12-21T21:12:42.808Z</time>
      </trkpt>
      <trkpt lat="42.99242" lon="-0.78693">
        <ele>882.55</ele>
        <time>2023-12-21T21:12:47.086Z</time>
      </trkpt>
      <trkpt lat="42.9927" lon="-0.787">
        <ele>881.36</ele>
        <time>2023-12-21T21:12:51.370Z</time>
      </trkpt>
      <trkpt lat="42.99286" lon="-0.787">
        <ele>880.18</ele>
        <time>2023-12-21T21:12:55.657Z</time>
      </trkpt>
      <trkpt lat="42.99295" lon="-0.78697">
        <ele>879.13</ele>
        <time>2023-12-21T21:12:59.945Z</time>
      </trkpt>
      <trkpt lat="42.99326" lon="-0.78683">
        <ele>878.11</ele>
        <time>2023-12-21T21:13:04.239Z</time>
      </trkpt>
      <trkpt lat="42.99333" lon="-0.78685">
        <ele>877.21</ele>
        <time>2023-12-21T21:13:08.535Z</time>
      </trkpt>
      <trkpt lat="42.9934" lon="-0.78693">
        <ele>876.3</ele>
        <time>2023-12-21T21:13:12.832Z</time>
      </trkpt>
      <trkpt lat="42.99342" lon="-0.787">
        <ele>875.39</ele>
        <time>2023-12-21T21:13:17.130Z</time>
      </trkpt>
      <trkpt lat="42.99341" lon="-0.78708">
        <ele>874.49</ele>
        <time>2023-12-21T21:13:21.430Z</time>
      </trkpt>
      <trkpt lat="42.99325" lon="-0.78737">
        <ele>873.6</ele>
        <time>2023-12-21T21:13:25.735Z</time>
      </trkpt>
      <trkpt lat="42.99322" lon="-0.78747">
        <ele>872.64</ele>
        <time>2023-12-21T21:13:30.041Z</time>
      </trkpt>
      <trkpt lat="42.99321" lon="-0.78771">
        <ele>871.6</ele>
        <time>2023-12-21T21:13:34.350Z</time>
      </trkpt>
      <trkpt lat="42.99328" lon="-0.788">
        <ele>870.48</ele>
        <time>2023-12-21T21:13:38.663Z</time>
      </trkpt>
      <trkpt lat="42.9933" lon="-0.78818">
        <ele>869.23</ele>
        <time>2023-12-21T21:13:42.979Z</time>
      </trkpt>
      <trkpt lat="42.9933" lon="-0.78831">
        <ele>867.88</ele>
        <time>2023-12-21T21:13:47.297Z</time>
      </trkpt>
      <trkpt lat="42.99328" lon="-0.78845">
        <ele>866.43</ele>
        <time>2023-12-21T21:13:51.617Z</time>
      </trkpt>
      <trkpt lat="42.99322" lon="-0.78864">
        <ele>864.82</ele>
        <time>2023-12-21T21:13:55.940Z</time>
      </trkpt>
      <trkpt lat="42.99315" lon="-0.78898">
        <ele>863.1</ele>
        <time>2023-12-21T21:14:00.267Z</time>
      </trkpt>
      <trkpt lat="42.9931" lon="-0.78908">
        <ele>861.17</ele>
        <time>2023-12-21T21:14:04.596Z</time>
      </trkpt>
      <trkpt lat="42.99292" lon="-0.7893">
        <ele>859.04</ele>
        <time>2023-12-21T21:14:08.929Z</time>
      </trkpt>
      <trkpt lat="42.99281" lon="-0.7895">
        <ele>856.72</ele>
        <time>2023-12-21T21:14:13.266Z</time>
      </trkpt>
      <trkpt lat="42.99273" lon="-0.78969">
        <ele>854.18</ele>
        <time>2023-12-21T21:14:17.606Z</time>
      </trkpt>
      <trkpt lat="42.99268" lon="-0.78987">
        <ele>851.48</ele>
        <time>2023-12-21T21:14:21.949Z</time>
      </trkpt>
      <trkpt lat="42.99267" lon="-0.79005">
        <ele>848.57</ele>
        <time>2023-12-21T21:14:26.294Z</time>
      </trkpt>
      <trkpt lat="42.9927" lon="-0.79038">
        <ele>845.49</ele>
        <time>2023-12-21T21:14:30.644Z</time>
      </trkpt>
      <trkpt lat="42.9927" lon="-0.79055">
        <ele>842.31</ele>
        <time>2023-12-21T21:14:34.996Z</time>
      </trkpt>
      <trkpt lat="42.99265" lon="-0.79132">
        <ele>838.56</ele>
        <time>2023-12-21T21:14:39.358Z</time>
      </trkpt>
      <trkpt lat="42.99266" lon="-0.79158">
        <ele>835.06</ele>
        <time>2023-12-21T21:14:43.724Z</time>
      </trkpt>
      <trkpt lat="42.99271" lon="-0.79187">
        <ele>831.42</ele>
        <time>2023-12-21T21:14:48.094Z</time>
      </trkpt>
      <trkpt lat="42.99285" lon="-0.79254">
        <ele>827.4</ele>
        <time>2023-12-21T21:14:52.474Z</time>
      </trkpt>
      <trkpt lat="42.993" lon="-0.79309">
        <ele>823.64</ele>
        <time>2023-12-21T21:14:56.862Z</time>
      </trkpt>
      <trkpt lat="42.99303" lon="-0.79343">
        <ele>819.8</ele>
        <time>2023-12-21T21:15:01.254Z</time>
      </trkpt>
      <trkpt lat="42.99306" lon="-0.7936">
        <ele>816.08</ele>
        <time>2023-12-21T21:15:05.649Z</time>
      </trkpt>
      <trkpt lat="42.99305" lon="-0.7939">
        <ele>812.03</ele>
        <time>2023-12-21T21:15:10.048Z</time>
      </trkpt>
      <trkpt lat="42.99308" lon="-0.79411">
        <ele>808.19</ele>
        <time>2023-12-21T21:15:14.450Z</time>
      </trkpt>
      <trkpt lat="42.99312" lon="-0.79429">
        <ele>804.5</ele>
        <time>2023-12-21T21:15:18.854Z</time>
      </trkpt>
      <trkpt lat="42.99318" lon="-0.79447">
        <ele>800.91</ele>
        <time>2023-12-21T21:15:23.261Z</time>
      </trkpt>
      <trkpt lat="42.9933" lon="-0.79476">
        <ele>797.43</ele>
        <time>2023-12-21T21:15:27.672Z</time>
      </trkpt>
      <trkpt lat="42.99337" lon="-0.79489">
        <ele>794.06</ele>
        <time>2023-12-21T21:15:32.086Z</time>
      </trkpt>
      <trkpt lat="42.99359" lon="-0.79519">
        <ele>790.61</ele>
        <time>2023-12-21T21:15:36.505Z</time>
      </trkpt>
      <trkpt lat="42.9937" lon="-0.79528">
        <ele>787.4</ele>
        <time>2023-12-21T21:15:40.927Z</time>
      </trkpt>
      <trkpt lat="42.99396" lon="-0.7954">
        <ele>784.29</ele>
        <time>2023-12-21T21:15:45.354Z</time>
      </trkpt>
      <trkpt lat="42.994" lon="-0.79546">
        <ele>781.08</ele>
        <time>2023-12-21T21:15:49.782Z</time>
      </trkpt>
      <trkpt lat="42.99408" lon="-0.7957">
        <ele>777.62</ele>
        <time>2023-12-21T21:15:54.214Z</time>
      </trkpt>
      <trkpt lat="42.99418" lon="-0.79586">
        <ele>774.44</ele>
        <time>2023-12-21T21:15:58.649Z</time>
      </trkpt>
      <trkpt lat="42.9944" lon="-0.79618">
        <ele>771.34</ele>
        <time>2023-12-21T21:16:03.090Z</time>
      </trkpt>
      <trkpt lat="42.99468" lon="-0.79654">
        <ele>768.32</ele>
        <time>2023-12-21T21:16:07.538Z</time>
      </trkpt>
      <trkpt lat="42.99492" lon="-0.79702">
        <ele>765.12</ele>
        <time>2023-12-21T21:16:11.994Z</time>
      </trkpt>
      <trkpt lat="42.9954" lon="-0.79783">
        <ele>761.75</ele>
        <time>2023-12-21T21:16:16.464Z</time>
      </trkpt>
      <trkpt lat="42.99575" lon="-0.7982">
        <ele>758.68</ele>
        <time>2023-12-21T21:16:20.942Z</time>
      </trkpt>
      <trkpt lat="42.99592" lon="-0.79835">
        <ele>755.84</ele>
        <time>2023-12-21T21:16:25.424Z</time>
      </trkpt>
      <trkpt lat="42.99608" lon="-0.79844">
        <ele>753.22</ele>
        <time>2023-12-21T21:16:29.909Z</time>
      </trkpt>
      <trkpt lat="42.99635" lon="-0.79848">
        <ele>751.01</ele>
        <time>2023-12-21T21:16:34.399Z</time>
      </trkpt>
      <trkpt lat="42.99646" lon="-0.79856">
        <ele>748.68</ele>
        <time>2023-12-21T21:16:38.891Z</time>
      </trkpt>
      <trkpt lat="42.99652" lon="-0.79868">
        <ele>746.32</ele>
        <time>2023-12-21T21:16:43.385Z</time>
      </trkpt>
      <trkpt lat="42.99653" lon="-0.79874">
        <ele>743.85</ele>
        <time>2023-12-21T21:16:47.880Z</time>
      </trkpt>
      <trkpt lat="42.9965" lon="-0.79888">
        <ele>741.21</ele>
        <time>2023-12-21T21:16:52.377Z</time>
      </trkpt>
      <trkpt lat="42.99643" lon="-0.79899">
        <ele>738.47</ele>
        <time>2023-12-21T21:16:56.876Z</time>
      </trkpt>
      <trkpt lat="42.99635" lon="-0.79904">
        <ele>735.74</ele>
        <time>2023-12-21T21:17:01.377Z</time>
      </trkpt>
      <trkpt lat="42.99611" lon="-0.79913">
        <ele>732.63</ele>
        <time>2023-12-21T21:17:05.882Z</time>
      </trkpt>
      <trkpt lat="42.99603" lon="-0.7992">
        <ele>729.99</ele>
        <time>2023-12-21T21:17:10.389Z</time>
      </trkpt>
      <trkpt lat="42.99598" lon="-0.79929">
        <ele>727.41</ele>
        <time>2023-12-21T21:17:14.898Z</time>
      </trkpt>
      <trkpt lat="42.99595" lon="-0.79939">
        <ele>724.87</ele>
        <time>2023-12-21T21:17:19.408Z</time>
      </trkpt>
      <trkpt lat="42.99594" lon="-0.79953">
        <ele>722.37</ele>
        <time>2023-12-21T21:17:23.920Z</time>
      </trkpt>
      <trkpt lat="42.99596" lon="-0.79971">
        <ele>719.9</ele>
        <time>2023-12-21T21:17:28.435Z</time>
      </trkpt>
      <trkpt lat="42.99608" lon="-0.80018">
        <ele>717.45</ele>
        <time>2023-12-21T21:17:32.956Z</time>
      </trkpt>
      <trkpt lat="42.99613" lon="-0.80049">
        <ele>714.94</ele>
        <time>2023-12-21T21:17:37.482Z</time>
      </trkpt>
      <trkpt lat="42.99613" lon="-0.8006">
        <ele>712.39</ele>
        <time>2023-12-21T21:17:42.009Z</time>
      </trkpt>
      <trkpt lat="42.9961" lon="-0.80088">
        <ele>709.72</ele>
        <time>2023-12-21T21:17:46.540Z</time>
      </trkpt>
      <trkpt lat="42.9961" lon="-0.80103">
        <ele>707.1</ele>
        <time>2023-12-21T21:17:51.073Z</time>
      </trkpt>
      <trkpt lat="42.99619" lon="-0.80151">
        <ele>704.56</ele>
        <time>2023-12-21T21:17:55.613Z</time>
      </trkpt>
      <trkpt lat="42.99637" lon="-0.80299">
        <ele>701.4</ele>
        <time>2023-12-21T21:18:00.173Z</time>
      </trkpt>
      <trkpt lat="42.99649" lon="-0.80345">
        <ele>698.59</ele>
        <time>2023-12-21T21:18:04.740Z</time>
      </trkpt>
      <trkpt lat="42.99649" lon="-0.80357">
        <ele>695.91</ele>
        <time>2023-12-21T21:18:09.309Z</time>
      </trkpt>
      <trkpt lat="42.99642" lon="-0.80378">
        <ele>693.17</ele>
        <time>2023-12-21T21:18:13.881Z</time>
      </trkpt>
      <trkpt lat="42.99635" lon="-0.80388">
        <ele>690.56</ele>
        <time>2023-12-21T21:18:18.455Z</time>
      </trkpt>
      <trkpt lat="42.99602" lon="-0.80425">
        <ele>687.67</ele>
        <time>2023-12-21T21:18:23.037Z</time>
      </trkpt>
      <trkpt lat="42.99595" lon="-0.80437">
        <ele>685.02</ele>
        <time>2023-12-21T21:18:27.621Z</time>
      </trkpt>
      <trkpt lat="42.99591" lon="-0.80448">
        <ele>682.45</ele>
        <time>2023-12-21T21:18:32.207Z</time>
      </trkpt>
      <trkpt lat="42.99591" lon="-0.80469">
        <ele>680</ele>
        <time>2023-12-21T21:18:36.795Z</time>
      </trkpt>
      <trkpt lat="42.99593" lon="-0.80489">
        <ele>677.64</ele>
        <time>2023-12-21T21:18:41.386Z</time>
      </trkpt>
      <trkpt lat="42.99602" lon="-0.80538">
        <ele>675.07</ele>
        <time>2023-12-21T21:18:45.984Z</time>
      </trkpt>
      <trkpt lat="42.99606" lon="-0.80551">
        <ele>672.93</ele>
        <time>2023-12-21T21:18:50.584Z</time>
      </trkpt>
      <trkpt lat="42.99631" lon="-0.80612">
        <ele>671</ele>
        <time>2023-12-21T21:18:55.194Z</time>
      </trkpt>
      <trkpt lat="42.99649" lon="-0.807">
        <ele>668.3</ele>
        <time>2023-12-21T21:18:59.816Z</time>
      </trkpt>
      <trkpt lat="42.99652" lon="-0.80712">
        <ele>666.33</ele>
        <time>2023-12-21T21:19:04.440Z</time>
      </trkpt>
      <trkpt lat="42.99659" lon="-0.80719">
        <ele>664.6</ele>
        <time>2023-12-21T21:19:09.065Z</time>
      </trkpt>
      <trkpt lat="42.99675" lon="-0.80729">
        <ele>663.16</ele>
        <time>2023-12-21T21:19:13.694Z</time>
      </trkpt>
      <trkpt lat="42.99681" lon="-0.80736">
        <ele>661.55</ele>
        <time>2023-12-21T21:19:18.324Z</time>
      </trkpt>
      <trkpt lat="42.99685" lon="-0.80746">
        <ele>659.93</ele>
        <time>2023-12-21T21:19:22.956Z</time>
      </trkpt>
      <trkpt lat="42.99687" lon="-0.80757">
        <ele>658.25</ele>
        <time>2023-12-21T21:19:27.589Z</time>
      </trkpt>
      <trkpt lat="42.99685" lon="-0.80767">
        <ele>656.58</ele>
        <time>2023-12-21T21:19:32.224Z</time>
      </trkpt>
      <trkpt lat="42.99681" lon="-0.80775">
        <ele>654.91</ele>
        <time>2023-12-21T21:19:36.860Z</time>
      </trkpt>
      <trkpt lat="42.9966" lon="-0.80797">
        <ele>652.95</ele>
        <time>2023-12-21T21:19:41.501Z</time>
      </trkpt>
      <trkpt lat="42.99655" lon="-0.80805">
        <ele>651.38</ele>
        <time>2023-12-21T21:19:46.143Z</time>
      </trkpt>
      <trkpt lat="42.9965" lon="-0.80818">
        <ele>649.83</ele>
        <time>2023-12-21T21:19:50.787Z</time>
      </trkpt>
      <trkpt lat="42.99643" lon="-0.80844">
        <ele>648.41</ele>
        <time>2023-12-21T21:19:55.435Z</time>
      </trkpt>
      <trkpt lat="42.99638" lon="-0.80869">
        <ele>647</ele>
        <time>2023-12-21T21:20:00.087Z</time>
      </trkpt>
      <trkpt lat="42.99632" lon="-0.8092">
        <ele>645.47</ele>
        <time>2023-12-21T21:20:04.746Z</time>
      </trkpt>
      <trkpt lat="42.99629" lon="-0.80963">
        <ele>644.02</ele>
        <time>2023-12-21T21:20:09.411Z</time>
      </trkpt>
      <trkpt lat="42.99623" lon="-0.81112">
        <ele>642.45</ele>
        <time>2023-12-21T21:20:14.096Z</time>
      </trkpt>
      <trkpt lat="42.99621" lon="-0.81126">
        <ele>641.06</ele>
        <time>2023-12-21T21:20:18.783Z</time>
      </trkpt>
      <trkpt lat="42.99617" lon="-0.81139">
        <ele>639.67</ele>
        <time>2023-12-21T21:20:23.472Z</time>
      </trkpt>
      <trkpt lat="42.99605" lon="-0.81163">
        <ele>638.26</ele>
        <time>2023-12-21T21:20:28.165Z</time>
      </trkpt>
      <trkpt lat="42.99545" lon="-0.81225">
        <ele>636.6</ele>
        <time>2023-12-21T21:20:32.872Z</time>
      </trkpt>
      <trkpt lat="42.99538" lon="-0.81236">
        <ele>635.27</ele>
        <time>2023-12-21T21:20:37.581Z</time>
      </trkpt>
      <trkpt lat="42.99531" lon="-0.81251">
        <ele>633.99</ele>
        <time>2023-12-21T21:20:42.292Z</time>
      </trkpt>
      <trkpt lat="42.9952" lon="-0.81308">
        <ele>632.83</ele>
        <time>2023-12-21T21:20:47.011Z</time>
      </trkpt>
      <trkpt lat="42.9952" lon="-0.81331">
        <ele>631.5</ele>
        <time>2023-12-21T21:20:51.733Z</time>
      </trkpt>
      <trkpt lat="42.99549" lon="-0.81504">
        <ele>629.95</ele>
        <time>2023-12-21T21:20:56.480Z</time>
      </trkpt>
      <trkpt lat="42.99556" lon="-0.81552">
        <ele>628.71</ele>
        <time>2023-12-21T21:21:01.233Z</time>
      </trkpt>
      <trkpt lat="42.99556" lon="-0.81622">
        <ele>627.2</ele>
        <time>2023-12-21T21:21:05.996Z</time>
      </trkpt>
      <trkpt lat="42.99558" lon="-0.81632">
        <ele>625.85</ele>
        <time>2023-12-21T21:21:10.760Z</time>
      </trkpt>
      <trkpt lat="42.99568" lon="-0.81655">
        <ele>624.43</ele>
        <time>2023-12-21T21:21:15.528Z</time>
      </trkpt>
      <trkpt lat="42.99578" lon="-0.81668">
        <ele>623.13</ele>
        <time>2023-12-21T21:21:20.298Z</time>
      </trkpt>
      <trkpt lat="42.99589" lon="-0.81677">
        <ele>621.86</ele>
        <time>2023-12-21T21:21:25.071Z</time>
      </trkpt>
      <trkpt lat="42.99605" lon="-0.81698">
        <ele>620.66</ele>
        <time>2023-12-21T21:21:29.848Z</time>
      </trkpt>
      <trkpt lat="42.99613" lon="-0.81716">
        <ele>619.4</ele>
        <time>2023-12-21T21:21:34.628Z</time>
      </trkpt>
      <trkpt lat="42.99621" lon="-0.81742">
        <ele>618.19</ele>
        <time>2023-12-21T21:21:39.412Z</time>
      </trkpt>
      <trkpt lat="42.99621" lon="-0.81742">
        <ele>618.19</ele>
        <time>2023-12-21T21:21:44.196Z</time>
      </trkpt>
      <trkpt lat="42.99629" lon="-0.81805">
        <ele>616.67</ele>
        <time>2023-12-21T21:21:48.988Z</time>
      </trkpt>
      <trkpt lat="42.99636" lon="-0.8189">
        <ele>615.21</ele>
        <time>2023-12-21T21:21:53.792Z</time>
      </trkpt>
      <trkpt lat="42.99638" lon="-0.81931">
        <ele>614.07</ele>
        <time>2023-12-21T21:21:58.602Z</time>
      </trkpt>
      <trkpt lat="42.99636" lon="-0.81955">
        <ele>612.96</ele>
        <time>2023-12-21T21:22:03.415Z</time>
      </trkpt>
      <trkpt lat="42.99632" lon="-0.81966">
        <ele>611.79</ele>
        <time>2023-12-21T21:22:08.230Z</time>
      </trkpt>
      <trkpt lat="42.99602" lon="-0.82012">
        <ele>610.12</ele>
        <time>2023-12-21T21:22:13.053Z</time>
      </trkpt>
      <trkpt lat="42.99596" lon="-0.82029">
        <ele>608.89</ele>
        <time>2023-12-21T21:22:17.879Z</time>
      </trkpt>
      <trkpt lat="42.99593" lon="-0.82054">
        <ele>607.83</ele>
        <time>2023-12-21T21:22:22.708Z</time>
      </trkpt>
      <trkpt lat="42.99596" lon="-0.82137">
        <ele>606.9</ele>
        <time>2023-12-21T21:22:27.549Z</time>
      </trkpt>
      <trkpt lat="42.99603" lon="-0.82161">
        <ele>605.74</ele>
        <time>2023-12-21T21:22:32.393Z</time>
      </trkpt>
      <trkpt lat="42.99613" lon="-0.82178">
        <ele>604.69</ele>
        <time>2023-12-21T21:22:37.240Z</time>
      </trkpt>
      <trkpt lat="42.99652" lon="-0.82208">
        <ele>603.84</ele>
        <time>2023-12-21T21:22:42.095Z</time>
      </trkpt>
      <trkpt lat="42.99656" lon="-0.82213">
        <ele>602.88</ele>
        <time>2023-12-21T21:22:46.951Z</time>
      </trkpt>
      <trkpt lat="42.99664" lon="-0.82228">
        <ele>601.92</ele>
        <time>2023-12-21T21:22:51.810Z</time>
      </trkpt>
      <trkpt lat="42.99667" lon="-0.8224">
        <ele>600.95</ele>
        <time>2023-12-21T21:22:56.671Z</time>
      </trkpt>
      <trkpt lat="42.99668" lon="-0.82258">
        <ele>599.92</ele>
        <time>2023-12-21T21:23:01.534Z</time>
      </trkpt>
      <trkpt lat="42.99668" lon="-0.82299">
        <ele>598.79</ele>
        <time>2023-12-21T21:23:06.403Z</time>
      </trkpt>
      <trkpt lat="42.99673" lon="-0.82316">
        <ele>597.72</ele>
        <time>2023-12-21T21:23:11.274Z</time>
      </trkpt>
      <trkpt lat="42.99678" lon="-0.8232">
        <ele>596.7</ele>
        <time>2023-12-21T21:23:16.146Z</time>
      </trkpt>
      <trkpt lat="42.99695" lon="-0.82327">
        <ele>595.74</ele>
        <time>2023-12-21T21:23:21.022Z</time>
      </trkpt>
      <trkpt lat="42.99719" lon="-0.8235">
        <ele>594.55</ele>
        <time>2023-12-21T21:23:25.903Z</time>
      </trkpt>
      <trkpt lat="42.99723" lon="-0.82357">
        <ele>593.38</ele>
        <time>2023-12-21T21:23:30.785Z</time>
      </trkpt>
      <trkpt lat="42.99724" lon="-0.82366">
        <ele>592.14</ele>
        <time>2023-12-21T21:23:35.668Z</time>
      </trkpt>
      <trkpt lat="42.99721" lon="-0.82376">
        <ele>590.84</ele>
        <time>2023-12-21T21:23:40.553Z</time>
      </trkpt>
      <trkpt lat="42.99709" lon="-0.82403">
        <ele>589.48</ele>
        <time>2023-12-21T21:23:45.442Z</time>
      </trkpt>
      <trkpt lat="42.9969" lon="-0.82429">
        <ele>588.12</ele>
        <time>2023-12-21T21:23:50.336Z</time>
      </trkpt>
      <trkpt lat="42.99632" lon="-0.82468">
        <ele>586.31</ele>
        <time>2023-12-21T21:23:55.242Z</time>
      </trkpt>
      <trkpt lat="42.99593" lon="-0.82497">
        <ele>584.55</ele>
        <time>2023-12-21T21:24:00.157Z</time>
      </trkpt>
      <trkpt lat="42.99583" lon="-0.82507">
        <ele>582.95</ele>
        <time>2023-12-21T21:24:05.074Z</time>
      </trkpt>
      <trkpt lat="42.99563" lon="-0.8255">
        <ele>581.29</ele>
        <time>2023-12-21T21:24:09.998Z</time>
      </trkpt>
      <trkpt lat="42.99551" lon="-0.82572">
        <ele>579.59</ele>
        <time>2023-12-21T21:24:14.926Z</time>
      </trkpt>
      <trkpt lat="42.99516" lon="-0.82617">
        <ele>577.79</ele>
        <time>2023-12-21T21:24:19.863Z</time>
      </trkpt>
      <trkpt lat="42.99502" lon="-0.8263">
        <ele>576.26</ele>
        <time>2023-12-21T21:24:24.803Z</time>
      </trkpt>
      <trkpt lat="42.99463" lon="-0.82653">
        <ele>574.87</ele>
        <time>2023-12-21T21:24:29.751Z</time>
      </trkpt>
      <trkpt lat="42.99447" lon="-0.82655">
        <ele>572.88</ele>
        <time>2023-12-21T21:24:34.702Z</time>
      </trkpt>
      <trkpt lat="42.99424" lon="-0.82653">
        <ele>570.62</ele>
        <time>2023-12-21T21:24:39.657Z</time>
      </trkpt>
      <trkpt lat="42.99409" lon="-0.82649">
        <ele>568.44</ele>
        <time>2023-12-21T21:24:44.615Z</time>
      </trkpt>
      <trkpt lat="42.99397" lon="-0.82648">
        <ele>566.32</ele>
        <time>2023-12-21T21:24:49.575Z</time>
      </trkpt>
      <trkpt lat="42.99386" lon="-0.82652">
        <ele>564.27</ele>
        <time>2023-12-21T21:24:54.537Z</time>
      </trkpt>
      <trkpt lat="42.99376" lon="-0.82659">
        <ele>562.28</ele>
        <time>2023-12-21T21:24:59.501Z</time>
      </trkpt>
      <trkpt lat="42.99367" lon="-0.82673">
        <ele>560.42</ele>
        <time>2023-12-21T21:25:04.468Z</time>
      </trkpt>
      <trkpt lat="42.99346" lon="-0.82711">
        <ele>558.31</ele>
        <time>2023-12-21T21:25:09.441Z</time>
      </trkpt>
      <trkpt lat="42.99339" lon="-0.82727">
        <ele>556.43</ele>
        <time>2023-12-21T21:25:14.417Z</time>
      </trkpt>
      <trkpt lat="42.99337" lon="-0.82741">
        <ele>554.6</ele>
        <time>2023-12-21T21:25:19.395Z</time>
      </trkpt>
      <trkpt lat="42.99337" lon="-0.82756">
        <ele>552.83</ele>
        <time>2023-12-21T21:25:24.375Z</time>
      </trkpt>
      <trkpt lat="42.9934" lon="-0.8277">
        <ele>551.14</ele>
        <time>2023-12-21T21:25:29.357Z</time>
      </trkpt>
      <trkpt lat="42.99347" lon="-0.82786">
        <ele>549.5</ele>
        <time>2023-12-21T21:25:34.341Z</time>
      </trkpt>
      <trkpt lat="42.99363" lon="-0.82813">
        <ele>547.99</ele>
        <time>2023-12-21T21:25:39.330Z</time>
      </trkpt>
      <trkpt lat="42.99412" lon="-0.82877">
        <ele>546.18</ele>
        <time>2023-12-21T21:25:44.332Z</time>
      </trkpt>
      <trkpt lat="42.99457" lon="-0.82952">
        <ele>544.25</ele>
        <time>2023-12-21T21:25:49.347Z</time>
      </trkpt>
      <trkpt lat="42.99474" lon="-0.83">
        <ele>542.7</ele>
        <time>2023-12-21T21:25:54.369Z</time>
      </trkpt>
      <trkpt lat="42.99479" lon="-0.83021">
        <ele>541.13</ele>
        <time>2023-12-21T21:25:59.394Z</time>
      </trkpt>
      <trkpt lat="42.99485" lon="-0.8306">
        <ele>539.57</ele>
        <time>2023-12-21T21:26:04.425Z</time>
      </trkpt>
      <trkpt lat="42.99482" lon="-0.83114">
        <ele>537.88</ele>
        <time>2023-12-21T21:26:09.463Z</time>
      </trkpt>
      <trkpt lat="42.99482" lon="-0.83176">
        <ele>536.49</ele>
        <time>2023-12-21T21:26:14.509Z</time>
      </trkpt>
      <trkpt lat="42.99474" lon="-0.83222">
        <ele>534.93</ele>
        <time>2023-12-21T21:26:19.562Z</time>
      </trkpt>
      <trkpt lat="42.9946" lon="-0.83259">
        <ele>533.49</ele>
        <time>2023-12-21T21:26:24.621Z</time>
      </trkpt>
      <trkpt lat="42.99443" lon="-0.83285">
        <ele>531.8</ele>
        <time>2023-12-21T21:26:29.684Z</time>
      </trkpt>
      <trkpt lat="42.9944" lon="-0.83296">
        <ele>530.5</ele>
        <time>2023-12-21T21:26:34.749Z</time>
      </trkpt>
      <trkpt lat="42.9944" lon="-0.83307">
        <ele>529.35</ele>
        <time>2023-12-21T21:26:39.815Z</time>
      </trkpt>
      <trkpt lat="42.99443" lon="-0.83318">
        <ele>528.3</ele>
        <time>2023-12-21T21:26:44.883Z</time>
      </trkpt>
      <trkpt lat="42.99489" lon="-0.83415">
        <ele>527.36</ele>
        <time>2023-12-21T21:26:49.967Z</time>
      </trkpt>
      <trkpt lat="42.99508" lon="-0.83452">
        <ele>526.29</ele>
        <time>2023-12-21T21:26:55.057Z</time>
      </trkpt>
      <trkpt lat="42.99554" lon="-0.83533">
        <ele>525.1</ele>
        <time>2023-12-21T21:27:00.161Z</time>
      </trkpt>
      <trkpt lat="42.99567" lon="-0.8355">
        <ele>524.32</ele>
        <time>2023-12-21T21:27:05.268Z</time>
      </trkpt>
      <trkpt lat="42.99589" lon="-0.83564">
        <ele>523.97</ele>
        <time>2023-12-21T21:27:10.380Z</time>
      </trkpt>
      <trkpt lat="42.99595" lon="-0.83573">
        <ele>523.3</ele>
        <time>2023-12-21T21:27:15.493Z</time>
      </trkpt>
      <trkpt lat="42.99599" lon="-0.83583">
        <ele>522.54</ele>
        <time>2023-12-21T21:27:20.608Z</time>
      </trkpt>
      <trkpt lat="42.99599" lon="-0.83597">
        <ele>521.67</ele>
        <time>2023-12-21T21:27:25.725Z</time>
      </trkpt>
      <trkpt lat="42.99594" lon="-0.83636">
        <ele>520.59</ele>
        <time>2023-12-21T21:27:30.847Z</time>
      </trkpt>
      <trkpt lat="42.9959" lon="-0.8365">
        <ele>519.76</ele>
        <time>2023-12-21T21:27:35.971Z</time>
      </trkpt>
      <trkpt lat="42.99577" lon="-0.83679">
        <ele>518.71</ele>
        <time>2023-12-21T21:27:41.100Z</time>
      </trkpt>
      <trkpt lat="42.99577" lon="-0.83692">
        <ele>518.07</ele>
        <time>2023-12-21T21:27:46.231Z</time>
      </trkpt>
      <trkpt lat="42.99579" lon="-0.83707">
        <ele>517.55</ele>
        <time>2023-12-21T21:27:51.364Z</time>
      </trkpt>
      <trkpt lat="42.99591" lon="-0.83734">
        <ele>517.27</ele>
        <time>2023-12-21T21:27:56.501Z</time>
      </trkpt>
      <trkpt lat="42.99618" lon="-0.83769">
        <ele>516.94</ele>
        <time>2023-12-21T21:28:01.645Z</time>
      </trkpt>
      <trkpt lat="42.99656" lon="-0.83799">
        <ele>516.62</ele>
        <time>2023-12-21T21:28:06.797Z</time>
      </trkpt>
      <trkpt lat="42.99666" lon="-0.83813">
        <ele>516.24</ele>
        <time>2023-12-21T21:28:11.952Z</time>
      </trkpt>
      <trkpt lat="42.99702" lon="-0.83885">
        <ele>515.23</ele>
        <time>2023-12-21T21:28:17.119Z</time>
      </trkpt>
      <trkpt lat="42.99708" lon="-0.83891">
        <ele>514.67</ele>
        <time>2023-12-21T21:28:22.287Z</time>
      </trkpt>
      <trkpt lat="42.99718" lon="-0.83894">
        <ele>514.15</ele>
        <time>2023-12-21T21:28:27.457Z</time>
      </trkpt>
      <trkpt lat="42.99727" lon="-0.83893">
        <ele>513.68</ele>
        <time>2023-12-21T21:28:32.629Z</time>
      </trkpt>
      <trkpt lat="42.99736" lon="-0.83888">
        <ele>513.23</ele>
        <time>2023-12-21T21:28:37.803Z</time>
      </trkpt>
      <trkpt lat="42.99769" lon="-0.83862">
        <ele>513.14</ele>
        <time>2023-12-21T21:28:42.984Z</time>
      </trkpt>
      <trkpt lat="42.99813" lon="-0.8384">
        <ele>512.57</ele>
        <time>2023-12-21T21:28:48.173Z</time>
      </trkpt>
      <trkpt lat="42.99824" lon="-0.83838">
        <ele>511.76</ele>
        <time>2023-12-21T21:28:53.365Z</time>
      </trkpt>
      <trkpt lat="42.99893" lon="-0.83846">
        <ele>510.31</ele>
        <time>2023-12-21T21:28:58.569Z</time>
      </trkpt>
      <trkpt lat="42.99903" lon="-0.8385">
        <ele>509.17</ele>
        <time>2023-12-21T21:29:03.775Z</time>
      </trkpt>
      <trkpt lat="42.99911" lon="-0.83856">
        <ele>508.01</ele>
        <time>2023-12-21T21:29:08.983Z</time>
      </trkpt>
      <trkpt lat="42.99919" lon="-0.83865">
        <ele>506.75</ele>
        <time>2023-12-21T21:29:14.193Z</time>
      </trkpt>
      <trkpt lat="42.99922" lon="-0.83871">
        <ele>505.47</ele>
        <time>2023-12-21T21:29:19.404Z</time>
      </trkpt>
      <trkpt lat="42.99925" lon="-0.83891">
        <ele>504.08</ele>
        <time>2023-12-21T21:29:24.618Z</time>
      </trkpt>
      <trkpt lat="42.99922" lon="-0.83899">
        <ele>502.68</ele>
        <time>2023-12-21T21:29:29.833Z</time>
      </trkpt>
      <trkpt lat="42.99894" lon="-0.83944">
        <ele>500.83</ele>
        <time>2023-12-21T21:29:35.056Z</time>
      </trkpt>
      <trkpt lat="42.99891" lon="-0.83955">
        <ele>499.43</ele>
        <time>2023-12-21T21:29:40.281Z</time>
      </trkpt>
      <trkpt lat="42.99891" lon="-0.83966">
        <ele>498.01</ele>
        <time>2023-12-21T21:29:45.507Z</time>
      </trkpt>
      <trkpt lat="42.99906" lon="-0.84012">
        <ele>496.84</ele>
        <time>2023-12-21T21:29:50.740Z</time>
      </trkpt>
      <trkpt lat="42.99909" lon="-0.84029">
        <ele>495.51</ele>
        <time>2023-12-21T21:29:55.975Z</time>
      </trkpt>
      <trkpt lat="42.99907" lon="-0.84053">
        <ele>494.13</ele>
        <time>2023-12-21T21:30:01.214Z</time>
      </trkpt>
      <trkpt lat="42.99874" lon="-0.84129">
        <ele>492.13</ele>
        <time>2023-12-21T21:30:06.465Z</time>
      </trkpt>
      <trkpt lat="42.9987" lon="-0.84142">
        <ele>490.85</ele>
        <time>2023-12-21T21:30:11.718Z</time>
      </trkpt>
      <trkpt lat="42.9987" lon="-0.84165">
        <ele>489.68</ele>
        <time>2023-12-21T21:30:16.974Z</time>
      </trkpt>
      <trkpt lat="42.99871" lon="-0.84179">
        <ele>488.46</ele>
        <time>2023-12-21T21:30:22.232Z</time>
      </trkpt>
      <trkpt lat="42.99879" lon="-0.84205">
        <ele>487.32</ele>
        <time>2023-12-21T21:30:27.494Z</time>
      </trkpt>
      <trkpt lat="42.99893" lon="-0.84234">
        <ele>486.13</ele>
        <time>2023-12-21T21:30:32.760Z</time>
      </trkpt>
      <trkpt lat="42.9992" lon="-0.84275">
        <ele>484.91</ele>
        <time>2023-12-21T21:30:38.034Z</time>
      </trkpt>
      <trkpt lat="42.99932" lon="-0.84285">
        <ele>483.77</ele>
        <time>2023-12-21T21:30:43.310Z</time>
      </trkpt>
      <trkpt lat="43.00083" lon="-0.84323">
        <ele>482.24</ele>
        <time>2023-12-21T21:30:48.615Z</time>
      </trkpt>
      <trkpt lat="43.00102" lon="-0.84335">
        <ele>481.25</ele>
        <time>2023-12-21T21:30:53.924Z</time>
      </trkpt>
      <trkpt lat="43.00113" lon="-0.84346">
        <ele>480.28</ele>
        <time>2023-12-21T21:30:59.235Z</time>
      </trkpt>
      <trkpt lat="43.00119" lon="-0.84368">
        <ele>479.15</ele>
        <time>2023-12-21T21:31:04.550Z</time>
      </trkpt>
      <trkpt lat="43.00123" lon="-0.84418">
        <ele>477.92</ele>
        <time>2023-12-21T21:31:09.872Z</time>
      </trkpt>
      <trkpt lat="43.0013" lon="-0.84442">
        <ele>477.12</ele>
        <time>2023-12-21T21:31:15.197Z</time>
      </trkpt>
      <trkpt lat="43.00144" lon="-0.84482">
        <ele>476.49</ele>
        <time>2023-12-21T21:31:20.528Z</time>
      </trkpt>
      <trkpt lat="43.00159" lon="-0.84521">
        <ele>475.71</ele>
        <time>2023-12-21T21:31:25.865Z</time>
      </trkpt>
      <trkpt lat="43.00165" lon="-0.84532">
        <ele>475.02</ele>
        <time>2023-12-21T21:31:31.204Z</time>
      </trkpt>
      <trkpt lat="43.00198" lon="-0.84575">
        <ele>474.61</ele>
        <time>2023-12-21T21:31:36.552Z</time>
      </trkpt>
      <trkpt lat="43.0023" lon="-0.84605">
        <ele>474.19</ele>
        <time>2023-12-21T21:31:41.907Z</time>
      </trkpt>
      <trkpt lat="43.00257" lon="-0.84645">
        <ele>473.12</ele>
        <time>2023-12-21T21:31:47.269Z</time>
      </trkpt>
      <trkpt lat="43.00268" lon="-0.84656">
        <ele>472.45</ele>
        <time>2023-12-21T21:31:52.634Z</time>
      </trkpt>
      <trkpt lat="43.00289" lon="-0.84669">
        <ele>471.78</ele>
        <time>2023-12-21T21:31:58.003Z</time>
      </trkpt>
      <trkpt lat="43.00307" lon="-0.84675">
        <ele>471.33</ele>
        <time>2023-12-21T21:32:03.375Z</time>
      </trkpt>
      <trkpt lat="43.00349" lon="-0.84681">
        <ele>471.39</ele>
        <time>2023-12-21T21:32:08.755Z</time>
      </trkpt>
      <trkpt lat="43.00357" lon="-0.84686">
        <ele>470.84</ele>
        <time>2023-12-21T21:32:14.137Z</time>
      </trkpt>
      <trkpt lat="43.00368" lon="-0.84702">
        <ele>470.12</ele>
        <time>2023-12-21T21:32:19.522Z</time>
      </trkpt>
      <trkpt lat="43.00379" lon="-0.84733">
        <ele>469.23</ele>
        <time>2023-12-21T21:32:24.912Z</time>
      </trkpt>
      <trkpt lat="43.00383" lon="-0.84749">
        <ele>468.43</ele>
        <time>2023-12-21T21:32:30.304Z</time>
      </trkpt>
      <trkpt lat="43.00387" lon="-0.84822">
        <ele>467.16</ele>
        <time>2023-12-21T21:32:35.706Z</time>
      </trkpt>
      <trkpt lat="43.0039" lon="-0.8485">
        <ele>466.35</ele>
        <time>2023-12-21T21:32:41.112Z</time>
      </trkpt>
      <trkpt lat="43.00398" lon="-0.84871">
        <ele>465.42</ele>
        <time>2023-12-21T21:32:46.521Z</time>
      </trkpt>
      <trkpt lat="43.00411" lon="-0.84884">
        <ele>464.67</ele>
        <time>2023-12-21T21:32:51.933Z</time>
      </trkpt>
      <trkpt lat="43.00422" lon="-0.8489">
        <ele>463.92</ele>
        <time>2023-12-21T21:32:57.347Z</time>
      </trkpt>
      <trkpt lat="43.00435" lon="-0.84894">
        <ele>463.19</ele>
        <time>2023-12-21T21:33:02.764Z</time>
      </trkpt>
      <trkpt lat="43.00487" lon="-0.84901">
        <ele>462.45</ele>
        <time>2023-12-21T21:33:08.190Z</time>
      </trkpt>
      <trkpt lat="43.00558" lon="-0.84919">
        <ele>462.01</ele>
        <time>2023-12-21T21:33:13.630Z</time>
      </trkpt>
      <trkpt lat="43.00576" lon="-0.84927">
        <ele>461.37</ele>
        <time>2023-12-21T21:33:19.073Z</time>
      </trkpt>
      <trkpt lat="43.00591" lon="-0.84937">
        <ele>460.59</ele>
        <time>2023-12-21T21:33:24.519Z</time>
      </trkpt>
      <trkpt lat="43.00613" lon="-0.84955">
        <ele>459.88</ele>
        <time>2023-12-21T21:33:29.970Z</time>
      </trkpt>
      <trkpt lat="43.00631" lon="-0.84966">
        <ele>459.14</ele>
        <time>2023-12-21T21:33:35.425Z</time>
      </trkpt>
      <trkpt lat="43.0064" lon="-0.84975">
        <ele>458.11</ele>
        <time>2023-12-21T21:33:40.882Z</time>
      </trkpt>
      <trkpt lat="43.0067" lon="-0.84994">
        <ele>457.24</ele>
        <time>2023-12-21T21:33:46.345Z</time>
      </trkpt>
      <trkpt lat="43.00709" lon="-0.85032">
        <ele>455.85</ele>
        <time>2023-12-21T21:33:51.817Z</time>
      </trkpt>
      <trkpt lat="43.00762" lon="-0.85062">
        <ele>455.87</ele>
        <time>2023-12-21T21:33:57.300Z</time>
      </trkpt>
      <trkpt lat="43.0077" lon="-0.85069">
        <ele>455.12</ele>
        <time>2023-12-21T21:34:02.785Z</time>
      </trkpt>
      <trkpt lat="43.00777" lon="-0.85078">
        <ele>454.28</ele>
        <time>2023-12-21T21:34:08.271Z</time>
      </trkpt>
      <trkpt lat="43.00781" lon="-0.8509">
        <ele>453.35</ele>
        <time>2023-12-21T21:34:13.759Z</time>
      </trkpt>
      <trkpt lat="43.00788" lon="-0.85129">
        <ele>452.09</ele>
        <time>2023-12-21T21:34:19.253Z</time>
      </trkpt>
      <trkpt lat="43.00792" lon="-0.85145">
        <ele>451.14</ele>
        <time>2023-12-21T21:34:24.749Z</time>
      </trkpt>
      <trkpt lat="43.00796" lon="-0.85157">
        <ele>450.3</ele>
        <time>2023-12-21T21:34:30.247Z</time>
      </trkpt>
      <trkpt lat="43.00802" lon="-0.85167">
        <ele>449.57</ele>
        <time>2023-12-21T21:34:35.746Z</time>
      </trkpt>
      <trkpt lat="43.0081" lon="-0.85174">
        <ele>448.88</ele>
        <time>2023-12-21T21:34:41.247Z</time>
      </trkpt>
      <trkpt lat="43.0083" lon="-0.85186">
        <ele>448.4</ele>
        <time>2023-12-21T21:34:46.752Z</time>
      </trkpt>
      <trkpt lat="43.00856" lon="-0.85208">
        <ele>447.77</ele>
        <time>2023-12-21T21:34:52.263Z</time>
      </trkpt>
      <trkpt lat="43.00864" lon="-0.85211">
        <ele>447.23</ele>
        <time>2023-12-21T21:34:57.776Z</time>
      </trkpt>
      <trkpt lat="43.00886" lon="-0.85214">
        <ele>446.75</ele>
        <time>2023-12-21T21:35:03.293Z</time>
      </trkpt>
      <trkpt lat="43.00922" lon="-0.85238">
        <ele>446.1</ele>
        <time>2023-12-21T21:35:08.817Z</time>
      </trkpt>
      <trkpt lat="43.00936" lon="-0.85243">
        <ele>445.65</ele>
        <time>2023-12-21T21:35:14.344Z</time>
      </trkpt>
      <trkpt lat="43.00965" lon="-0.85249">
        <ele>445.38</ele>
        <time>2023-12-21T21:35:19.876Z</time>
      </trkpt>
      <trkpt lat="43.00984" lon="-0.85256">
        <ele>444.95</ele>
        <time>2023-12-21T21:35:25.412Z</time>
      </trkpt>
      <trkpt lat="43.01054" lon="-0.8529">
        <ele>444.39</ele>
        <time>2023-12-21T21:35:30.962Z</time>
      </trkpt>
      <trkpt lat="43.0114" lon="-0.85323">
        <ele>443.67</ele>
        <time>2023-12-21T21:35:36.528Z</time>
      </trkpt>
      <trkpt lat="43.01164" lon="-0.85335">
        <ele>442.96</ele>
        <time>2023-12-21T21:35:42.099Z</time>
      </trkpt>
      <trkpt lat="43.01235" lon="-0.8538">
        <ele>442.19</ele>
        <time>2023-12-21T21:35:47.685Z</time>
      </trkpt>
      <trkpt lat="43.01247" lon="-0.85383">
        <ele>441.73</ele>
        <time>2023-12-21T21:35:53.273Z</time>
      </trkpt>
      <trkpt lat="43.01262" lon="-0.85384">
        <ele>441.3</ele>
        <time>2023-12-21T21:35:58.864Z</time>
      </trkpt>
      <trkpt lat="43.01282" lon="-0.8538">
        <ele>440.98</ele>
        <time>2023-12-21T21:36:04.459Z</time>
      </trkpt>
      <trkpt lat="43.01303" lon="-0.8538">
        <ele>440.53</ele>
        <time>2023-12-21T21:36:10.057Z</time>
      </trkpt>
      <trkpt lat="43.01334" lon="-0.85373">
        <ele>440.06</ele>
        <time>2023-12-21T21:36:15.661Z</time>
      </trkpt>
      <trkpt lat="43.0135" lon="-0.85378">
        <ele>439.43</ele>
        <time>2023-12-21T21:36:21.268Z</time>
      </trkpt>
      <trkpt lat="43.01362" lon="-0.85385">
        <ele>438.83</ele>
        <time>2023-12-21T21:36:26.878Z</time>
      </trkpt>
      <trkpt lat="43.01379" lon="-0.85402">
        <ele>438.13</ele>
        <time>2023-12-21T21:36:32.492Z</time>
      </trkpt>
      <trkpt lat="43.01386" lon="-0.85417">
        <ele>437.57</ele>
        <time>2023-12-21T21:36:38.108Z</time>
      </trkpt>
      <trkpt lat="43.01386" lon="-0.85427">
        <ele>436.97</ele>
        <time>2023-12-21T21:36:43.725Z</time>
      </trkpt>
      <trkpt lat="43.01384" lon="-0.8544">
        <ele>436.36</ele>
        <time>2023-12-21T21:36:49.344Z</time>
      </trkpt>
      <trkpt lat="43.01368" lon="-0.85483">
        <ele>435.68</ele>
        <time>2023-12-21T21:36:54.970Z</time>
      </trkpt>
      <trkpt lat="43.01365" lon="-0.85501">
        <ele>435.04</ele>
        <time>2023-12-21T21:37:00.598Z</time>
      </trkpt>
      <trkpt lat="43.01367" lon="-0.85523">
        <ele>434.33</ele>
        <time>2023-12-21T21:37:06.229Z</time>
      </trkpt>
      <trkpt lat="43.01371" lon="-0.85534">
        <ele>433.65</ele>
        <time>2023-12-21T21:37:11.862Z</time>
      </trkpt>
      <trkpt lat="43.01379" lon="-0.85544">
        <ele>432.92</ele>
        <time>2023-12-21T21:37:17.497Z</time>
      </trkpt>
      <trkpt lat="43.01388" lon="-0.85551">
        <ele>432.11</ele>
        <time>2023-12-21T21:37:23.134Z</time>
      </trkpt>
      <trkpt lat="43.01434" lon="-0.85563">
        <ele>431.55</ele>
        <time>2023-12-21T21:37:28.780Z</time>
      </trkpt>
      <trkpt lat="43.01444" lon="-0.85567">
        <ele>430.74</ele>
        <time>2023-12-21T21:37:34.428Z</time>
      </trkpt>
      <trkpt lat="43.01533" lon="-0.85626">
        <ele>429.92</ele>
        <time>2023-12-21T21:37:40.094Z</time>
      </trkpt>
      <trkpt lat="43.0155" lon="-0.85642">
        <ele>428.97</ele>
        <time>2023-12-21T21:37:45.764Z</time>
      </trkpt>
      <trkpt lat="43.01564" lon="-0.85658">
        <ele>427.91</ele>
        <time>2023-12-21T21:37:51.437Z</time>
      </trkpt>
      <trkpt lat="43.01579" lon="-0.85683">
        <ele>426.82</ele>
        <time>2023-12-21T21:37:57.115Z</time>
      </trkpt>
      <trkpt lat="43.01598" lon="-0.85723">
        <ele>425.69</ele>
        <time>2023-12-21T21:38:02.799Z</time>
      </trkpt>
      <trkpt lat="43.01607" lon="-0.8575">
        <ele>424.38</ele>
        <time>2023-12-21T21:38:08.487Z</time>
      </trkpt>
      <trkpt lat="43.0162" lon="-0.85794">
        <ele>422.93</ele>
        <time>2023-12-21T21:38:14.182Z</time>
      </trkpt>
      <trkpt lat="43.01627" lon="-0.85854">
        <ele>421.5</ele>
        <time>2023-12-21T21:38:19.885Z</time>
      </trkpt>
      <trkpt lat="43.01639" lon="-0.85906">
        <ele>420.07</ele>
        <time>2023-12-21T21:38:25.595Z</time>
      </trkpt>
      <trkpt lat="43.01642" lon="-0.85933">
        <ele>418.55</ele>
        <time>2023-12-21T21:38:31.309Z</time>
      </trkpt>
      <trkpt lat="43.01642" lon="-0.85975">
        <ele>417.04</ele>
        <time>2023-12-21T21:38:37.029Z</time>
      </trkpt>
      <trkpt lat="43.01644" lon="-0.85996">
        <ele>415.72</ele>
        <time>2023-12-21T21:38:42.752Z</time>
      </trkpt>
      <trkpt lat="43.01649" lon="-0.86019">
        <ele>414.33</ele>
        <time>2023-12-21T21:38:48.478Z</time>
      </trkpt>
      <trkpt lat="43.01654" lon="-0.86036">
        <ele>412.93</ele>
        <time>2023-12-21T21:38:54.207Z</time>
      </trkpt>
      <trkpt lat="43.01663" lon="-0.86052">
        <ele>411.72</ele>
        <time>2023-12-21T21:38:59.938Z</time>
      </trkpt>
      <trkpt lat="43.01684" lon="-0.86079">
        <ele>410.5</ele>
        <time>2023-12-21T21:39:05.675Z</time>
      </trkpt>
      <trkpt lat="43.01695" lon="-0.86098">
        <ele>409.41</ele>
        <time>2023-12-21T21:39:11.415Z</time>
      </trkpt>
      <trkpt lat="43.0171" lon="-0.86129">
        <ele>408.23</ele>
        <time>2023-12-21T21:39:17.160Z</time>
      </trkpt>
      <trkpt lat="43.01726" lon="-0.86176">
        <ele>407.02</ele>
        <time>2023-12-21T21:39:22.912Z</time>
      </trkpt>
      <trkpt lat="43.01759" lon="-0.86246">
        <ele>405.8</ele>
        <time>2023-12-21T21:39:28.676Z</time>
      </trkpt>
      <trkpt lat="43.01777" lon="-0.86275">
        <ele>404.42</ele>
        <time>2023-12-21T21:39:34.445Z</time>
      </trkpt>
      <trkpt lat="43.01816" lon="-0.86328">
        <ele>402.66</ele>
        <time>2023-12-21T21:39:40.224Z</time>
      </trkpt>
      <trkpt lat="43.01842" lon="-0.86355">
        <ele>401.32</ele>
        <time>2023-12-21T21:39:46.009Z</time>
      </trkpt>
      <trkpt lat="43.0186" lon="-0.86369">
        <ele>400.09</ele>
        <time>2023-12-21T21:39:51.798Z</time>
      </trkpt>
      <trkpt lat="43.01882" lon="-0.86377">
        <ele>398.95</ele>
        <time>2023-12-21T21:39:57.591Z</time>
      </trkpt>
      <trkpt lat="43.01944" lon="-0.86383">
        <ele>397.49</ele>
        <time>2023-12-21T21:40:03.396Z</time>
      </trkpt>
      <trkpt lat="43.01959" lon="-0.86381">
        <ele>396.3</ele>
        <time>2023-12-21T21:40:09.204Z</time>
      </trkpt>
      <trkpt lat="43.01985" lon="-0.86373">
        <ele>394.97</ele>
        <time>2023-12-21T21:40:15.016Z</time>
      </trkpt>
      <trkpt lat="43.02014" lon="-0.86362">
        <ele>393.91</ele>
        <time>2023-12-21T21:40:20.834Z</time>
      </trkpt>
      <trkpt lat="43.0204" lon="-0.86346">
        <ele>392.9</ele>
        <time>2023-12-21T21:40:26.657Z</time>
      </trkpt>
      <trkpt lat="43.02068" lon="-0.86323">
        <ele>391.47</ele>
        <time>2023-12-21T21:40:32.486Z</time>
      </trkpt>
      <trkpt lat="43.02158" lon="-0.86237">
        <ele>390.36</ele>
        <time>2023-12-21T21:40:38.336Z</time>
      </trkpt>
      <trkpt lat="43.02166" lon="-0.86231">
        <ele>389.44</ele>
        <time>2023-12-21T21:40:44.188Z</time>
      </trkpt>
      <trkpt lat="43.02174" lon="-0.86229">
        <ele>388.51</ele>
        <time>2023-12-21T21:40:50.041Z</time>
      </trkpt>
      <trkpt lat="43.02186" lon="-0.8623">
        <ele>387.61</ele>
        <time>2023-12-21T21:40:55.896Z</time>
      </trkpt>
      <trkpt lat="43.02213" lon="-0.86235">
        <ele>386.86</ele>
        <time>2023-12-21T21:41:01.756Z</time>
      </trkpt>
      <trkpt lat="43.02224" lon="-0.86235">
        <ele>386.15</ele>
        <time>2023-12-21T21:41:07.618Z</time>
      </trkpt>
      <trkpt lat="43.02236" lon="-0.86231">
        <ele>385.54</ele>
        <time>2023-12-21T21:41:13.483Z</time>
      </trkpt>
      <trkpt lat="43.02276" lon="-0.86206">
        <ele>385.07</ele>
        <time>2023-12-21T21:41:19.356Z</time>
      </trkpt>
      <trkpt lat="43.02288" lon="-0.86203">
        <ele>384.49</ele>
        <time>2023-12-21T21:41:25.231Z</time>
      </trkpt>
      <trkpt lat="43.02311" lon="-0.86204">
        <ele>383.83</ele>
        <time>2023-12-21T21:41:31.111Z</time>
      </trkpt>
      <trkpt lat="43.02344" lon="-0.86217">
        <ele>383.08</ele>
        <time>2023-12-21T21:41:36.997Z</time>
      </trkpt>
      <trkpt lat="43.02355" lon="-0.86227">
        <ele>382.41</ele>
        <time>2023-12-21T21:41:42.885Z</time>
      </trkpt>
      <trkpt lat="43.02363" lon="-0.8624">
        <ele>381.73</ele>
        <time>2023-12-21T21:41:48.776Z</time>
      </trkpt>
      <trkpt lat="43.02381" lon="-0.86291">
        <ele>380.94</ele>
        <time>2023-12-21T21:41:54.674Z</time>
      </trkpt>
      <trkpt lat="43.0239" lon="-0.86304">
        <ele>380.32</ele>
        <time>2023-12-21T21:42:00.575Z</time>
      </trkpt>
      <trkpt lat="43.02423" lon="-0.86342">
        <ele>379.89</ele>
        <time>2023-12-21T21:42:06.484Z</time>
      </trkpt>
      <trkpt lat="43.02433" lon="-0.8636">
        <ele>379.31</ele>
        <time>2023-12-21T21:42:12.396Z</time>
      </trkpt>
      <trkpt lat="43.02477" lon="-0.86462">
        <ele>378.24</ele>
        <time>2023-12-21T21:42:18.324Z</time>
      </trkpt>
      <trkpt lat="43.02499" lon="-0.86498">
        <ele>377.77</ele>
        <time>2023-12-21T21:42:24.258Z</time>
      </trkpt>
      <trkpt lat="43.02517" lon="-0.86532">
        <ele>377.07</ele>
        <time>2023-12-21T21:42:30.198Z</time>
      </trkpt>
      <trkpt lat="43.02533" lon="-0.8657">
        <ele>376.3</ele>
        <time>2023-12-21T21:42:36.144Z</time>
      </trkpt>
      <trkpt lat="43.02559" lon="-0.86661">
        <ele>375.35</ele>
        <time>2023-12-21T21:42:42.104Z</time>
      </trkpt>
      <trkpt lat="43.02569" lon="-0.86684">
        <ele>374.53</ele>
        <time>2023-12-21T21:42:48.067Z</time>
      </trkpt>
      <trkpt lat="43.02586" lon="-0.86741">
        <ele>373.43</ele>
        <time>2023-12-21T21:42:54.039Z</time>
      </trkpt>
      <trkpt lat="43.02601" lon="-0.86766">
        <ele>372.35</ele>
        <time>2023-12-21T21:43:00.015Z</time>
      </trkpt>
      <trkpt lat="43.02629" lon="-0.86785">
        <ele>371.97</ele>
        <time>2023-12-21T21:43:05.997Z</time>
      </trkpt>
      <trkpt lat="43.02693" lon="-0.86857">
        <ele>370.59</ele>
        <time>2023-12-21T21:43:11.994Z</time>
      </trkpt>
      <trkpt lat="43.0271" lon="-0.86868">
        <ele>369.73</ele>
        <time>2023-12-21T21:43:17.995Z</time>
      </trkpt>
      <trkpt lat="43.02745" lon="-0.86875">
        <ele>369.14</ele>
        <time>2023-12-21T21:43:24.002Z</time>
      </trkpt>
      <trkpt lat="43.02756" lon="-0.86884">
        <ele>368.28</ele>
        <time>2023-12-21T21:43:30.012Z</time>
      </trkpt>
      <trkpt lat="43.02779" lon="-0.86907">
        <ele>367.19</ele>
        <time>2023-12-21T21:43:36.027Z</time>
      </trkpt>
      <trkpt lat="43.02805" lon="-0.86917">
        <ele>366.63</ele>
        <time>2023-12-21T21:43:42.047Z</time>
      </trkpt>
      <trkpt lat="43.02837" lon="-0.86937">
        <ele>366.12</ele>
        <time>2023-12-21T21:43:48.074Z</time>
      </trkpt>
      <trkpt lat="43.02914" lon="-0.87">
        <ele>364.77</ele>
        <time>2023-12-21T21:43:54.117Z</time>
      </trkpt>
      <trkpt lat="43.02923" lon="-0.87001">
        <ele>363.91</ele>
        <time>2023-12-21T21:44:00.162Z</time>
      </trkpt>
      <trkpt lat="43.02989" lon="-0.86986">
        <ele>363.32</ele>
        <time>2023-12-21T21:44:06.219Z</time>
      </trkpt>
      <trkpt lat="43.02996" lon="-0.86987">
        <ele>362.65</ele>
        <time>2023-12-21T21:44:12.278Z</time>
      </trkpt>
      <trkpt lat="43.03033" lon="-0.8703">
        <ele>361.79</ele>
        <time>2023-12-21T21:44:18.346Z</time>
      </trkpt>
      <trkpt lat="43.03068" lon="-0.87059">
        <ele>360.98</ele>
        <time>2023-12-21T21:44:24.421Z</time>
      </trkpt>
      <trkpt lat="43.03103" lon="-0.87103">
        <ele>359.75</ele>
        <time>2023-12-21T21:44:30.505Z</time>
      </trkpt>
      <trkpt lat="43.03129" lon="-0.87131">
        <ele>358.72</ele>
        <time>2023-12-21T21:44:36.595Z</time>
      </trkpt>
      <trkpt lat="43.03181" lon="-0.8718">
        <ele>357.99</ele>
        <time>2023-12-21T21:44:42.697Z</time>
      </trkpt>
      <trkpt lat="43.03206" lon="-0.8722">
        <ele>356.58</ele>
        <time>2023-12-21T21:44:48.806Z</time>
      </trkpt>
      <trkpt lat="43.03268" lon="-0.87282">
        <ele>355.65</ele>
        <time>2023-12-21T21:44:54.930Z</time>
      </trkpt>
      <trkpt lat="43.03275" lon="-0.87292">
        <ele>354.56</ele>
        <time>2023-12-21T21:45:01.056Z</time>
      </trkpt>
      <trkpt lat="43.03303" lon="-0.87362">
        <ele>353.34</ele>
        <time>2023-12-21T21:45:07.192Z</time>
      </trkpt>
      <trkpt lat="43.03315" lon="-0.87378">
        <ele>352.29</ele>
        <time>2023-12-21T21:45:13.332Z</time>
      </trkpt>
      <trkpt lat="43.03328" lon="-0.87388">
        <ele>351.09</ele>
        <time>2023-12-21T21:45:19.474Z</time>
      </trkpt>
      <trkpt lat="43.03372" lon="-0.87412">
        <ele>350.66</ele>
        <time>2023-12-21T21:45:25.625Z</time>
      </trkpt>
      <trkpt lat="43.03452" lon="-0.87481">
        <ele>348.92</ele>
        <time>2023-12-21T21:45:31.794Z</time>
      </trkpt>
      <trkpt lat="43.03488" lon="-0.87497">
        <ele>347.85</ele>
        <time>2023-12-21T21:45:37.970Z</time>
      </trkpt>
      <trkpt lat="43.03497" lon="-0.87504">
        <ele>346.75</ele>
        <time>2023-12-21T21:45:44.148Z</time>
      </trkpt>
      <trkpt lat="43.03504" lon="-0.87514">
        <ele>345.59</ele>
        <time>2023-12-21T21:45:50.328Z</time>
      </trkpt>
      <trkpt lat="43.03516" lon="-0.87547">
        <ele>344.23</ele>
        <time>2023-12-21T21:45:56.513Z</time>
      </trkpt>
      <trkpt lat="43.03554" lon="-0.87618">
        <ele>343.25</ele>
        <time>2023-12-21T21:46:02.710Z</time>
      </trkpt>
      <trkpt lat="43.03559" lon="-0.87625">
        <ele>342.37</ele>
        <time>2023-12-21T21:46:08.908Z</time>
      </trkpt>
      <trkpt lat="43.03569" lon="-0.87636">
        <ele>341.58</ele>
        <time>2023-12-21T21:46:15.108Z</time>
      </trkpt>
      <trkpt lat="43.03592" lon="-0.87668">
        <ele>341</ele>
        <time>2023-12-21T21:46:21.314Z</time>
      </trkpt>
      <trkpt lat="43.03599" lon="-0.87684">
        <ele>339.92</ele>
        <time>2023-12-21T21:46:27.523Z</time>
      </trkpt>
      <trkpt lat="43.03603" lon="-0.87706">
        <ele>338.38</ele>
        <time>2023-12-21T21:46:33.735Z</time>
      </trkpt>
      <trkpt lat="43.03605" lon="-0.8774">
        <ele>336.88</ele>
        <time>2023-12-21T21:46:39.952Z</time>
      </trkpt>
      <trkpt lat="43.03607" lon="-0.87752">
        <ele>336.2</ele>
        <time>2023-12-21T21:46:46.170Z</time>
      </trkpt>
      <trkpt lat="43.03613" lon="-0.87762">
        <ele>335.52</ele>
        <time>2023-12-21T21:46:52.390Z</time>
      </trkpt>
      <trkpt lat="43.03624" lon="-0.87771">
        <ele>335.24</ele>
        <time>2023-12-21T21:46:58.613Z</time>
      </trkpt>
      <trkpt lat="43.03636" lon="-0.87774">
        <ele>335.3</ele>
        <time>2023-12-21T21:47:04.838Z</time>
      </trkpt>
      <trkpt lat="43.03678" lon="-0.87776">
        <ele>335.43</ele>
        <time>2023-12-21T21:47:11.071Z</time>
      </trkpt>
      <trkpt lat="43.03701" lon="-0.87781">
        <ele>335.11</ele>
        <time>2023-12-21T21:47:17.308Z</time>
      </trkpt>
      <trkpt lat="43.03749" lon="-0.87795">
        <ele>334.53</ele>
        <time>2023-12-21T21:47:23.554Z</time>
      </trkpt>
      <trkpt lat="43.03836" lon="-0.87804">
        <ele>334.6</ele>
        <time>2023-12-21T21:47:29.816Z</time>
      </trkpt>
      <trkpt lat="43.03877" lon="-0.87809">
        <ele>334.93</ele>
        <time>2023-12-21T21:47:36.086Z</time>
      </trkpt>
      <trkpt lat="43.03925" lon="-0.87822">
        <ele>335.52</ele>
        <time>2023-12-21T21:47:42.365Z</time>
      </trkpt>
      <trkpt lat="43.03964" lon="-0.87869">
        <ele>335.31</ele>
        <time>2023-12-21T21:47:48.654Z</time>
      </trkpt>
      <trkpt lat="43.0403" lon="-0.87938">
        <ele>335.4</ele>
        <time>2023-12-21T21:47:54.958Z</time>
      </trkpt>
      <trkpt lat="43.04105" lon="-0.87996">
        <ele>335.01</ele>
        <time>2023-12-21T21:48:01.278Z</time>
      </trkpt>
      <trkpt lat="43.04134" lon="-0.88024">
        <ele>335.08</ele>
        <time>2023-12-21T21:48:07.605Z</time>
      </trkpt>
      <trkpt lat="43.04207" lon="-0.88126">
        <ele>334.53</ele>
        <time>2023-12-21T21:48:13.951Z</time>
      </trkpt>
      <trkpt lat="43.04233" lon="-0.88152">
        <ele>334.42</ele>
        <time>2023-12-21T21:48:20.303Z</time>
      </trkpt>
      <trkpt lat="43.04266" lon="-0.88181">
        <ele>334.03</ele>
        <time>2023-12-21T21:48:26.663Z</time>
      </trkpt>
      <trkpt lat="43.043" lon="-0.88198">
        <ele>333.78</ele>
        <time>2023-12-21T21:48:33.029Z</time>
      </trkpt>
      <trkpt lat="43.04323" lon="-0.88206">
        <ele>333.64</ele>
        <time>2023-12-21T21:48:39.400Z</time>
      </trkpt>
      <trkpt lat="43.04353" lon="-0.88226">
        <ele>333.05</ele>
        <time>2023-12-21T21:48:45.777Z</time>
      </trkpt>
      <trkpt lat="43.04353" lon="-0.88226">
        <ele>333.05</ele>
        <time>2023-12-21T21:48:52.154Z</time>
      </trkpt>
      <trkpt lat="43.04353" lon="-0.88226">
        <ele>333.05</ele>
        <time>2023-12-21T21:48:58.531Z</time>
      </trkpt>
      <trkpt lat="43.0441" lon="-0.88292">
        <ele>331.91</ele>
        <time>2023-12-21T21:49:04.922Z</time>
      </trkpt>
      <trkpt lat="43.04431" lon="-0.88304">
        <ele>331.13</ele>
        <time>2023-12-21T21:49:11.317Z</time>
      </trkpt>
      <trkpt lat="43.0445" lon="-0.88321">
        <ele>330.41</ele>
        <time>2023-12-21T21:49:17.716Z</time>
      </trkpt>
      <trkpt lat="43.0449" lon="-0.88369">
        <ele>329.43</ele>
        <time>2023-12-21T21:49:24.125Z</time>
      </trkpt>
      <trkpt lat="43.04544" lon="-0.88405">
        <ele>328.07</ele>
        <time>2023-12-21T21:49:30.546Z</time>
      </trkpt>
      <trkpt lat="43.0471" lon="-0.88487">
        <ele>326.77</ele>
        <time>2023-12-21T21:49:36.999Z</time>
      </trkpt>
      <trkpt lat="43.04748" lon="-0.88496">
        <ele>325.43</ele>
        <time>2023-12-21T21:49:43.460Z</time>
      </trkpt>
      <trkpt lat="43.04774" lon="-0.88497">
        <ele>324.04</ele>
        <time>2023-12-21T21:49:49.925Z</time>
      </trkpt>
      <trkpt lat="43.04782" lon="-0.88494">
        <ele>322.8</ele>
        <time>2023-12-21T21:49:56.392Z</time>
      </trkpt>
      <trkpt lat="43.04808" lon="-0.88476">
        <ele>321.63</ele>
        <time>2023-12-21T21:50:02.864Z</time>
      </trkpt>
      <trkpt lat="43.04884" lon="-0.88432">
        <ele>320.24</ele>
        <time>2023-12-21T21:50:09.352Z</time>
      </trkpt>
      <trkpt lat="43.04912" lon="-0.8841">
        <ele>319.08</ele>
        <time>2023-12-21T21:50:15.846Z</time>
      </trkpt>
      <trkpt lat="43.04938" lon="-0.88379">
        <ele>317.65</ele>
        <time>2023-12-21T21:50:22.346Z</time>
      </trkpt>
      <trkpt lat="43.04956" lon="-0.88355">
        <ele>315.99</ele>
        <time>2023-12-21T21:50:28.851Z</time>
      </trkpt>
      <trkpt lat="43.05002" lon="-0.88248">
        <ele>315.49</ele>
        <time>2023-12-21T21:50:35.373Z</time>
      </trkpt>
      <trkpt lat="43.0501" lon="-0.88235">
        <ele>314.28</ele>
        <time>2023-12-21T21:50:41.897Z</time>
      </trkpt>
      <trkpt lat="43.05014" lon="-0.88232">
        <ele>313.04</ele>
        <time>2023-12-21T21:50:48.422Z</time>
      </trkpt>
      <trkpt lat="43.05028" lon="-0.88211">
        <ele>311.94</ele>
        <time>2023-12-21T21:50:54.951Z</time>
      </trkpt>
      <trkpt lat="43.0504" lon="-0.88204">
        <ele>310.66</ele>
        <time>2023-12-21T21:51:01.482Z</time>
      </trkpt>
      <trkpt lat="43.05056" lon="-0.88188">
        <ele>309.62</ele>
        <time>2023-12-21T21:51:08.017Z</time>
      </trkpt>
      <trkpt lat="43.05072" lon="-0.8818">
        <ele>308.47</ele>
        <time>2023-12-21T21:51:14.555Z</time>
      </trkpt>
      <trkpt lat="43.05128" lon="-0.88163">
        <ele>306.89</ele>
        <time>2023-12-21T21:51:21.104Z</time>
      </trkpt>
      <trkpt lat="43.05159" lon="-0.88158">
        <ele>305.73</ele>
        <time>2023-12-21T21:51:27.659Z</time>
      </trkpt>
      <trkpt lat="43.05194" lon="-0.88155">
        <ele>304.46</ele>
        <time>2023-12-21T21:51:34.220Z</time>
      </trkpt>
      <trkpt lat="43.05289" lon="-0.88111">
        <ele>303.75</ele>
        <time>2023-12-21T21:51:40.800Z</time>
      </trkpt>
      <trkpt lat="43.05321" lon="-0.88102">
        <ele>302.83</ele>
        <time>2023-12-21T21:51:47.386Z</time>
      </trkpt>
      <trkpt lat="43.05356" lon="-0.881">
        <ele>302.13</ele>
        <time>2023-12-21T21:51:53.978Z</time>
      </trkpt>
      <trkpt lat="43.05398" lon="-0.88104">
        <ele>301.32</ele>
        <time>2023-12-21T21:52:00.578Z</time>
      </trkpt>
      <trkpt lat="43.0543" lon="-0.88098">
        <ele>300.66</ele>
        <time>2023-12-21T21:52:07.184Z</time>
      </trkpt>
      <trkpt lat="43.05449" lon="-0.88098">
        <ele>299.92</ele>
        <time>2023-12-21T21:52:13.794Z</time>
      </trkpt>
      <trkpt lat="43.05473" lon="-0.88103">
        <ele>298.93</ele>
        <time>2023-12-21T21:52:20.408Z</time>
      </trkpt>
      <trkpt lat="43.05514" lon="-0.88104">
        <ele>297.47</ele>
        <time>2023-12-21T21:52:27.030Z</time>
      </trkpt>
      <trkpt lat="43.0553" lon="-0.881">
        <ele>296.57</ele>
        <time>2023-12-21T21:52:33.655Z</time>
      </trkpt>
      <trkpt lat="43.05543" lon="-0.88094">
        <ele>295.82</ele>
        <time>2023-12-21T21:52:40.282Z</time>
      </trkpt>
      <trkpt lat="43.05579" lon="-0.88063">
        <ele>295.23</ele>
        <time>2023-12-21T21:52:46.917Z</time>
      </trkpt>
      <trkpt lat="43.05593" lon="-0.88042">
        <ele>294.65</ele>
        <time>2023-12-21T21:52:53.556Z</time>
      </trkpt>
      <trkpt lat="43.05626" lon="-0.87962">
        <ele>294.53</ele>
        <time>2023-12-21T21:53:00.208Z</time>
      </trkpt>
      <trkpt lat="43.0566" lon="-0.8791">
        <ele>294.26</ele>
        <time>2023-12-21T21:53:06.869Z</time>
      </trkpt>
      <trkpt lat="43.05694" lon="-0.87867">
        <ele>293.79</ele>
        <time>2023-12-21T21:53:13.539Z</time>
      </trkpt>
      <trkpt lat="43.05712" lon="-0.87849">
        <ele>293.35</ele>
        <time>2023-12-21T21:53:20.213Z</time>
      </trkpt>
      <trkpt lat="43.05737" lon="-0.87833">
        <ele>292.92</ele>
        <time>2023-12-21T21:53:26.892Z</time>
      </trkpt>
      <trkpt lat="43.05757" lon="-0.87828">
        <ele>292.57</ele>
        <time>2023-12-21T21:53:33.575Z</time>
      </trkpt>
      <trkpt lat="43.05786" lon="-0.87828">
        <ele>292.16</ele>
        <time>2023-12-21T21:53:40.263Z</time>
      </trkpt>
      <trkpt lat="43.05802" lon="-0.87822">
        <ele>291.71</ele>
        <time>2023-12-21T21:53:46.954Z</time>
      </trkpt>
      <trkpt lat="43.05853" lon="-0.87766">
        <ele>291.25</ele>
        <time>2023-12-21T21:53:53.658Z</time>
      </trkpt>
      <trkpt lat="43.0594" lon="-0.87677">
        <ele>291.08</ele>
        <time>2023-12-21T21:54:00.382Z</time>
      </trkpt>
      <trkpt lat="43.05959" lon="-0.8766">
        <ele>291.21</ele>
        <time>2023-12-21T21:54:07.110Z</time>
      </trkpt>
      <trkpt lat="43.05983" lon="-0.87657">
        <ele>291.11</ele>
        <time>2023-12-21T21:54:13.843Z</time>
      </trkpt>
      <trkpt lat="43.06033" lon="-0.87672">
        <ele>291.27</ele>
        <time>2023-12-21T21:54:20.585Z</time>
      </trkpt>
      <trkpt lat="43.06051" lon="-0.87682">
        <ele>291.11</ele>
        <time>2023-12-21T21:54:27.331Z</time>
      </trkpt>
      <trkpt lat="43.06084" lon="-0.87711">
        <ele>290.86</ele>
        <time>2023-12-21T21:54:34.084Z</time>
      </trkpt>
      <trkpt lat="43.06112" lon="-0.87729">
        <ele>290.76</ele>
        <time>2023-12-21T21:54:40.843Z</time>
      </trkpt>
      <trkpt lat="43.06136" lon="-0.87741">
        <ele>290.52</ele>
        <time>2023-12-21T21:54:47.606Z</time>
      </trkpt>
      <trkpt lat="43.06167" lon="-0.87744">
        <ele>290.26</ele>
        <time>2023-12-21T21:54:54.375Z</time>
      </trkpt>
      <trkpt lat="43.0621" lon="-0.87742">
        <ele>289.88</ele>
        <time>2023-12-21T21:55:01.152Z</time>
      </trkpt>
      <trkpt lat="43.06225" lon="-0.87739">
        <ele>289.47</ele>
        <time>2023-12-21T21:55:07.932Z</time>
      </trkpt>
      <trkpt lat="43.06243" lon="-0.87733">
        <ele>289.07</ele>
        <time>2023-12-21T21:55:14.716Z</time>
      </trkpt>
      <trkpt lat="43.06268" lon="-0.87716">
        <ele>288.64</ele>
        <time>2023-12-21T21:55:21.505Z</time>
      </trkpt>
      <trkpt lat="43.06304" lon="-0.87684">
        <ele>287.91</ele>
        <time>2023-12-21T21:55:28.302Z</time>
      </trkpt>
      <trkpt lat="43.06311" lon="-0.87667">
        <ele>287.51</ele>
        <time>2023-12-21T21:55:35.101Z</time>
      </trkpt>
      <trkpt lat="43.06316" lon="-0.87643">
        <ele>287.09</ele>
        <time>2023-12-21T21:55:41.904Z</time>
      </trkpt>
      <trkpt lat="43.06322" lon="-0.87628">
        <ele>286.61</ele>
        <time>2023-12-21T21:55:48.709Z</time>
      </trkpt>
      <trkpt lat="43.0633" lon="-0.8762">
        <ele>286.18</ele>
        <time>2023-12-21T21:55:55.516Z</time>
      </trkpt>
      <trkpt lat="43.06341" lon="-0.87616">
        <ele>285.74</ele>
        <time>2023-12-21T21:56:02.325Z</time>
      </trkpt>
      <trkpt lat="43.06355" lon="-0.87616">
        <ele>285.33</ele>
        <time>2023-12-21T21:56:09.137Z</time>
      </trkpt>
      <trkpt lat="43.06362" lon="-0.87619">
        <ele>284.86</ele>
        <time>2023-12-21T21:56:15.950Z</time>
      </trkpt>
      <trkpt lat="43.06367" lon="-0.87624">
        <ele>284.32</ele>
        <time>2023-12-21T21:56:22.764Z</time>
      </trkpt>
      <trkpt lat="43.06388" lon="-0.87654">
        <ele>283.72</ele>
        <time>2023-12-21T21:56:29.584Z</time>
      </trkpt>
      <trkpt lat="43.06404" lon="-0.8767">
        <ele>283.05</ele>
        <time>2023-12-21T21:56:36.408Z</time>
      </trkpt>
      <trkpt lat="43.06418" lon="-0.87669">
        <ele>282.41</ele>
        <time>2023-12-21T21:56:43.234Z</time>
      </trkpt>
      <trkpt lat="43.06433" lon="-0.8766">
        <ele>281.82</ele>
        <time>2023-12-21T21:56:50.063Z</time>
      </trkpt>
      <trkpt lat="43.06488" lon="-0.87616">
        <ele>281.5</ele>
        <time>2023-12-21T21:56:56.904Z</time>
      </trkpt>
      <trkpt lat="43.06509" lon="-0.87608">
        <ele>280.63</ele>
        <time>2023-12-21T21:57:03.749Z</time>
      </trkpt>
      <trkpt lat="43.06531" lon="-0.87606">
        <ele>279.46</ele>
        <time>2023-12-21T21:57:10.598Z</time>
      </trkpt>
      <trkpt lat="43.06591" lon="-0.87611">
        <ele>277.71</ele>
        <time>2023-12-21T21:57:17.458Z</time>
      </trkpt>
      <trkpt lat="43.06609" lon="-0.87615">
        <ele>276.65</ele>
        <time>2023-12-21T21:57:24.322Z</time>
      </trkpt>
      <trkpt lat="43.06652" lon="-0.87639">
        <ele>275.57</ele>
        <time>2023-12-21T21:57:31.194Z</time>
      </trkpt>
      <trkpt lat="43.06667" lon="-0.87643">
        <ele>274.61</ele>
        <time>2023-12-21T21:57:38.069Z</time>
      </trkpt>
      <trkpt lat="43.06706" lon="-0.87659">
        <ele>273.53</ele>
        <time>2023-12-21T21:57:44.952Z</time>
      </trkpt>
      <trkpt lat="43.06741" lon="-0.87657">
        <ele>272.54</ele>
        <time>2023-12-21T21:57:51.841Z</time>
      </trkpt>
      <trkpt lat="43.06771" lon="-0.87644">
        <ele>271.72</ele>
        <time>2023-12-21T21:57:58.736Z</time>
      </trkpt>
      <trkpt lat="43.06817" lon="-0.87632">
        <ele>270.94</ele>
        <time>2023-12-21T21:58:05.640Z</time>
      </trkpt>
      <trkpt lat="43.06859" lon="-0.87625">
        <ele>269.96</ele>
        <time>2023-12-21T21:58:12.552Z</time>
      </trkpt>
      <trkpt lat="43.0689" lon="-0.87615">
        <ele>269.08</ele>
        <time>2023-12-21T21:58:19.470Z</time>
      </trkpt>
      <trkpt lat="43.06921" lon="-0.87598">
        <ele>268.3</ele>
        <time>2023-12-21T21:58:26.394Z</time>
      </trkpt>
      <trkpt lat="43.06986" lon="-0.8755">
        <ele>267.7</ele>
        <time>2023-12-21T21:58:33.332Z</time>
      </trkpt>
      <trkpt lat="43.07006" lon="-0.87537">
        <ele>266.99</ele>
        <time>2023-12-21T21:58:40.274Z</time>
      </trkpt>
      <trkpt lat="43.07029" lon="-0.87532">
        <ele>266.24</ele>
        <time>2023-12-21T21:58:47.220Z</time>
      </trkpt>
      <trkpt lat="43.0705" lon="-0.87532">
        <ele>265.52</ele>
        <time>2023-12-21T21:58:54.170Z</time>
      </trkpt>
      <trkpt lat="43.07078" lon="-0.87541">
        <ele>265.1</ele>
        <time>2023-12-21T21:59:01.125Z</time>
      </trkpt>
      <trkpt lat="43.07094" lon="-0.87549">
        <ele>264.66</ele>
        <time>2023-12-21T21:59:08.084Z</time>
      </trkpt>
      <trkpt lat="43.07106" lon="-0.87561">
        <ele>264.05</ele>
        <time>2023-12-21T21:59:15.045Z</time>
      </trkpt>
      <trkpt lat="43.07131" lon="-0.87595">
        <ele>263.22</ele>
        <time>2023-12-21T21:59:22.013Z</time>
      </trkpt>
      <trkpt lat="43.07144" lon="-0.8761">
        <ele>262.64</ele>
        <time>2023-12-21T21:59:28.984Z</time>
      </trkpt>
      <trkpt lat="43.07155" lon="-0.87616">
        <ele>262.08</ele>
        <time>2023-12-21T21:59:35.957Z</time>
      </trkpt>
      <trkpt lat="43.07188" lon="-0.8762">
        <ele>261.51</ele>
        <time>2023-12-21T21:59:42.936Z</time>
      </trkpt>
      <trkpt lat="43.07227" lon="-0.87619">
        <ele>260.98</ele>
        <time>2023-12-21T21:59:49.923Z</time>
      </trkpt>
      <trkpt lat="43.07284" lon="-0.87597">
        <ele>260.05</ele>
        <time>2023-12-21T21:59:56.921Z</time>
      </trkpt>
      <trkpt lat="43.07313" lon="-0.8758">
        <ele>259.33</ele>
        <time>2023-12-21T22:00:03.925Z</time>
      </trkpt>
      <trkpt lat="43.07347" lon="-0.87542">
        <ele>258.6</ele>
        <time>2023-12-21T22:00:10.937Z</time>
      </trkpt>
      <trkpt lat="43.07387" lon="-0.87522">
        <ele>257.94</ele>
        <time>2023-12-21T22:00:17.957Z</time>
      </trkpt>
      <trkpt lat="43.07429" lon="-0.87506">
        <ele>257.31</ele>
        <time>2023-12-21T22:00:24.985Z</time>
      </trkpt>
      <trkpt lat="43.07465" lon="-0.87497">
        <ele>256.48</ele>
        <time>2023-12-21T22:00:32.020Z</time>
      </trkpt>
      <trkpt lat="43.07471" lon="-0.87493">
        <ele>255.81</ele>
        <time>2023-12-21T22:00:39.056Z</time>
      </trkpt>
      <trkpt lat="43.07487" lon="-0.87475">
        <ele>255.18</ele>
        <time>2023-12-21T22:00:46.096Z</time>
      </trkpt>
      <trkpt lat="43.07513" lon="-0.87434">
        <ele>254.59</ele>
        <time>2023-12-21T22:00:53.143Z</time>
      </trkpt>
      <trkpt lat="43.07593" lon="-0.87355">
        <ele>254.1</ele>
        <time>2023-12-21T22:01:00.209Z</time>
      </trkpt>
      <trkpt lat="43.07621" lon="-0.87321">
        <ele>253.63</ele>
        <time>2023-12-21T22:01:07.281Z</time>
      </trkpt>
      <trkpt lat="43.07641" lon="-0.87351">
        <ele>252.33</ele>
        <time>2023-12-21T22:01:14.359Z</time>
      </trkpt>
      <trkpt lat="43.07648" lon="-0.87361">
        <ele>251.65</ele>
        <time>2023-12-21T22:01:21.439Z</time>
      </trkpt>
      <trkpt lat="43.07658" lon="-0.87367">
        <ele>251.03</ele>
        <time>2023-12-21T22:01:28.521Z</time>
      </trkpt>
      <trkpt lat="43.07713" lon="-0.87365">
        <ele>250.39</ele>
        <time>2023-12-21T22:01:35.613Z</time>
      </trkpt>
      <trkpt lat="43.07726" lon="-0.8737">
        <ele>249.92</ele>
        <time>2023-12-21T22:01:42.708Z</time>
      </trkpt>
      <trkpt lat="43.07839" lon="-0.87459">
        <ele>249.54</ele>
        <time>2023-12-21T22:01:49.827Z</time>
      </trkpt>
      <trkpt lat="43.07915" lon="-0.87472">
        <ele>249.09</ele>
        <time>2023-12-21T22:01:56.960Z</time>
      </trkpt>
      <trkpt lat="43.07978" lon="-0.87503">
        <ele>248.68</ele>
        <time>2023-12-21T22:02:04.106Z</time>
      </trkpt>
      <trkpt lat="43.07992" lon="-0.87522">
        <ele>248.49</ele>
        <time>2023-12-21T22:02:11.255Z</time>
      </trkpt>
      <trkpt lat="43.08013" lon="-0.87529">
        <ele>248.34</ele>
        <time>2023-12-21T22:02:18.408Z</time>
      </trkpt>
      <trkpt lat="43.08032" lon="-0.8756">
        <ele>248.37</ele>
        <time>2023-12-21T22:02:25.567Z</time>
      </trkpt>
      <trkpt lat="43.08064" lon="-0.87532">
        <ele>248.38</ele>
        <time>2023-12-21T22:02:32.733Z</time>
      </trkpt>
      <trkpt lat="43.08122" lon="-0.87507">
        <ele>248.35</ele>
        <time>2023-12-21T22:02:39.910Z</time>
      </trkpt>
      <trkpt lat="43.0815" lon="-0.87485">
        <ele>248.4</ele>
        <time>2023-12-21T22:02:47.093Z</time>
      </trkpt>
      <trkpt lat="43.08183" lon="-0.8747">
        <ele>248.6</ele>
        <time>2023-12-21T22:02:54.283Z</time>
      </trkpt>
      <trkpt lat="43.08242" lon="-0.8742">
        <ele>248.97</ele>
        <time>2023-12-21T22:03:01.486Z</time>
      </trkpt>
      <trkpt lat="43.08254" lon="-0.87408">
        <ele>249.33</ele>
        <time>2023-12-21T22:03:08.691Z</time>
      </trkpt>
      <trkpt lat="43.08271" lon="-0.87383">
        <ele>249.73</ele>
        <time>2023-12-21T22:03:15.901Z</time>
      </trkpt>
      <trkpt lat="43.08278" lon="-0.87367">
        <ele>250.14</ele>
        <time>2023-12-21T22:03:23.114Z</time>
      </trkpt>
      <trkpt lat="43.08281" lon="-0.87353">
        <ele>250.59</ele>
        <time>2023-12-21T22:03:30.329Z</time>
      </trkpt>
      <trkpt lat="43.08283" lon="-0.8732">
        <ele>251.03</ele>
        <time>2023-12-21T22:03:37.548Z</time>
      </trkpt>
      <trkpt lat="43.08289" lon="-0.87301">
        <ele>251.6</ele>
        <time>2023-12-21T22:03:44.770Z</time>
      </trkpt>
      <trkpt lat="43.08301" lon="-0.87277">
        <ele>252.22</ele>
        <time>2023-12-21T22:03:51.996Z</time>
      </trkpt>
      <trkpt lat="43.08309" lon="-0.87267">
        <ele>252.94</ele>
        <time>2023-12-21T22:03:59.224Z</time>
      </trkpt>
      <trkpt lat="43.08321" lon="-0.87262">
        <ele>253.74</ele>
        <time>2023-12-21T22:04:06.454Z</time>
      </trkpt>
      <trkpt lat="43.08333" lon="-0.87261">
        <ele>254.63</ele>
        <time>2023-12-21T22:04:13.687Z</time>
      </trkpt>
      <trkpt lat="43.08366" lon="-0.87268">
        <ele>255.72</ele>
        <time>2023-12-21T22:04:20.926Z</time>
      </trkpt>
      <trkpt lat="43.08384" lon="-0.87269">
        <ele>256.75</ele>
        <time>2023-12-21T22:04:28.168Z</time>
      </trkpt>
      <trkpt lat="43.08468" lon="-0.87252">
        <ele>257.69</ele>
        <time>2023-12-21T22:04:35.426Z</time>
      </trkpt>
      <trkpt lat="43.08538" lon="-0.87245">
        <ele>258.9</ele>
        <time>2023-12-21T22:04:42.697Z</time>
      </trkpt>
      <trkpt lat="43.08552" lon="-0.87242">
        <ele>259.94</ele>
        <time>2023-12-21T22:04:49.971Z</time>
      </trkpt>
      <trkpt lat="43.08586" lon="-0.87228">
        <ele>260.93</ele>
        <time>2023-12-21T22:04:57.251Z</time>
      </trkpt>
      <trkpt lat="43.08628" lon="-0.87208">
        <ele>261.77</ele>
        <time>2023-12-21T22:05:04.539Z</time>
      </trkpt>
      <trkpt lat="43.08684" lon="-0.87187">
        <ele>262.97</ele>
        <time>2023-12-21T22:05:11.838Z</time>
      </trkpt>
      <trkpt lat="43.0876" lon="-0.87163">
        <ele>264.04</ele>
        <time>2023-12-21T22:05:19.152Z</time>
      </trkpt>
      <trkpt lat="43.08792" lon="-0.8716">
        <ele>264.96</ele>
        <time>2023-12-21T22:05:26.472Z</time>
      </trkpt>
      <trkpt lat="43.08825" lon="-0.87163">
        <ele>265.79</ele>
        <time>2023-12-21T22:05:33.798Z</time>
      </trkpt>
      <trkpt lat="43.08847" lon="-0.87169">
        <ele>266.55</ele>
        <time>2023-12-21T22:05:41.128Z</time>
      </trkpt>
      <trkpt lat="43.0892" lon="-0.87207">
        <ele>267.6</ele>
        <time>2023-12-21T22:05:48.473Z</time>
      </trkpt>
      <trkpt lat="43.08946" lon="-0.87224">
        <ele>268.34</ele>
        <time>2023-12-21T22:05:55.823Z</time>
      </trkpt>
      <trkpt lat="43.09016" lon="-0.87281">
        <ele>269.05</ele>
        <time>2023-12-21T22:06:03.188Z</time>
      </trkpt>
      <trkpt lat="43.09143" lon="-0.87369">
        <ele>269.74</ele>
        <time>2023-12-21T22:06:10.580Z</time>
      </trkpt>
      <trkpt lat="43.09152" lon="-0.87377">
        <ele>270.08</ele>
        <time>2023-12-21T22:06:17.974Z</time>
      </trkpt>
      <trkpt lat="43.09161" lon="-0.8739">
        <ele>270.22</ele>
        <time>2023-12-21T22:06:25.370Z</time>
      </trkpt>
      <trkpt lat="43.09164" lon="-0.87398">
        <ele>270.3</ele>
        <time>2023-12-21T22:06:32.767Z</time>
      </trkpt>
      <trkpt lat="43.09163" lon="-0.87407">
        <ele>270.28</ele>
        <time>2023-12-21T22:06:40.166Z</time>
      </trkpt>
      <trkpt lat="43.09148" lon="-0.87453">
        <ele>270.2</ele>
        <time>2023-12-21T22:06:47.571Z</time>
      </trkpt>
      <trkpt lat="43.09149" lon="-0.87461">
        <ele>269.93</ele>
        <time>2023-12-21T22:06:54.977Z</time>
      </trkpt>
      <trkpt lat="43.0916" lon="-0.87474">
        <ele>269.34</ele>
        <time>2023-12-21T22:07:02.386Z</time>
      </trkpt>
      <trkpt lat="43.09174" lon="-0.87438">
        <ele>268.92</ele>
        <time>2023-12-21T22:07:09.801Z</time>
      </trkpt>
      <trkpt lat="43.09189" lon="-0.87391">
        <ele>268.43</ele>
        <time>2023-12-21T22:07:17.223Z</time>
      </trkpt>
      <trkpt lat="43.09193" lon="-0.87381">
        <ele>267.78</ele>
        <time>2023-12-21T22:07:24.646Z</time>
      </trkpt>
      <trkpt lat="43.09203" lon="-0.87369">
        <ele>266.99</ele>
        <time>2023-12-21T22:07:32.072Z</time>
      </trkpt>
      <trkpt lat="43.09212" lon="-0.87361">
        <ele>266.08</ele>
        <time>2023-12-21T22:07:39.500Z</time>
      </trkpt>
      <trkpt lat="43.09243" lon="-0.87342">
        <ele>264.9</ele>
        <time>2023-12-21T22:07:46.934Z</time>
      </trkpt>
      <trkpt lat="43.09261" lon="-0.87315">
        <ele>263.77</ele>
        <time>2023-12-21T22:07:54.373Z</time>
      </trkpt>
      <trkpt lat="43.09274" lon="-0.87312">
        <ele>262.7</ele>
        <time>2023-12-21T22:08:01.815Z</time>
      </trkpt>
      <trkpt lat="43.09285" lon="-0.87315">
        <ele>261.58</ele>
        <time>2023-12-21T22:08:09.259Z</time>
      </trkpt>
      <trkpt lat="43.09293" lon="-0.87321">
        <ele>260.44</ele>
        <time>2023-12-21T22:08:16.704Z</time>
      </trkpt>
      <trkpt lat="43.09315" lon="-0.87335">
        <ele>259.19</ele>
        <time>2023-12-21T22:08:24.154Z</time>
      </trkpt>
      <trkpt lat="43.09325" lon="-0.87339">
        <ele>257.96</ele>
        <time>2023-12-21T22:08:31.606Z</time>
      </trkpt>
      <trkpt lat="43.09337" lon="-0.87339">
        <ele>256.74</ele>
        <time>2023-12-21T22:08:39.060Z</time>
      </trkpt>
      <trkpt lat="43.09348" lon="-0.87336">
        <ele>255.51</ele>
        <time>2023-12-21T22:08:46.516Z</time>
      </trkpt>
      <trkpt lat="43.09372" lon="-0.87322">
        <ele>254.29</ele>
        <time>2023-12-21T22:08:53.977Z</time>
      </trkpt>
      <trkpt lat="43.09401" lon="-0.87294">
        <ele>253.06</ele>
        <time>2023-12-21T22:09:01.445Z</time>
      </trkpt>
      <trkpt lat="43.09412" lon="-0.87278">
        <ele>251.85</ele>
        <time>2023-12-21T22:09:08.916Z</time>
      </trkpt>
      <trkpt lat="43.09423" lon="-0.87248">
        <ele>250.66</ele>
        <time>2023-12-21T22:09:16.391Z</time>
      </trkpt>
      <trkpt lat="43.09428" lon="-0.87223">
        <ele>249.45</ele>
        <time>2023-12-21T22:09:23.870Z</time>
      </trkpt>
      <trkpt lat="43.09431" lon="-0.87211">
        <ele>248.25</ele>
        <time>2023-12-21T22:09:31.350Z</time>
      </trkpt>
      <trkpt lat="43.0944" lon="-0.87186">
        <ele>247.09</ele>
        <time>2023-12-21T22:09:38.834Z</time>
      </trkpt>
      <trkpt lat="43.0945" lon="-0.87175">
        <ele>245.96</ele>
        <time>2023-12-21T22:09:46.321Z</time>
      </trkpt>
      <trkpt lat="43.09495" lon="-0.87144">
        <ele>244.65</ele>
        <time>2023-12-21T22:09:53.817Z</time>
      </trkpt>
      <trkpt lat="43.09564" lon="-0.87088">
        <ele>243.38</ele>
        <time>2023-12-21T22:10:01.328Z</time>
      </trkpt>
      <trkpt lat="43.09593" lon="-0.87059">
        <ele>242.28</ele>
        <time>2023-12-21T22:10:08.846Z</time>
      </trkpt>
      <trkpt lat="43.09607" lon="-0.87041">
        <ele>241.19</ele>
        <time>2023-12-21T22:10:16.367Z</time>
      </trkpt>
      <trkpt lat="43.0964" lon="-0.86991">
        <ele>240.09</ele>
        <time>2023-12-21T22:10:23.897Z</time>
      </trkpt>
      <trkpt lat="43.09677" lon="-0.86924">
        <ele>238.89</ele>
        <time>2023-12-21T22:10:31.439Z</time>
      </trkpt>
      <trkpt lat="43.09695" lon="-0.86908">
        <ele>237.84</ele>
        <time>2023-12-21T22:10:38.985Z</time>
      </trkpt>
      <trkpt lat="43.09808" lon="-0.86871">
        <ele>237.02</ele>
        <time>2023-12-21T22:10:46.552Z</time>
      </trkpt>
      <trkpt lat="43.09832" lon="-0.86861">
        <ele>236.08</ele>
        <time>2023-12-21T22:10:54.124Z</time>
      </trkpt>
      <trkpt lat="43.09987" lon="-0.86759">
        <ele>235.02</ele>
        <time>2023-12-21T22:11:01.728Z</time>
      </trkpt>
      <trkpt lat="43.10017" lon="-0.86731">
        <ele>234.12</ele>
        <time>2023-12-21T22:11:09.339Z</time>
      </trkpt>
      <trkpt lat="43.10114" lon="-0.86685">
        <ele>233</ele>
        <time>2023-12-21T22:11:16.969Z</time>
      </trkpt>
      <trkpt lat="43.10163" lon="-0.86647">
        <ele>231.99</ele>
        <time>2023-12-21T22:11:24.609Z</time>
      </trkpt>
      <trkpt lat="43.10182" lon="-0.86636">
        <ele>231.18</ele>
        <time>2023-12-21T22:11:32.253Z</time>
      </trkpt>
      <trkpt lat="43.10209" lon="-0.86627">
        <ele>230.44</ele>
        <time>2023-12-21T22:11:39.902Z</time>
      </trkpt>
      <trkpt lat="43.10268" lon="-0.86618">
        <ele>229.68</ele>
        <time>2023-12-21T22:11:47.562Z</time>
      </trkpt>
      <trkpt lat="43.10347" lon="-0.86595">
        <ele>229</ele>
        <time>2023-12-21T22:11:55.237Z</time>
      </trkpt>
      <trkpt lat="43.10377" lon="-0.86583">
        <ele>228.37</ele>
        <time>2023-12-21T22:12:02.918Z</time>
      </trkpt>
      <trkpt lat="43.10466" lon="-0.86537">
        <ele>227.84</ele>
        <time>2023-12-21T22:12:10.617Z</time>
      </trkpt>
      <trkpt lat="43.10521" lon="-0.86524">
        <ele>227.31</ele>
        <time>2023-12-21T22:12:18.326Z</time>
      </trkpt>
      <trkpt lat="43.10534" lon="-0.86518">
        <ele>226.78</ele>
        <time>2023-12-21T22:12:26.038Z</time>
      </trkpt>
      <trkpt lat="43.10579" lon="-0.86476">
        <ele>226.23</ele>
        <time>2023-12-21T22:12:33.760Z</time>
      </trkpt>
      <trkpt lat="43.10624" lon="-0.86439">
        <ele>225.75</ele>
        <time>2023-12-21T22:12:41.492Z</time>
      </trkpt>
      <trkpt lat="43.10637" lon="-0.86413">
        <ele>225.33</ele>
        <time>2023-12-21T22:12:49.228Z</time>
      </trkpt>
      <trkpt lat="43.10644" lon="-0.86404">
        <ele>224.96</ele>
        <time>2023-12-21T22:12:56.966Z</time>
      </trkpt>
      <trkpt lat="43.10663" lon="-0.86388">
        <ele>224.62</ele>
        <time>2023-12-21T22:13:04.708Z</time>
      </trkpt>
      <trkpt lat="43.10678" lon="-0.86382">
        <ele>224.34</ele>
        <time>2023-12-21T22:13:12.453Z</time>
      </trkpt>
      <trkpt lat="43.10689" lon="-0.86381">
        <ele>224.11</ele>
        <time>2023-12-21T22:13:20.200Z</time>
      </trkpt>
      <trkpt lat="43.10713" lon="-0.86386">
        <ele>223.97</ele>
        <time>2023-12-21T22:13:27.952Z</time>
      </trkpt>
      <trkpt lat="43.10763" lon="-0.86401">
        <ele>223.98</ele>
        <time>2023-12-21T22:13:35.713Z</time>
      </trkpt>
      <trkpt lat="43.10781" lon="-0.86402">
        <ele>223.86</ele>
        <time>2023-12-21T22:13:43.477Z</time>
      </trkpt>
      <trkpt lat="43.10835" lon="-0.86397">
        <ele>223.57</ele>
        <time>2023-12-21T22:13:51.251Z</time>
      </trkpt>
      <trkpt lat="43.10844" lon="-0.86401">
        <ele>223.55</ele>
        <time>2023-12-21T22:13:59.027Z</time>
      </trkpt>
      <trkpt lat="43.10879" lon="-0.86422">
        <ele>223.55</ele>
        <time>2023-12-21T22:14:06.810Z</time>
      </trkpt>
      <trkpt lat="43.10916" lon="-0.86435">
        <ele>223.65</ele>
        <time>2023-12-21T22:14:14.600Z</time>
      </trkpt>
      <trkpt lat="43.10946" lon="-0.86449">
        <ele>223.89</ele>
        <time>2023-12-21T22:14:22.396Z</time>
      </trkpt>
      <trkpt lat="43.10981" lon="-0.86453">
        <ele>224.15</ele>
        <time>2023-12-21T22:14:30.199Z</time>
      </trkpt>
      <trkpt lat="43.10992" lon="-0.86452">
        <ele>224.41</ele>
        <time>2023-12-21T22:14:38.004Z</time>
      </trkpt>
      <trkpt lat="43.11035" lon="-0.86444">
        <ele>224.77</ele>
        <time>2023-12-21T22:14:45.817Z</time>
      </trkpt>
      <trkpt lat="43.11089" lon="-0.86421">
        <ele>225.14</ele>
        <time>2023-12-21T22:14:53.641Z</time>
      </trkpt>
      <trkpt lat="43.11115" lon="-0.86397">
        <ele>225.44</ele>
        <time>2023-12-21T22:15:01.470Z</time>
      </trkpt>
      <trkpt lat="43.11148" lon="-0.8636">
        <ele>225.89</ele>
        <time>2023-12-21T22:15:09.307Z</time>
      </trkpt>
      <trkpt lat="43.11157" lon="-0.86338">
        <ele>226.45</ele>
        <time>2023-12-21T22:15:17.148Z</time>
      </trkpt>
      <trkpt lat="43.11175" lon="-0.86262">
        <ele>227.22</ele>
        <time>2023-12-21T22:15:25.000Z</time>
      </trkpt>
      <trkpt lat="43.11184" lon="-0.86214">
        <ele>227.83</ele>
        <time>2023-12-21T22:15:32.858Z</time>
      </trkpt>
      <trkpt lat="43.112" lon="-0.86108">
        <ele>228.36</ele>
        <time>2023-12-21T22:15:40.731Z</time>
      </trkpt>
      <trkpt lat="43.11209" lon="-0.86048">
        <ele>229.64</ele>
        <time>2023-12-21T22:15:48.612Z</time>
      </trkpt>
      <trkpt lat="43.11195" lon="-0.86044">
        <ele>230.31</ele>
        <time>2023-12-21T22:15:56.496Z</time>
      </trkpt>
      <trkpt lat="43.11166" lon="-0.86029">
        <ele>231.15</ele>
        <time>2023-12-21T22:16:04.386Z</time>
      </trkpt>
      <trkpt lat="43.11108" lon="-0.86007">
        <ele>232.06</ele>
        <time>2023-12-21T22:16:12.287Z</time>
      </trkpt>
      <trkpt lat="43.11068" lon="-0.86009">
        <ele>232.82</ele>
        <time>2023-12-21T22:16:20.196Z</time>
      </trkpt>
      <trkpt lat="43.11015" lon="-0.86005">
        <ele>233.68</ele>
        <time>2023-12-21T22:16:28.114Z</time>
      </trkpt>
      <trkpt lat="43.11" lon="-0.86001">
        <ele>234.68</ele>
        <time>2023-12-21T22:16:36.035Z</time>
      </trkpt>
      <trkpt lat="43.10933" lon="-0.85968">
        <ele>235.42</ele>
        <time>2023-12-21T22:16:43.970Z</time>
      </trkpt>
      <trkpt lat="43.10906" lon="-0.85946">
        <ele>236.38</ele>
        <time>2023-12-21T22:16:51.910Z</time>
      </trkpt>
      <trkpt lat="43.10841" lon="-0.85885">
        <ele>237.4</ele>
        <time>2023-12-21T22:16:59.865Z</time>
      </trkpt>
      <trkpt lat="43.10826" lon="-0.85868">
        <ele>238.34</ele>
        <time>2023-12-21T22:17:07.824Z</time>
      </trkpt>
      <trkpt lat="43.10809" lon="-0.85845">
        <ele>239.35</ele>
        <time>2023-12-21T22:17:15.787Z</time>
      </trkpt>
      <trkpt lat="43.10787" lon="-0.85804">
        <ele>240.43</ele>
        <time>2023-12-21T22:17:23.757Z</time>
      </trkpt>
      <trkpt lat="43.1077" lon="-0.85778">
        <ele>241.19</ele>
        <time>2023-12-21T22:17:31.732Z</time>
      </trkpt>
      <trkpt lat="43.10746" lon="-0.85747">
        <ele>241.94</ele>
        <time>2023-12-21T22:17:39.713Z</time>
      </trkpt>
      <trkpt lat="43.10733" lon="-0.85737">
        <ele>242.58</ele>
        <time>2023-12-21T22:17:47.697Z</time>
      </trkpt>
      <trkpt lat="43.10733" lon="-0.85737">
        <ele>242.59</ele>
        <time>2023-12-21T22:17:55.681Z</time>
      </trkpt>
      <trkpt lat="43.10733" lon="-0.85737">
        <ele>242.6</ele>
        <time>2023-12-21T22:18:03.665Z</time>
      </trkpt>
      <trkpt lat="43.10704" lon="-0.85719">
        <ele>243.28</ele>
        <time>2023-12-21T22:18:11.655Z</time>
      </trkpt>
      <trkpt lat="43.1065" lon="-0.85701">
        <ele>243.5</ele>
        <time>2023-12-21T22:18:19.655Z</time>
      </trkpt>
      <trkpt lat="43.10643" lon="-0.85697">
        <ele>243.97</ele>
        <time>2023-12-21T22:18:27.656Z</time>
      </trkpt>
      <trkpt lat="43.10631" lon="-0.85689">
        <ele>244.29</ele>
        <time>2023-12-21T22:18:35.660Z</time>
      </trkpt>
      <trkpt lat="43.10621" lon="-0.85679">
        <ele>244.59</ele>
        <time>2023-12-21T22:18:43.666Z</time>
      </trkpt>
      <trkpt lat="43.10614" lon="-0.85668">
        <ele>244.92</ele>
        <time>2023-12-21T22:18:51.674Z</time>
      </trkpt>
      <trkpt lat="43.10595" lon="-0.8563">
        <ele>245.24</ele>
        <time>2023-12-21T22:18:59.688Z</time>
      </trkpt>
      <trkpt lat="43.1056" lon="-0.8554">
        <ele>245.79</ele>
        <time>2023-12-21T22:19:07.716Z</time>
      </trkpt>
      <trkpt lat="43.10512" lon="-0.85457">
        <ele>245.99</ele>
        <time>2023-12-21T22:19:15.759Z</time>
      </trkpt>
      <trkpt lat="43.10455" lon="-0.85364">
        <ele>246.05</ele>
        <time>2023-12-21T22:19:23.818Z</time>
      </trkpt>
      <trkpt lat="43.10433" lon="-0.85333">
        <ele>246.06</ele>
        <time>2023-12-21T22:19:31.883Z</time>
      </trkpt>
      <trkpt lat="43.10416" lon="-0.85311">
        <ele>246.01</ele>
        <time>2023-12-21T22:19:39.953Z</time>
      </trkpt>
      <trkpt lat="43.10359" lon="-0.85247">
        <ele>245.89</ele>
        <time>2023-12-21T22:19:48.036Z</time>
      </trkpt>
      <trkpt lat="43.10348" lon="-0.85236">
        <ele>245.89</ele>
        <time>2023-12-21T22:19:56.122Z</time>
      </trkpt>
      <trkpt lat="43.10257" lon="-0.85137">
        <ele>246.21</ele>
        <time>2023-12-21T22:20:04.229Z</time>
      </trkpt>
      <trkpt lat="43.10236" lon="-0.85109">
        <ele>245.99</ele>
        <time>2023-12-21T22:20:12.342Z</time>
      </trkpt>
      <trkpt lat="43.10224" lon="-0.85089">
        <ele>245.85</ele>
        <time>2023-12-21T22:20:20.458Z</time>
      </trkpt>
      <trkpt lat="43.10205" lon="-0.85051">
        <ele>245.75</ele>
        <time>2023-12-21T22:20:28.581Z</time>
      </trkpt>
      <trkpt lat="43.10195" lon="-0.85022">
        <ele>245.76</ele>
        <time>2023-12-21T22:20:36.708Z</time>
      </trkpt>
      <trkpt lat="43.10188" lon="-0.84977">
        <ele>245.75</ele>
        <time>2023-12-21T22:20:44.841Z</time>
      </trkpt>
      <trkpt lat="43.10168" lon="-0.84834">
        <ele>245.77</ele>
        <time>2023-12-21T22:20:52.994Z</time>
      </trkpt>
      <trkpt lat="43.10138" lon="-0.84584">
        <ele>245.86</ele>
        <time>2023-12-21T22:21:01.182Z</time>
      </trkpt>
      <trkpt lat="43.10135" lon="-0.84521">
        <ele>246.17</ele>
        <time>2023-12-21T22:21:09.378Z</time>
      </trkpt>
      <trkpt lat="43.10138" lon="-0.84326">
        <ele>246.37</ele>
        <time>2023-12-21T22:21:17.601Z</time>
      </trkpt>
      <trkpt lat="43.10136" lon="-0.84289">
        <ele>246.62</ele>
        <time>2023-12-21T22:21:25.829Z</time>
      </trkpt>
      <trkpt lat="43.10113" lon="-0.84165">
        <ele>247.04</ele>
        <time>2023-12-21T22:21:34.074Z</time>
      </trkpt>
      <trkpt lat="43.10105" lon="-0.84095">
        <ele>247.68</ele>
        <time>2023-12-21T22:21:42.329Z</time>
      </trkpt>
      <trkpt lat="43.10107" lon="-0.8406">
        <ele>248.23</ele>
        <time>2023-12-21T22:21:50.589Z</time>
      </trkpt>
      <trkpt lat="43.10113" lon="-0.84006">
        <ele>248.71</ele>
        <time>2023-12-21T22:21:58.856Z</time>
      </trkpt>
      <trkpt lat="43.10124" lon="-0.83951">
        <ele>249.3</ele>
        <time>2023-12-21T22:22:07.131Z</time>
      </trkpt>
      <trkpt lat="43.10128" lon="-0.83905">
        <ele>249.78</ele>
        <time>2023-12-21T22:22:15.412Z</time>
      </trkpt>
      <trkpt lat="43.10128" lon="-0.83864">
        <ele>250.19</ele>
        <time>2023-12-21T22:22:23.699Z</time>
      </trkpt>
      <trkpt lat="43.10079" lon="-0.83401">
        <ele>251.03</ele>
        <time>2023-12-21T22:22:32.050Z</time>
      </trkpt>
      <trkpt lat="43.10053" lon="-0.83186">
        <ele>251.56</ele>
        <time>2023-12-21T22:22:40.430Z</time>
      </trkpt>
      <trkpt lat="43.10044" lon="-0.83139">
        <ele>252.19</ele>
        <time>2023-12-21T22:22:48.817Z</time>
      </trkpt>
      <trkpt lat="43.09995" lon="-0.82875">
        <ele>252.66</ele>
        <time>2023-12-21T22:22:57.241Z</time>
      </trkpt>
      <trkpt lat="43.09984" lon="-0.82801">
        <ele>253.55</ele>
        <time>2023-12-21T22:23:05.675Z</time>
      </trkpt>
      <trkpt lat="43.09988" lon="-0.82758">
        <ele>254.46</ele>
        <time>2023-12-21T22:23:14.115Z</time>
      </trkpt>
      <trkpt lat="43.09998" lon="-0.82724">
        <ele>255.36</ele>
        <time>2023-12-21T22:23:22.560Z</time>
      </trkpt>
      <trkpt lat="43.10021" lon="-0.82666">
        <ele>256.21</ele>
        <time>2023-12-21T22:23:31.014Z</time>
      </trkpt>
      <trkpt lat="43.10027" lon="-0.82638">
        <ele>257.02</ele>
        <time>2023-12-21T22:23:39.472Z</time>
      </trkpt>
      <trkpt lat="43.10028" lon="-0.82598">
        <ele>257.83</ele>
        <time>2023-12-21T22:23:47.936Z</time>
      </trkpt>
      <trkpt lat="43.10023" lon="-0.82569">
        <ele>258.6</ele>
        <time>2023-12-21T22:23:56.404Z</time>
      </trkpt>
      <trkpt lat="43.10015" lon="-0.82539">
        <ele>259.29</ele>
        <time>2023-12-21T22:24:04.876Z</time>
      </trkpt>
      <trkpt lat="43.09981" lon="-0.82466">
        <ele>260.14</ele>
        <time>2023-12-21T22:24:13.360Z</time>
      </trkpt>
      <trkpt lat="43.09965" lon="-0.82424">
        <ele>261.02</ele>
        <time>2023-12-21T22:24:21.850Z</time>
      </trkpt>
      <trkpt lat="43.09857" lon="-0.82123">
        <ele>262.16</ele>
        <time>2023-12-21T22:24:30.386Z</time>
      </trkpt>
      <trkpt lat="43.09797" lon="-0.81951">
        <ele>262.94</ele>
        <time>2023-12-21T22:24:38.948Z</time>
      </trkpt>
      <trkpt lat="43.09796" lon="-0.81925">
        <ele>263.78</ele>
        <time>2023-12-21T22:24:47.514Z</time>
      </trkpt>
      <trkpt lat="43.09827" lon="-0.81765">
        <ele>264.58</ele>
        <time>2023-12-21T22:24:56.102Z</time>
      </trkpt>
      <trkpt lat="43.09839" lon="-0.81729">
        <ele>265.5</ele>
        <time>2023-12-21T22:25:04.696Z</time>
      </trkpt>
      <trkpt lat="43.09859" lon="-0.81694">
        <ele>266.46</ele>
        <time>2023-12-21T22:25:13.296Z</time>
      </trkpt>
      <trkpt lat="43.09868" lon="-0.81678">
        <ele>267.47</ele>
        <time>2023-12-21T22:25:21.898Z</time>
      </trkpt>
      <trkpt lat="43.09934" lon="-0.81572">
        <ele>268.95</ele>
        <time>2023-12-21T22:25:30.519Z</time>
      </trkpt>
      <trkpt lat="43.09946" lon="-0.81558">
        <ele>270.16</ele>
        <time>2023-12-21T22:25:39.143Z</time>
      </trkpt>
      <trkpt lat="43.09959" lon="-0.81548">
        <ele>271.38</ele>
        <time>2023-12-21T22:25:47.770Z</time>
      </trkpt>
      <trkpt lat="43.09971" lon="-0.81543">
        <ele>272.49</ele>
        <time>2023-12-21T22:25:56.399Z</time>
      </trkpt>
      <trkpt lat="43.1002" lon="-0.81525">
        <ele>273.85</ele>
        <time>2023-12-21T22:26:05.038Z</time>
      </trkpt>
      <trkpt lat="43.10038" lon="-0.81515">
        <ele>274.93</ele>
        <time>2023-12-21T22:26:13.680Z</time>
      </trkpt>
      <trkpt lat="43.10053" lon="-0.81505">
        <ele>276</ele>
        <time>2023-12-21T22:26:22.326Z</time>
      </trkpt>
      <trkpt lat="43.10068" lon="-0.81491">
        <ele>277.09</ele>
        <time>2023-12-21T22:26:30.975Z</time>
      </trkpt>
      <trkpt lat="43.10083" lon="-0.81473">
        <ele>278.11</ele>
        <time>2023-12-21T22:26:39.628Z</time>
      </trkpt>
      <trkpt lat="43.10096" lon="-0.81449">
        <ele>279.12</ele>
        <time>2023-12-21T22:26:48.285Z</time>
      </trkpt>
      <trkpt lat="43.10104" lon="-0.81431">
        <ele>280.19</ele>
        <time>2023-12-21T22:26:56.945Z</time>
      </trkpt>
      <trkpt lat="43.10117" lon="-0.81378">
        <ele>281.18</ele>
        <time>2023-12-21T22:27:05.612Z</time>
      </trkpt>
      <trkpt lat="43.10131" lon="-0.81318">
        <ele>282.41</ele>
        <time>2023-12-21T22:27:14.288Z</time>
      </trkpt>
      <trkpt lat="43.1014" lon="-0.81269">
        <ele>283.84</ele>
        <time>2023-12-21T22:27:22.971Z</time>
      </trkpt>
      <trkpt lat="43.10144" lon="-0.81213">
        <ele>285.55</ele>
        <time>2023-12-21T22:27:31.661Z</time>
      </trkpt>
      <trkpt lat="43.10143" lon="-0.81174">
        <ele>287.5</ele>
        <time>2023-12-21T22:27:40.357Z</time>
      </trkpt>
      <trkpt lat="43.10138" lon="-0.81142">
        <ele>289.8</ele>
        <time>2023-12-21T22:27:49.057Z</time>
      </trkpt>
      <trkpt lat="43.10119" lon="-0.81072">
        <ele>292.63</ele>
        <time>2023-12-21T22:27:57.767Z</time>
      </trkpt>
      <trkpt lat="43.10111" lon="-0.81049">
        <ele>295.34</ele>
        <time>2023-12-21T22:28:06.481Z</time>
      </trkpt>
      <trkpt lat="43.1007" lon="-0.80971">
        <ele>298.57</ele>
        <time>2023-12-21T22:28:15.208Z</time>
      </trkpt>
      <trkpt lat="43.10057" lon="-0.80939">
        <ele>301.57</ele>
        <time>2023-12-21T22:28:23.940Z</time>
      </trkpt>
      <trkpt lat="43.10051" lon="-0.80909">
        <ele>304.57</ele>
        <time>2023-12-21T22:28:32.676Z</time>
      </trkpt>
      <trkpt lat="43.10051" lon="-0.80887">
        <ele>307.78</ele>
        <time>2023-12-21T22:28:41.415Z</time>
      </trkpt>
      <trkpt lat="43.10046" lon="-0.80865">
        <ele>311.01</ele>
        <time>2023-12-21T22:28:50.157Z</time>
      </trkpt>
      <trkpt lat="43.10051" lon="-0.80844">
        <ele>314.51</ele>
        <time>2023-12-21T22:28:58.902Z</time>
      </trkpt>
      <trkpt lat="43.10064" lon="-0.80817">
        <ele>318.07</ele>
        <time>2023-12-21T22:29:07.652Z</time>
      </trkpt>
      <trkpt lat="43.10082" lon="-0.8081">
        <ele>321.9</ele>
        <time>2023-12-21T22:29:16.405Z</time>
      </trkpt>
      <trkpt lat="43.10239" lon="-0.80685">
        <ele>326.54</ele>
        <time>2023-12-21T22:29:25.192Z</time>
      </trkpt>
      <trkpt lat="43.10252" lon="-0.80672">
        <ele>330.1</ele>
        <time>2023-12-21T22:29:33.982Z</time>
      </trkpt>
      <trkpt lat="43.10265" lon="-0.80655">
        <ele>333.69</ele>
        <time>2023-12-21T22:29:42.775Z</time>
      </trkpt>
      <trkpt lat="43.10285" lon="-0.80617">
        <ele>337.37</ele>
        <time>2023-12-21T22:29:51.575Z</time>
      </trkpt>
      <trkpt lat="43.10308" lon="-0.8055">
        <ele>340.98</ele>
        <time>2023-12-21T22:30:00.385Z</time>
      </trkpt>
      <trkpt lat="43.10304" lon="-0.80528">
        <ele>344.07</ele>
        <time>2023-12-21T22:30:09.198Z</time>
      </trkpt>
      <trkpt lat="43.1031" lon="-0.80486">
        <ele>347.47</ele>
        <time>2023-12-21T22:30:18.017Z</time>
      </trkpt>
      <trkpt lat="43.10317" lon="-0.80463">
        <ele>350.66</ele>
        <time>2023-12-21T22:30:26.839Z</time>
      </trkpt>
      <trkpt lat="43.10308" lon="-0.80435">
        <ele>353.38</ele>
        <time>2023-12-21T22:30:35.665Z</time>
      </trkpt>
      <trkpt lat="43.10293" lon="-0.80404">
        <ele>355.8</ele>
        <time>2023-12-21T22:30:44.496Z</time>
      </trkpt>
      <trkpt lat="43.10286" lon="-0.80382">
        <ele>358.15</ele>
        <time>2023-12-21T22:30:53.331Z</time>
      </trkpt>
      <trkpt lat="43.10284" lon="-0.80349">
        <ele>360.34</ele>
        <time>2023-12-21T22:31:02.170Z</time>
      </trkpt>
      <trkpt lat="43.10295" lon="-0.8029">
        <ele>362.52</ele>
        <time>2023-12-21T22:31:11.017Z</time>
      </trkpt>
      <trkpt lat="43.10297" lon="-0.8026">
        <ele>364.24</ele>
        <time>2023-12-21T22:31:19.869Z</time>
      </trkpt>
      <trkpt lat="43.10288" lon="-0.80131">
        <ele>365.86</ele>
        <time>2023-12-21T22:31:28.738Z</time>
      </trkpt>
      <trkpt lat="43.10288" lon="-0.80074">
        <ele>366.86</ele>
        <time>2023-12-21T22:31:37.615Z</time>
      </trkpt>
      <trkpt lat="43.10293" lon="-0.80044">
        <ele>367.42</ele>
        <time>2023-12-21T22:31:46.496Z</time>
      </trkpt>
      <trkpt lat="43.10306" lon="-0.80009">
        <ele>367.6</ele>
        <time>2023-12-21T22:31:55.383Z</time>
      </trkpt>
      <trkpt lat="43.1034" lon="-0.79935">
        <ele>367.29</ele>
        <time>2023-12-21T22:32:04.281Z</time>
      </trkpt>
      <trkpt lat="43.10373" lon="-0.79854">
        <ele>366.57</ele>
        <time>2023-12-21T22:32:13.192Z</time>
      </trkpt>
      <trkpt lat="43.10457" lon="-0.79637">
        <ele>365.63</ele>
        <time>2023-12-21T22:32:22.136Z</time>
      </trkpt>
      <trkpt lat="43.10518" lon="-0.79484">
        <ele>364.76</ele>
        <time>2023-12-21T22:32:31.104Z</time>
      </trkpt>
      <trkpt lat="43.10527" lon="-0.79457">
        <ele>363.69</ele>
        <time>2023-12-21T22:32:40.076Z</time>
      </trkpt>
      <trkpt lat="43.10567" lon="-0.79357">
        <ele>362.34</ele>
        <time>2023-12-21T22:32:49.064Z</time>
      </trkpt>
      <trkpt lat="43.10585" lon="-0.79323">
        <ele>360.89</ele>
        <time>2023-12-21T22:32:58.058Z</time>
      </trkpt>
      <trkpt lat="43.10699" lon="-0.79187">
        <ele>359.47</ele>
        <time>2023-12-21T22:33:07.080Z</time>
      </trkpt>
      <trkpt lat="43.10759" lon="-0.79072">
        <ele>357.28</ele>
        <time>2023-12-21T22:33:16.121Z</time>
      </trkpt>
      <trkpt lat="43.1078" lon="-0.79037">
        <ele>355.54</ele>
        <time>2023-12-21T22:33:25.168Z</time>
      </trkpt>
      <trkpt lat="43.10829" lon="-0.78987">
        <ele>353.59</ele>
        <time>2023-12-21T22:33:34.226Z</time>
      </trkpt>
      <trkpt lat="43.10879" lon="-0.78941">
        <ele>351.59</ele>
        <time>2023-12-21T22:33:43.296Z</time>
      </trkpt>
      <trkpt lat="43.10936" lon="-0.78907">
        <ele>350.02</ele>
        <time>2023-12-21T22:33:52.377Z</time>
      </trkpt>
      <trkpt lat="43.10958" lon="-0.78889">
        <ele>348.39</ele>
        <time>2023-12-21T22:34:01.463Z</time>
      </trkpt>
      <trkpt lat="43.11021" lon="-0.78801">
        <ele>346.8</ele>
        <time>2023-12-21T22:34:10.566Z</time>
      </trkpt>
      <trkpt lat="43.11037" lon="-0.78762">
        <ele>344.64</ele>
        <time>2023-12-21T22:34:19.675Z</time>
      </trkpt>
      <trkpt lat="43.11071" lon="-0.78662">
        <ele>342.84</ele>
        <time>2023-12-21T22:34:28.799Z</time>
      </trkpt>
      <trkpt lat="43.11079" lon="-0.78625">
        <ele>341.03</ele>
        <time>2023-12-21T22:34:37.928Z</time>
      </trkpt>
      <trkpt lat="43.11091" lon="-0.78512">
        <ele>338.6</ele>
        <time>2023-12-21T22:34:47.073Z</time>
      </trkpt>
      <trkpt lat="43.11098" lon="-0.78491">
        <ele>337</ele>
        <time>2023-12-21T22:34:56.221Z</time>
      </trkpt>
      <trkpt lat="43.11127" lon="-0.78447">
        <ele>335.5</ele>
        <time>2023-12-21T22:35:05.377Z</time>
      </trkpt>
      <trkpt lat="43.11143" lon="-0.78416">
        <ele>333.92</ele>
        <time>2023-12-21T22:35:14.538Z</time>
      </trkpt>
      <trkpt lat="43.11151" lon="-0.78389">
        <ele>332.53</ele>
        <time>2023-12-21T22:35:23.703Z</time>
      </trkpt>
      <trkpt lat="43.11158" lon="-0.78197">
        <ele>332.12</ele>
        <time>2023-12-21T22:35:32.894Z</time>
      </trkpt>
      <trkpt lat="43.11154" lon="-0.78155">
        <ele>330.46</ele>
        <time>2023-12-21T22:35:42.091Z</time>
      </trkpt>
      <trkpt lat="43.11145" lon="-0.78117">
        <ele>328.81</ele>
        <time>2023-12-21T22:35:51.294Z</time>
      </trkpt>
      <trkpt lat="43.11101" lon="-0.77977">
        <ele>326.69</ele>
        <time>2023-12-21T22:36:00.517Z</time>
      </trkpt>
      <trkpt lat="43.11057" lon="-0.77848">
        <ele>324.97</ele>
        <time>2023-12-21T22:36:09.760Z</time>
      </trkpt>
      <trkpt lat="43.11048" lon="-0.77815">
        <ele>323.4</ele>
        <time>2023-12-21T22:36:19.007Z</time>
      </trkpt>
      <trkpt lat="43.11036" lon="-0.77463">
        <ele>321.33</ele>
        <time>2023-12-21T22:36:28.303Z</time>
      </trkpt>
      <trkpt lat="43.11028" lon="-0.7722">
        <ele>320.43</ele>
        <time>2023-12-21T22:36:37.632Z</time>
      </trkpt>
      <trkpt lat="43.10988" lon="-0.77229">
        <ele>319.76</ele>
        <time>2023-12-21T22:36:46.968Z</time>
      </trkpt>
      <trkpt lat="43.10965" lon="-0.77247">
        <ele>319.18</ele>
        <time>2023-12-21T22:36:56.309Z</time>
      </trkpt>
      <trkpt lat="43.10945" lon="-0.7726">
        <ele>318.69</ele>
        <time>2023-12-21T22:37:05.654Z</time>
      </trkpt>
      <trkpt lat="43.10927" lon="-0.77263">
        <ele>318.4</ele>
        <time>2023-12-21T22:37:15.003Z</time>
      </trkpt>
      <trkpt lat="43.10905" lon="-0.77263">
        <ele>318.26</ele>
        <time>2023-12-21T22:37:24.356Z</time>
      </trkpt>
      <trkpt lat="43.10842" lon="-0.77252">
        <ele>318.55</ele>
        <time>2023-12-21T22:37:33.721Z</time>
      </trkpt>
      <trkpt lat="43.10702" lon="-0.7727">
        <ele>318.74</ele>
        <time>2023-12-21T22:37:43.112Z</time>
      </trkpt>
      <trkpt lat="43.10682" lon="-0.77277">
        <ele>318.89</ele>
        <time>2023-12-21T22:37:52.507Z</time>
      </trkpt>
      <trkpt lat="43.10614" lon="-0.77311">
        <ele>319.23</ele>
        <time>2023-12-21T22:38:01.915Z</time>
      </trkpt>
      <trkpt lat="43.10579" lon="-0.77339">
        <ele>319.53</ele>
        <time>2023-12-21T22:38:11.331Z</time>
      </trkpt>
      <trkpt lat="43.10559" lon="-0.77352">
        <ele>319.92</ele>
        <time>2023-12-21T22:38:20.751Z</time>
      </trkpt>
      <trkpt lat="43.10545" lon="-0.77357">
        <ele>320.36</ele>
        <time>2023-12-21T22:38:30.173Z</time>
      </trkpt>
      <trkpt lat="43.10522" lon="-0.7736">
        <ele>320.86</ele>
        <time>2023-12-21T22:38:39.600Z</time>
      </trkpt>
      <trkpt lat="43.10506" lon="-0.77357">
        <ele>321.38</ele>
        <time>2023-12-21T22:38:49.030Z</time>
      </trkpt>
      <trkpt lat="43.10464" lon="-0.77338">
        <ele>321.96</ele>
        <time>2023-12-21T22:38:58.468Z</time>
      </trkpt>
      <trkpt lat="43.10448" lon="-0.77334">
        <ele>322.9</ele>
        <time>2023-12-21T22:39:07.909Z</time>
      </trkpt>
      <trkpt lat="43.10436" lon="-0.77335">
        <ele>323.88</ele>
        <time>2023-12-21T22:39:17.352Z</time>
      </trkpt>
      <trkpt lat="43.10401" lon="-0.7735">
        <ele>325</ele>
        <time>2023-12-21T22:39:26.802Z</time>
      </trkpt>
      <trkpt lat="43.10375" lon="-0.77356">
        <ele>325.92</ele>
        <time>2023-12-21T22:39:36.257Z</time>
      </trkpt>
      <trkpt lat="43.10313" lon="-0.77378">
        <ele>326.39</ele>
        <time>2023-12-21T22:39:45.724Z</time>
      </trkpt>
      <trkpt lat="43.10196" lon="-0.77406">
        <ele>327.42</ele>
        <time>2023-12-21T22:39:55.213Z</time>
      </trkpt>
      <trkpt lat="43.10184" lon="-0.77415">
        <ele>327.66</ele>
        <time>2023-12-21T22:40:04.704Z</time>
      </trkpt>
      <trkpt lat="43.10141" lon="-0.77471">
        <ele>327.8</ele>
        <time>2023-12-21T22:40:14.207Z</time>
      </trkpt>
      <trkpt lat="43.10134" lon="-0.77485">
        <ele>328.38</ele>
        <time>2023-12-21T22:40:23.712Z</time>
      </trkpt>
      <trkpt lat="43.10103" lon="-0.77574">
        <ele>329.06</ele>
        <time>2023-12-21T22:40:33.230Z</time>
      </trkpt>
      <trkpt lat="43.101" lon="-0.77636">
        <ele>329.6</ele>
        <time>2023-12-21T22:40:42.757Z</time>
      </trkpt>
      <trkpt lat="43.10094" lon="-0.7767">
        <ele>330.37</ele>
        <time>2023-12-21T22:40:52.288Z</time>
      </trkpt>
      <trkpt lat="43.10085" lon="-0.77692">
        <ele>331.19</ele>
        <time>2023-12-21T22:41:01.823Z</time>
      </trkpt>
      <trkpt lat="43.10074" lon="-0.77712">
        <ele>332.09</ele>
        <time>2023-12-21T22:41:11.361Z</time>
      </trkpt>
      <trkpt lat="43.10049" lon="-0.77724">
        <ele>332.86</ele>
        <time>2023-12-21T22:41:20.904Z</time>
      </trkpt>
      <trkpt lat="43.10012" lon="-0.77728">
        <ele>333.61</ele>
        <time>2023-12-21T22:41:30.454Z</time>
      </trkpt>
      <trkpt lat="43.09978" lon="-0.77747">
        <ele>334.2</ele>
        <time>2023-12-21T22:41:40.011Z</time>
      </trkpt>
    </trkseg>
  </trk>
</gpx>